<?xml version="1.0" encoding="UTF-8" standalone="no" ?>
<gpx xmlns="http://www.topografix.com/GPX/1/1" xmlns:xsi="http://www.w3.org/2001/XMLSchema-instance" xsi:schemaLocation="http://www.topografix.com/GPX/1/1 http://www.topografix.com/GPX/1/1/gpx.xsd" version="1.1" creator="VisuGPX - https://www.visugpx.com">
  <metadata>
    <name>Itinérance Mai 2</name>
  </metadata>
  <trk>
    <name><![CDATA[Itinérance Mai 2_1]]></name>
    <trkseg>
      <trkpt lat="43.47581" lon="6.12886">
        <ele>160.928329</ele>
        <time>2021-05-18T17:46:36.855Z</time>
      </trkpt>
      <trkpt lat="43.47577" lon="6.12949">
        <ele>160.067087</ele>
        <time>2021-05-18T17:46:43.782Z</time>
      </trkpt>
      <trkpt lat="43.47579" lon="6.12985">
        <ele>159.577321</ele>
        <time>2021-05-18T17:46:47.816Z</time>
      </trkpt>
      <trkpt lat="43.47593" lon="6.13057">
        <ele>158.799244</ele>
        <time>2021-05-18T17:46:56.136Z</time>
      </trkpt>
      <trkpt lat="43.47601" lon="6.13073">
        <ele>158.599167</ele>
        <time>2021-05-18T17:46:58.286Z</time>
      </trkpt>
      <trkpt lat="43.47606" lon="6.13086">
        <ele>158.447539</ele>
        <time>2021-05-18T17:46:59.938Z</time>
      </trkpt>
      <trkpt lat="43.47611" lon="6.1311">
        <ele>158.185243</ele>
        <time>2021-05-18T17:47:02.857Z</time>
      </trkpt>
      <trkpt lat="43.47614" lon="6.13128">
        <ele>157.984788</ele>
        <time>2021-05-18T17:47:04.896Z</time>
      </trkpt>
      <trkpt lat="43.47612" lon="6.13147">
        <ele>157.787846</ele>
        <time>2021-05-18T17:47:07.247Z</time>
      </trkpt>
      <trkpt lat="43.47614" lon="6.1316">
        <ele>157.649926</ele>
        <time>2021-05-18T17:47:08.906Z</time>
      </trkpt>
      <trkpt lat="43.4764" lon="6.13293">
        <ele>156.364142</ele>
        <time>2021-05-18T17:47:25.385Z</time>
      </trkpt>
      <trkpt lat="43.47641" lon="6.13305">
        <ele>156.264319</ele>
        <time>2021-05-18T17:47:27.039Z</time>
      </trkpt>
      <trkpt lat="43.47639" lon="6.13319">
        <ele>156.147945</ele>
        <time>2021-05-18T17:47:28.512Z</time>
      </trkpt>
      <trkpt lat="43.47605" lon="6.13421">
        <ele>155.218674</ele>
        <time>2021-05-18T17:47:41.300Z</time>
      </trkpt>
      <trkpt lat="43.47593" lon="6.13478">
        <ele>154.651148</ele>
        <time>2021-05-18T17:47:47.936Z</time>
      </trkpt>
      <trkpt lat="43.47595" lon="6.13512">
        <ele>154.26711</ele>
        <time>2021-05-18T17:47:51.526Z</time>
      </trkpt>
      <trkpt lat="43.47612" lon="6.13558">
        <ele>153.682659</ele>
        <time>2021-05-18T17:47:57.208Z</time>
      </trkpt>
      <trkpt lat="43.47635" lon="6.13608">
        <ele>153.023817</ele>
        <time>2021-05-18T17:48:03.634Z</time>
      </trkpt>
      <trkpt lat="43.4764" lon="6.13632">
        <ele>152.729036</ele>
        <time>2021-05-18T17:48:06.502Z</time>
      </trkpt>
      <trkpt lat="43.47642" lon="6.1366">
        <ele>152.419884</ele>
        <time>2021-05-18T17:48:09.538Z</time>
      </trkpt>
      <trkpt lat="43.47643" lon="6.13676">
        <ele>152.238849</ele>
        <time>2021-05-18T17:48:11.291Z</time>
      </trkpt>
      <trkpt lat="43.47647" lon="6.13703">
        <ele>151.947531</ele>
        <time>2021-05-18T17:48:14.448Z</time>
      </trkpt>
      <trkpt lat="43.47665" lon="6.13889">
        <ele>150.144565</ele>
        <time>2021-05-18T17:48:35.439Z</time>
      </trkpt>
      <trkpt lat="43.47686" lon="6.14053">
        <ele>148.885196</ele>
        <time>2021-05-18T17:48:54.703Z</time>
      </trkpt>
      <trkpt lat="43.47687" lon="6.14062">
        <ele>148.824458</ele>
        <time>2021-05-18T17:48:55.819Z</time>
      </trkpt>
      <trkpt lat="43.47687" lon="6.14077">
        <ele>148.725474</ele>
        <time>2021-05-18T17:48:57.519Z</time>
      </trkpt>
      <trkpt lat="43.47688" lon="6.14085">
        <ele>148.672213</ele>
        <time>2021-05-18T17:48:58.340Z</time>
      </trkpt>
      <trkpt lat="43.47689" lon="6.14143">
        <ele>148.273586</ele>
        <time>2021-05-18T17:49:05.236Z</time>
      </trkpt>
      <trkpt lat="43.47733" lon="6.14446">
        <ele>146.726947</ele>
        <time>2021-05-18T17:49:42.024Z</time>
      </trkpt>
      <trkpt lat="43.47753" lon="6.14628">
        <ele>146.252772</ele>
        <time>2021-05-18T17:50:04.966Z</time>
      </trkpt>
      <trkpt lat="43.47756" lon="6.14657">
        <ele>146.177234</ele>
        <time>2021-05-18T17:50:08.653Z</time>
      </trkpt>
      <trkpt lat="43.47771" lon="6.14794">
        <ele>145.967719</ele>
        <time>2021-05-18T17:50:25.984Z</time>
      </trkpt>
      <trkpt lat="43.47811" lon="6.15134">
        <ele>145.867166</ele>
        <time>2021-05-18T17:51:09.788Z</time>
      </trkpt>
      <trkpt lat="43.47842" lon="6.15378">
        <ele>147.091038</ele>
        <time>2021-05-18T17:51:48.184Z</time>
      </trkpt>
      <trkpt lat="43.47843" lon="6.15384">
        <ele>147.124271</ele>
        <time>2021-05-18T17:51:49.459Z</time>
      </trkpt>
      <trkpt lat="43.47882" lon="6.15806">
        <ele>147.999343</ele>
        <time>2021-05-18T17:52:49.960Z</time>
      </trkpt>
      <trkpt lat="43.47893" lon="6.15906">
        <ele>147.806339</ele>
        <time>2021-05-18T17:53:01.730Z</time>
      </trkpt>
      <trkpt lat="43.47893" lon="6.15915">
        <ele>147.729116</ele>
        <time>2021-05-18T17:53:02.717Z</time>
      </trkpt>
      <trkpt lat="43.479" lon="6.15974">
        <ele>147.212122</ele>
        <time>2021-05-18T17:53:09.451Z</time>
      </trkpt>
      <trkpt lat="43.47922" lon="6.16139">
        <ele>145.747944</ele>
        <time>2021-05-18T17:53:28.348Z</time>
      </trkpt>
      <trkpt lat="43.47936" lon="6.16277">
        <ele>144.483207</ele>
        <time>2021-05-18T17:53:44.428Z</time>
      </trkpt>
      <trkpt lat="43.47938" lon="6.16295">
        <ele>144.317022</ele>
        <time>2021-05-18T17:53:46.548Z</time>
      </trkpt>
      <trkpt lat="43.4798" lon="6.16523">
        <ele>141.374945</ele>
        <time>2021-05-18T17:54:12.539Z</time>
      </trkpt>
      <trkpt lat="43.47967" lon="6.16732">
        <ele>137.98248</ele>
        <time>2021-05-18T17:54:33.939Z</time>
      </trkpt>
      <trkpt lat="43.47968" lon="6.16739">
        <ele>137.850179</ele>
        <time>2021-05-18T17:54:34.586Z</time>
      </trkpt>
      <trkpt lat="43.47972" lon="6.1679">
        <ele>136.933167</ele>
        <time>2021-05-18T17:54:39.959Z</time>
      </trkpt>
      <trkpt lat="43.47989" lon="6.16972">
        <ele>134.84634</ele>
        <time>2021-05-18T17:54:59.866Z</time>
      </trkpt>
      <trkpt lat="43.47995" lon="6.17012">
        <ele>134.573862</ele>
        <time>2021-05-18T17:55:04.790Z</time>
      </trkpt>
      <trkpt lat="43.48005" lon="6.17064">
        <ele>134.216616</ele>
        <time>2021-05-18T17:55:11.337Z</time>
      </trkpt>
      <trkpt lat="43.48057" lon="6.17278">
        <ele>134.188107</ele>
        <time>2021-05-18T17:55:41.188Z</time>
      </trkpt>
      <trkpt lat="43.48075" lon="6.17354">
        <ele>134.342633</ele>
        <time>2021-05-18T17:55:53.299Z</time>
      </trkpt>
      <trkpt lat="43.48089" lon="6.17411">
        <ele>134.568579</ele>
        <time>2021-05-18T17:56:01.524Z</time>
      </trkpt>
      <trkpt lat="43.48113" lon="6.17441">
        <ele>134.736804</ele>
        <time>2021-05-18T17:56:08.120Z</time>
      </trkpt>
      <trkpt lat="43.48127" lon="6.17453">
        <ele>134.824367</ele>
        <time>2021-05-18T17:56:11.511Z</time>
      </trkpt>
      <trkpt lat="43.48145" lon="6.17468">
        <ele>134.931302</ele>
        <time>2021-05-18T17:56:15.820Z</time>
      </trkpt>
      <trkpt lat="43.4815" lon="6.17473">
        <ele>134.966945</ele>
        <time>2021-05-18T17:56:17.226Z</time>
      </trkpt>
      <trkpt lat="43.48164" lon="6.17488">
        <ele>135.058087</ele>
        <time>2021-05-18T17:56:20.719Z</time>
      </trkpt>
      <trkpt lat="43.48169" lon="6.17495">
        <ele>135.09637</ele>
        <time>2021-05-18T17:56:22.195Z</time>
      </trkpt>
      <trkpt lat="43.48176" lon="6.17506">
        <ele>135.151006</ele>
        <time>2021-05-18T17:56:24.243Z</time>
      </trkpt>
      <trkpt lat="43.48204" lon="6.17545">
        <ele>135.365297</ele>
        <time>2021-05-18T17:56:31.754Z</time>
      </trkpt>
      <trkpt lat="43.48221" lon="6.17566">
        <ele>135.492866</ele>
        <time>2021-05-18T17:56:36.250Z</time>
      </trkpt>
      <trkpt lat="43.48225" lon="6.17577">
        <ele>135.540987</ele>
        <time>2021-05-18T17:56:37.948Z</time>
      </trkpt>
      <trkpt lat="43.48234" lon="6.17738">
        <ele>136.185818</ele>
        <time>2021-05-18T17:57:00.965Z</time>
      </trkpt>
      <trkpt lat="43.48228" lon="6.17821">
        <ele>136.998675</ele>
        <time>2021-05-18T17:57:14.372Z</time>
      </trkpt>
      <trkpt lat="43.48229" lon="6.17869">
        <ele>137.518613</ele>
        <time>2021-05-18T17:57:22.261Z</time>
      </trkpt>
      <trkpt lat="43.4824" lon="6.18032">
        <ele>139.023521</ele>
        <time>2021-05-18T17:57:53.077Z</time>
      </trkpt>
      <trkpt lat="43.48238" lon="6.18078">
        <ele>139.193916</ele>
        <time>2021-05-18T17:58:00.736Z</time>
      </trkpt>
      <trkpt lat="43.48232" lon="6.18096">
        <ele>139.268538</ele>
        <time>2021-05-18T17:58:03.898Z</time>
      </trkpt>
      <trkpt lat="43.48224" lon="6.18108">
        <ele>139.329399</ele>
        <time>2021-05-18T17:58:07.009Z</time>
      </trkpt>
      <trkpt lat="43.48214" lon="6.18122">
        <ele>139.40499</ele>
        <time>2021-05-18T17:58:09.478Z</time>
      </trkpt>
      <trkpt lat="43.482" lon="6.18132">
        <ele>139.484563</ele>
        <time>2021-05-18T17:58:12.953Z</time>
      </trkpt>
      <trkpt lat="43.48188" lon="6.18138">
        <ele>139.552058</ele>
        <time>2021-05-18T17:58:15.024Z</time>
      </trkpt>
      <trkpt lat="43.48118" lon="6.18169">
        <ele>139.402094</ele>
        <time>2021-05-18T17:58:27.020Z</time>
      </trkpt>
      <trkpt lat="43.48089" lon="6.18194">
        <ele>138.741702</ele>
        <time>2021-05-18T17:58:32.350Z</time>
      </trkpt>
      <trkpt lat="43.48044" lon="6.18268">
        <ele>137.391158</ele>
        <time>2021-05-18T17:58:42.191Z</time>
      </trkpt>
      <trkpt lat="43.48036" lon="6.18279">
        <ele>137.163369</ele>
        <time>2021-05-18T17:58:43.816Z</time>
      </trkpt>
      <trkpt lat="43.47982" lon="6.1832">
        <ele>136.096589</ele>
        <time>2021-05-18T17:58:52.811Z</time>
      </trkpt>
      <trkpt lat="43.47966" lon="6.18332">
        <ele>135.876417</ele>
        <time>2021-05-18T17:58:55.345Z</time>
      </trkpt>
      <trkpt lat="43.47957" lon="6.18338">
        <ele>135.74961</ele>
        <time>2021-05-18T17:58:56.860Z</time>
      </trkpt>
      <trkpt lat="43.47951" lon="6.18342">
        <ele>135.664761</ele>
        <time>2021-05-18T17:58:57.933Z</time>
      </trkpt>
      <trkpt lat="43.47946" lon="6.18345">
        <ele>135.589839</ele>
        <time>2021-05-18T17:58:58.791Z</time>
      </trkpt>
      <trkpt lat="43.47942" lon="6.18345">
        <ele>135.538016</ele>
        <time>2021-05-18T17:58:59.392Z</time>
      </trkpt>
      <trkpt lat="43.47938" lon="6.18348">
        <ele>135.487594</ele>
        <time>2021-05-18T17:59:00.029Z</time>
      </trkpt>
      <trkpt lat="43.47935" lon="6.18352">
        <ele>135.436746</ele>
        <time>2021-05-18T17:59:00.667Z</time>
      </trkpt>
      <trkpt lat="43.47927" lon="6.18355">
        <ele>135.332212</ele>
        <time>2021-05-18T17:59:01.943Z</time>
      </trkpt>
      <trkpt lat="43.47917" lon="6.18358">
        <ele>135.200711</ele>
        <time>2021-05-18T17:59:03.665Z</time>
      </trkpt>
      <trkpt lat="43.47912" lon="6.18362">
        <ele>135.125958</ele>
        <time>2021-05-18T17:59:04.544Z</time>
      </trkpt>
      <trkpt lat="43.47909" lon="6.18365">
        <ele>135.07399</ele>
        <time>2021-05-18T17:59:05.188Z</time>
      </trkpt>
      <trkpt lat="43.47876" lon="6.18395">
        <ele>134.579236</ele>
        <time>2021-05-18T17:59:11.651Z</time>
      </trkpt>
      <trkpt lat="43.47834" lon="6.1847">
        <ele>133.888275</ele>
        <time>2021-05-18T17:59:23.054Z</time>
      </trkpt>
      <trkpt lat="43.47826" lon="6.18502">
        <ele>133.735214</ele>
        <time>2021-05-18T17:59:27.047Z</time>
      </trkpt>
      <trkpt lat="43.47809" lon="6.18634">
        <ele>133.111297</ele>
        <time>2021-05-18T17:59:42.602Z</time>
      </trkpt>
      <trkpt lat="43.47794" lon="6.18679">
        <ele>132.939885</ele>
        <time>2021-05-18T17:59:48.738Z</time>
      </trkpt>
      <trkpt lat="43.47766" lon="6.18708">
        <ele>133.046859</ele>
        <time>2021-05-18T17:59:55.298Z</time>
      </trkpt>
      <trkpt lat="43.47762" lon="6.18704">
        <ele>133.060424</ele>
        <time>2021-05-18T17:59:56.069Z</time>
      </trkpt>
      <trkpt lat="43.47743" lon="6.18684">
        <ele>133.13278</ele>
        <time>2021-05-18T18:00:00.989Z</time>
      </trkpt>
      <trkpt lat="43.4774" lon="6.18678">
        <ele>133.14929</ele>
        <time>2021-05-18T18:00:02.505Z</time>
      </trkpt>
      <trkpt lat="43.47737" lon="6.18669">
        <ele>133.170426</ele>
        <time>2021-05-18T18:00:03.823Z</time>
      </trkpt>
      <trkpt lat="43.47733" lon="6.18634">
        <ele>133.247974</ele>
        <time>2021-05-18T18:00:08.805Z</time>
      </trkpt>
      <trkpt lat="43.47729" lon="6.186">
        <ele>133.325137</ele>
        <time>2021-05-18T18:00:13.689Z</time>
      </trkpt>
      <trkpt lat="43.47727" lon="6.18591">
        <ele>133.343899</ele>
        <time>2021-05-18T18:00:14.747Z</time>
      </trkpt>
      <trkpt lat="43.47726" lon="6.18587">
        <ele>133.355485</ele>
        <time>2021-05-18T18:00:15.741Z</time>
      </trkpt>
      <trkpt lat="43.47724" lon="6.18582">
        <ele>133.365424</ele>
        <time>2021-05-18T18:00:16.659Z</time>
      </trkpt>
      <trkpt lat="43.47718" lon="6.18569">
        <ele>133.400766</ele>
        <time>2021-05-18T18:00:18.687Z</time>
      </trkpt>
      <trkpt lat="43.4771" lon="6.18557">
        <ele>133.437036</ele>
        <time>2021-05-18T18:00:20.796Z</time>
      </trkpt>
      <trkpt lat="43.47705" lon="6.1855">
        <ele>133.456695</ele>
        <time>2021-05-18T18:00:21.961Z</time>
      </trkpt>
      <trkpt lat="43.47699" lon="6.18539">
        <ele>133.514633</ele>
        <time>2021-05-18T18:00:24.281Z</time>
      </trkpt>
      <trkpt lat="43.47694" lon="6.18528">
        <ele>133.576924</ele>
        <time>2021-05-18T18:00:25.878Z</time>
      </trkpt>
      <trkpt lat="43.47691" lon="6.18523">
        <ele>133.606758</ele>
        <time>2021-05-18T18:00:26.836Z</time>
      </trkpt>
      <trkpt lat="43.47681" lon="6.18496">
        <ele>133.748345</ele>
        <time>2021-05-18T18:00:31.339Z</time>
      </trkpt>
      <trkpt lat="43.47678" lon="6.18489">
        <ele>133.790256</ele>
        <time>2021-05-18T18:00:32.640Z</time>
      </trkpt>
      <trkpt lat="43.47673" lon="6.18486">
        <ele>133.824982</ele>
        <time>2021-05-18T18:00:33.505Z</time>
      </trkpt>
      <trkpt lat="43.47596" lon="6.18469">
        <ele>134.333121</ele>
        <time>2021-05-18T18:00:50.722Z</time>
      </trkpt>
      <trkpt lat="43.4754" lon="6.18454">
        <ele>134.743417</ele>
        <time>2021-05-18T18:01:01.738Z</time>
      </trkpt>
      <trkpt lat="43.47529" lon="6.18452">
        <ele>134.856214</ele>
        <time>2021-05-18T18:01:04.212Z</time>
      </trkpt>
      <trkpt lat="43.47513" lon="6.18448">
        <ele>135.025273</ele>
        <time>2021-05-18T18:01:07.015Z</time>
      </trkpt>
      <trkpt lat="43.47466" lon="6.18435">
        <ele>135.520067</ele>
        <time>2021-05-18T18:01:16.514Z</time>
      </trkpt>
      <trkpt lat="43.47465" lon="6.18435">
        <ele>135.528413</ele>
        <time>2021-05-18T18:01:17.339Z</time>
      </trkpt>
      <trkpt lat="43.47339" lon="6.18405">
        <ele>136.905794</ele>
        <time>2021-05-18T18:01:46.536Z</time>
      </trkpt>
      <trkpt lat="43.47321" lon="6.18407">
        <ele>137.129748</ele>
        <time>2021-05-18T18:01:51.337Z</time>
      </trkpt>
      <trkpt lat="43.47307" lon="6.18419">
        <ele>137.322539</ele>
        <time>2021-05-18T18:01:54.640Z</time>
      </trkpt>
      <trkpt lat="43.47298" lon="6.18448">
        <ele>137.60479</ele>
        <time>2021-05-18T18:01:59.312Z</time>
      </trkpt>
      <trkpt lat="43.473" lon="6.18543">
        <ele>138.443152</ele>
        <time>2021-05-18T18:02:13.224Z</time>
      </trkpt>
      <trkpt lat="43.47311" lon="6.18629">
        <ele>139.881455</ele>
        <time>2021-05-18T18:02:30.587Z</time>
      </trkpt>
      <trkpt lat="43.47323" lon="6.18653">
        <ele>140.479546</ele>
        <time>2021-05-18T18:02:37.799Z</time>
      </trkpt>
      <trkpt lat="43.47327" lon="6.18655">
        <ele>140.596883</ele>
        <time>2021-05-18T18:02:38.582Z</time>
      </trkpt>
      <trkpt lat="43.4733" lon="6.18685">
        <ele>141.207357</ele>
        <time>2021-05-18T18:02:45.347Z</time>
      </trkpt>
      <trkpt lat="43.47215" lon="6.18665">
        <ele>144.226513</ele>
        <time>2021-05-18T18:03:19.829Z</time>
      </trkpt>
      <trkpt lat="43.47171" lon="6.18678">
        <ele>145.194881</ele>
        <time>2021-05-18T18:03:34.061Z</time>
      </trkpt>
      <trkpt lat="43.47156" lon="6.18699">
        <ele>145.652599</ele>
        <time>2021-05-18T18:03:40.883Z</time>
      </trkpt>
      <trkpt lat="43.47064" lon="6.18764">
        <ele>147.361494</ele>
        <time>2021-05-18T18:04:04.996Z</time>
      </trkpt>
      <trkpt lat="43.47029" lon="6.18771">
        <ele>147.084994</ele>
        <time>2021-05-18T18:04:11.397Z</time>
      </trkpt>
      <trkpt lat="43.46999" lon="6.18802">
        <ele>146.785399</ele>
        <time>2021-05-18T18:04:18.688Z</time>
      </trkpt>
      <trkpt lat="43.46935" lon="6.18991">
        <ele>144.065436</ele>
        <time>2021-05-18T18:04:41.875Z</time>
      </trkpt>
      <trkpt lat="43.46928" lon="6.19044">
        <ele>142.78528</ele>
        <time>2021-05-18T18:04:47.439Z</time>
      </trkpt>
      <trkpt lat="43.46917" lon="6.19088">
        <ele>141.700246</ele>
        <time>2021-05-18T18:04:52.056Z</time>
      </trkpt>
      <trkpt lat="43.46888" lon="6.19123">
        <ele>140.423528</ele>
        <time>2021-05-18T18:04:57.470Z</time>
      </trkpt>
      <trkpt lat="43.46865" lon="6.19129">
        <ele>139.867785</ele>
        <time>2021-05-18T18:05:00.619Z</time>
      </trkpt>
      <trkpt lat="43.46828" lon="6.19136">
        <ele>139.107042</ele>
        <time>2021-05-18T18:05:05.716Z</time>
      </trkpt>
      <trkpt lat="43.46792" lon="6.1913">
        <ele>138.355134</ele>
        <time>2021-05-18T18:05:10.938Z</time>
      </trkpt>
      <trkpt lat="43.46775" lon="6.19118">
        <ele>137.953928</ele>
        <time>2021-05-18T18:05:14.037Z</time>
      </trkpt>
      <trkpt lat="43.46763" lon="6.19102">
        <ele>137.610884</ele>
        <time>2021-05-18T18:05:16.681Z</time>
      </trkpt>
      <trkpt lat="43.46754" lon="6.191">
        <ele>137.412827</ele>
        <time>2021-05-18T18:05:18.462Z</time>
      </trkpt>
      <trkpt lat="43.46742" lon="6.19103">
        <ele>137.176207</ele>
        <time>2021-05-18T18:05:20.414Z</time>
      </trkpt>
      <trkpt lat="43.46679" lon="6.19155">
        <ele>137.547977</ele>
        <time>2021-05-18T18:05:34.669Z</time>
      </trkpt>
      <trkpt lat="43.46584" lon="6.19239">
        <ele>140.409955</ele>
        <time>2021-05-18T18:06:07.564Z</time>
      </trkpt>
      <trkpt lat="43.46561" lon="6.19244">
        <ele>141.027637</ele>
        <time>2021-05-18T18:06:16.005Z</time>
      </trkpt>
      <trkpt lat="43.46537" lon="6.19239">
        <ele>142.909902</ele>
        <time>2021-05-18T18:06:24.863Z</time>
      </trkpt>
      <trkpt lat="43.46527" lon="6.19246">
        <ele>143.810495</ele>
        <time>2021-05-18T18:06:29.132Z</time>
      </trkpt>
      <trkpt lat="43.46504" lon="6.1927">
        <ele>146.231481</ele>
        <time>2021-05-18T18:06:44.923Z</time>
      </trkpt>
      <trkpt lat="43.46483" lon="6.19311">
        <ele>149.207473</ele>
        <time>2021-05-18T18:07:04.151Z</time>
      </trkpt>
      <trkpt lat="43.46466" lon="6.19311">
        <ele>150.67136</ele>
        <time>2021-05-18T18:07:15.845Z</time>
      </trkpt>
      <trkpt lat="43.46442" lon="6.19329">
        <ele>152.960399</ele>
        <time>2021-05-18T18:07:29.509Z</time>
      </trkpt>
      <trkpt lat="43.46409" lon="6.19341">
        <ele>155.72684</ele>
        <time>2021-05-18T18:07:48.628Z</time>
      </trkpt>
      <trkpt lat="43.46403" lon="6.19346">
        <ele>156.44341</ele>
        <time>2021-05-18T18:07:54.820Z</time>
      </trkpt>
      <trkpt lat="43.464" lon="6.1935">
        <ele>156.939966</ele>
        <time>2021-05-18T18:07:59.230Z</time>
      </trkpt>
      <trkpt lat="43.46416" lon="6.1943">
        <ele>163.224193</ele>
        <time>2021-05-18T18:08:32.605Z</time>
      </trkpt>
      <trkpt lat="43.4642" lon="6.19485">
        <ele>167.456477</ele>
        <time>2021-05-18T18:09:00.702Z</time>
      </trkpt>
      <trkpt lat="43.46416" lon="6.19547">
        <ele>172.202851</ele>
        <time>2021-05-18T18:09:32.782Z</time>
      </trkpt>
      <trkpt lat="43.46404" lon="6.19632">
        <ele>176.891769</ele>
        <time>2021-05-18T18:10:01.758Z</time>
      </trkpt>
      <trkpt lat="43.46398" lon="6.1965">
        <ele>177.627767</ele>
        <time>2021-05-18T18:10:09.606Z</time>
      </trkpt>
      <trkpt lat="43.46393" lon="6.19665">
        <ele>178.230987</ele>
        <time>2021-05-18T18:10:13.793Z</time>
      </trkpt>
      <trkpt lat="43.46407" lon="6.19733">
        <ele>180.909005</ele>
        <time>2021-05-18T18:10:33.859Z</time>
      </trkpt>
      <trkpt lat="43.4644" lon="6.19807">
        <ele>184.131203</ele>
        <time>2021-05-18T18:10:53.988Z</time>
      </trkpt>
      <trkpt lat="43.46463" lon="6.19874">
        <ele>184.390691</ele>
        <time>2021-05-18T18:11:07.567Z</time>
      </trkpt>
      <trkpt lat="43.4644" lon="6.19807">
        <ele>184.51502</ele>
        <time>2021-05-18T18:11:17.325Z</time>
      </trkpt>
      <trkpt lat="43.46407" lon="6.19733">
        <ele>184.657484</ele>
        <time>2021-05-18T18:11:27.868Z</time>
      </trkpt>
      <trkpt lat="43.46393" lon="6.19665">
        <ele>183.911215</ele>
        <time>2021-05-18T18:11:36.438Z</time>
      </trkpt>
      <trkpt lat="43.46398" lon="6.1965">
        <ele>183.688262</ele>
        <time>2021-05-18T18:11:38.269Z</time>
      </trkpt>
      <trkpt lat="43.46407" lon="6.19692">
        <ele>183.079946</ele>
        <time>2021-05-18T18:11:46.816Z</time>
      </trkpt>
      <trkpt lat="43.46422" lon="6.19748">
        <ele>182.255089</ele>
        <time>2021-05-18T18:11:58.120Z</time>
      </trkpt>
      <trkpt lat="43.46445" lon="6.19792">
        <ele>181.507928</ele>
        <time>2021-05-18T18:12:08.035Z</time>
      </trkpt>
      <trkpt lat="43.46476" lon="6.19888">
        <ele>178.971302</ele>
        <time>2021-05-18T18:12:26.901Z</time>
      </trkpt>
      <trkpt lat="43.46499" lon="6.19906">
        <ele>177.995268</ele>
        <time>2021-05-18T18:12:33.447Z</time>
      </trkpt>
      <trkpt lat="43.46531" lon="6.19972">
        <ele>175.906804</ele>
        <time>2021-05-18T18:12:47.219Z</time>
      </trkpt>
      <trkpt lat="43.46545" lon="6.20014">
        <ele>174.700513</ele>
        <time>2021-05-18T18:12:55.090Z</time>
      </trkpt>
      <trkpt lat="43.46556" lon="6.20025">
        <ele>174.169001</ele>
        <time>2021-05-18T18:12:58.288Z</time>
      </trkpt>
      <trkpt lat="43.46642" lon="6.20075">
        <ele>170.487531</ele>
        <time>2021-05-18T18:13:20.322Z</time>
      </trkpt>
      <trkpt lat="43.46664" lon="6.20119">
        <ele>168.971897</ele>
        <time>2021-05-18T18:13:29.604Z</time>
      </trkpt>
      <trkpt lat="43.46682" lon="6.20128">
        <ele>168.200997</ele>
        <time>2021-05-18T18:13:34.365Z</time>
      </trkpt>
      <trkpt lat="43.46727" lon="6.20128">
        <ele>167.084301</ele>
        <time>2021-05-18T18:13:45.347Z</time>
      </trkpt>
      <trkpt lat="43.46736" lon="6.20136">
        <ele>166.881906</ele>
        <time>2021-05-18T18:13:48.107Z</time>
      </trkpt>
      <trkpt lat="43.4674" lon="6.20152">
        <ele>166.656453</ele>
        <time>2021-05-18T18:13:51.211Z</time>
      </trkpt>
      <trkpt lat="43.46738" lon="6.20173">
        <ele>166.381179</ele>
        <time>2021-05-18T18:13:55.018Z</time>
      </trkpt>
      <trkpt lat="43.46719" lon="6.20202">
        <ele>165.852894</ele>
        <time>2021-05-18T18:14:02.518Z</time>
      </trkpt>
      <trkpt lat="43.46714" lon="6.2023">
        <ele>165.466097</ele>
        <time>2021-05-18T18:14:08.105Z</time>
      </trkpt>
      <trkpt lat="43.46716" lon="6.20258">
        <ele>165.092731</ele>
        <time>2021-05-18T18:14:13.520Z</time>
      </trkpt>
      <trkpt lat="43.46741" lon="6.20297">
        <ele>164.38994</ele>
        <time>2021-05-18T18:14:23.963Z</time>
      </trkpt>
      <trkpt lat="43.46768" lon="6.20391">
        <ele>164.262306</ele>
        <time>2021-05-18T18:14:45.269Z</time>
      </trkpt>
      <trkpt lat="43.4677" lon="6.20423">
        <ele>164.246335</ele>
        <time>2021-05-18T18:14:52.108Z</time>
      </trkpt>
      <trkpt lat="43.46786" lon="6.20453">
        <ele>164.227792</ele>
        <time>2021-05-18T18:15:00.118Z</time>
      </trkpt>
      <trkpt lat="43.46782" lon="6.20479">
        <ele>164.21468</ele>
        <time>2021-05-18T18:15:05.931Z</time>
      </trkpt>
      <trkpt lat="43.46774" lon="6.20524">
        <ele>164.191324</ele>
        <time>2021-05-18T18:15:16.489Z</time>
      </trkpt>
      <trkpt lat="43.46732" lon="6.20603">
        <ele>165.057508</ele>
        <time>2021-05-18T18:15:39.158Z</time>
      </trkpt>
      <trkpt lat="43.4668" lon="6.2066">
        <ele>165.973401</ele>
        <time>2021-05-18T18:16:01.869Z</time>
      </trkpt>
      <trkpt lat="43.46672" lon="6.20686">
        <ele>166.262942</ele>
        <time>2021-05-18T18:16:08.915Z</time>
      </trkpt>
      <trkpt lat="43.46675" lon="6.20707">
        <ele>166.469742</ele>
        <time>2021-05-18T18:16:15.065Z</time>
      </trkpt>
      <trkpt lat="43.46668" lon="6.2073">
        <ele>166.812006</ele>
        <time>2021-05-18T18:16:22.814Z</time>
      </trkpt>
      <trkpt lat="43.46637" lon="6.2074">
        <ele>167.939389</ele>
        <time>2021-05-18T18:16:37.022Z</time>
      </trkpt>
      <trkpt lat="43.46595" lon="6.20768">
        <ele>169.603104</ele>
        <time>2021-05-18T18:16:58.521Z</time>
      </trkpt>
      <trkpt lat="43.46591" lon="6.20757">
        <ele>169.922691</ele>
        <time>2021-05-18T18:17:03.241Z</time>
      </trkpt>
      <trkpt lat="43.46605" lon="6.2073">
        <ele>170.774316</ele>
        <time>2021-05-18T18:17:13.931Z</time>
      </trkpt>
      <trkpt lat="43.46613" lon="6.20725">
        <ele>171.083001</ele>
        <time>2021-05-18T18:17:17.690Z</time>
      </trkpt>
      <trkpt lat="43.46622" lon="6.20706">
        <ele>171.669005</ele>
        <time>2021-05-18T18:17:25.184Z</time>
      </trkpt>
      <trkpt lat="43.46615" lon="6.20702">
        <ele>171.934364</ele>
        <time>2021-05-18T18:17:28.745Z</time>
      </trkpt>
      <trkpt lat="43.46608" lon="6.20694">
        <ele>172.268651</ele>
        <time>2021-05-18T18:17:32.094Z</time>
      </trkpt>
      <trkpt lat="43.466" lon="6.20677">
        <ele>172.771532</ele>
        <time>2021-05-18T18:17:38.917Z</time>
      </trkpt>
      <trkpt lat="43.46571" lon="6.20706">
        <ele>173.31794</ele>
        <time>2021-05-18T18:17:49.951Z</time>
      </trkpt>
      <trkpt lat="43.46547" lon="6.2072">
        <ele>173.556801</ele>
        <time>2021-05-18T18:17:57.327Z</time>
      </trkpt>
      <trkpt lat="43.46501" lon="6.20733">
        <ele>173.987843</ele>
        <time>2021-05-18T18:18:09.815Z</time>
      </trkpt>
      <trkpt lat="43.46458" lon="6.20841">
        <ele>174.521854</ele>
        <time>2021-05-18T18:18:24.783Z</time>
      </trkpt>
      <trkpt lat="43.46424" lon="6.20879">
        <ele>173.744691</ele>
        <time>2021-05-18T18:18:31.306Z</time>
      </trkpt>
      <trkpt lat="43.46385" lon="6.20904">
        <ele>172.982099</ele>
        <time>2021-05-18T18:18:37.764Z</time>
      </trkpt>
      <trkpt lat="43.46371" lon="6.20908">
        <ele>172.719073</ele>
        <time>2021-05-18T18:18:40.000Z</time>
      </trkpt>
      <trkpt lat="43.46335" lon="6.20896">
        <ele>172.056521</ele>
        <time>2021-05-18T18:18:45.706Z</time>
      </trkpt>
      <trkpt lat="43.46237" lon="6.20893">
        <ele>171.916635</ele>
        <time>2021-05-18T18:19:01.977Z</time>
      </trkpt>
      <trkpt lat="43.46171" lon="6.20877">
        <ele>172.322612</ele>
        <time>2021-05-18T18:19:17.469Z</time>
      </trkpt>
      <trkpt lat="43.46161" lon="6.20863">
        <ele>172.407862</ele>
        <time>2021-05-18T18:19:20.502Z</time>
      </trkpt>
      <trkpt lat="43.46152" lon="6.20857">
        <ele>172.468973</ele>
        <time>2021-05-18T18:19:24.886Z</time>
      </trkpt>
      <trkpt lat="43.46126" lon="6.20765">
        <ele>173.821728</ele>
        <time>2021-05-18T18:19:53.298Z</time>
      </trkpt>
      <trkpt lat="43.46118" lon="6.20747">
        <ele>174.192366</ele>
        <time>2021-05-18T18:19:59.426Z</time>
      </trkpt>
      <trkpt lat="43.46097" lon="6.20695">
        <ele>175.244146</ele>
        <time>2021-05-18T18:20:17.126Z</time>
      </trkpt>
      <trkpt lat="43.46036" lon="6.20614">
        <ele>177.143785</ele>
        <time>2021-05-18T18:20:50.951Z</time>
      </trkpt>
      <trkpt lat="43.45999" lon="6.20583">
        <ele>177.701705</ele>
        <time>2021-05-18T18:21:06.611Z</time>
      </trkpt>
      <trkpt lat="43.45956" lon="6.2056">
        <ele>178.295046</ele>
        <time>2021-05-18T18:21:22.281Z</time>
      </trkpt>
      <trkpt lat="43.45896" lon="6.20542">
        <ele>179.082203</ele>
        <time>2021-05-18T18:21:42.525Z</time>
      </trkpt>
      <trkpt lat="43.45854" lon="6.20543">
        <ele>179.406258</ele>
        <time>2021-05-18T18:21:55.961Z</time>
      </trkpt>
      <trkpt lat="43.45806" lon="6.20559">
        <ele>179.636848</ele>
        <time>2021-05-18T18:22:11.685Z</time>
      </trkpt>
      <trkpt lat="43.45651" lon="6.20597">
        <ele>179.207543</ele>
        <time>2021-05-18T18:23:00.726Z</time>
      </trkpt>
      <trkpt lat="43.45596" lon="6.20652">
        <ele>178.025977</ele>
        <time>2021-05-18T18:23:19.055Z</time>
      </trkpt>
      <trkpt lat="43.45544" lon="6.20687">
        <ele>177.00853</ele>
        <time>2021-05-18T18:23:33.128Z</time>
      </trkpt>
      <trkpt lat="43.45507" lon="6.20726">
        <ele>175.355874</ele>
        <time>2021-05-18T18:23:43.988Z</time>
      </trkpt>
      <trkpt lat="43.45492" lon="6.20752">
        <ele>174.483872</ele>
        <time>2021-05-18T18:23:49.735Z</time>
      </trkpt>
      <trkpt lat="43.4544" lon="6.20791">
        <ele>172.33403</ele>
        <time>2021-05-18T18:24:03.841Z</time>
      </trkpt>
      <trkpt lat="43.45423" lon="6.20806">
        <ele>171.61195</ele>
        <time>2021-05-18T18:24:08.772Z</time>
      </trkpt>
      <trkpt lat="43.454" lon="6.20807">
        <ele>170.780156</ele>
        <time>2021-05-18T18:24:14.385Z</time>
      </trkpt>
      <trkpt lat="43.45276" lon="6.20672">
        <ele>168.652982</ele>
        <time>2021-05-18T18:24:57.087Z</time>
      </trkpt>
      <trkpt lat="43.45249" lon="6.20601">
        <ele>168.387727</ele>
        <time>2021-05-18T18:25:14.606Z</time>
      </trkpt>
      <trkpt lat="43.4524" lon="6.2059">
        <ele>168.427091</ele>
        <time>2021-05-18T18:25:18.188Z</time>
      </trkpt>
      <trkpt lat="43.45215" lon="6.20556">
        <ele>168.544742</ele>
        <time>2021-05-18T18:25:28.898Z</time>
      </trkpt>
      <trkpt lat="43.45202" lon="6.2055">
        <ele>168.589419</ele>
        <time>2021-05-18T18:25:32.997Z</time>
      </trkpt>
      <trkpt lat="43.4514" lon="6.20442">
        <ele>169.0175</ele>
        <time>2021-05-18T18:26:05.154Z</time>
      </trkpt>
      <trkpt lat="43.45122" lon="6.20404">
        <ele>169.424768</ele>
        <time>2021-05-18T18:26:15.897Z</time>
      </trkpt>
      <trkpt lat="43.45114" lon="6.20355">
        <ele>169.8841</ele>
        <time>2021-05-18T18:26:28.606Z</time>
      </trkpt>
      <trkpt lat="43.45122" lon="6.20309">
        <ele>170.317746</ele>
        <time>2021-05-18T18:26:40.969Z</time>
      </trkpt>
      <trkpt lat="43.45136" lon="6.20269">
        <ele>170.723961</ele>
        <time>2021-05-18T18:26:52.799Z</time>
      </trkpt>
      <trkpt lat="43.45146" lon="6.20215">
        <ele>171.186296</ele>
        <time>2021-05-18T18:27:07.496Z</time>
      </trkpt>
      <trkpt lat="43.45157" lon="6.20057">
        <ele>171.841691</ele>
        <time>2021-05-18T18:27:46.705Z</time>
      </trkpt>
      <trkpt lat="43.45156" lon="6.19967">
        <ele>172.068691</ele>
        <time>2021-05-18T18:28:05.520Z</time>
      </trkpt>
      <trkpt lat="43.45141" lon="6.19899">
        <ele>171.321125</ele>
        <time>2021-05-18T18:28:19.596Z</time>
      </trkpt>
      <trkpt lat="43.45138" lon="6.1982">
        <ele>170.496785</ele>
        <time>2021-05-18T18:28:34.755Z</time>
      </trkpt>
      <trkpt lat="43.45124" lon="6.1978">
        <ele>170.032518</ele>
        <time>2021-05-18T18:28:43.196Z</time>
      </trkpt>
      <trkpt lat="43.45114" lon="6.1975">
        <ele>169.682928</ele>
        <time>2021-05-18T18:28:49.607Z</time>
      </trkpt>
      <trkpt lat="43.45097" lon="6.19726">
        <ele>169.566197</ele>
        <time>2021-05-18T18:28:56.020Z</time>
      </trkpt>
      <trkpt lat="43.45032" lon="6.19685">
        <ele>169.496126</ele>
        <time>2021-05-18T18:29:15.517Z</time>
      </trkpt>
      <trkpt lat="43.44923" lon="6.19582">
        <ele>170.902452</ele>
        <time>2021-05-18T18:29:59.912Z</time>
      </trkpt>
      <trkpt lat="43.44914" lon="6.19566">
        <ele>171.44561</ele>
        <time>2021-05-18T18:30:05.326Z</time>
      </trkpt>
      <trkpt lat="43.44892" lon="6.19526">
        <ele>172.817665</ele>
        <time>2021-05-18T18:30:20.779Z</time>
      </trkpt>
      <trkpt lat="43.44884" lon="6.19511">
        <ele>173.323742</ele>
        <time>2021-05-18T18:30:26.474Z</time>
      </trkpt>
      <trkpt lat="43.44838" lon="6.1938">
        <ele>177.36967</ele>
        <time>2021-05-18T18:31:24.289Z</time>
      </trkpt>
      <trkpt lat="43.44823" lon="6.19363">
        <ele>178.17632</ele>
        <time>2021-05-18T18:31:33.998Z</time>
      </trkpt>
      <trkpt lat="43.44811" lon="6.19357">
        <ele>178.675196</ele>
        <time>2021-05-18T18:31:40.222Z</time>
      </trkpt>
      <trkpt lat="43.44801" lon="6.19356">
        <ele>179.103049</ele>
        <time>2021-05-18T18:31:44.641Z</time>
      </trkpt>
      <trkpt lat="43.44757" lon="6.19365">
        <ele>180.962221</ele>
        <time>2021-05-18T18:31:59.700Z</time>
      </trkpt>
      <trkpt lat="43.4473" lon="6.19372">
        <ele>182.074427</ele>
        <time>2021-05-18T18:32:08.470Z</time>
      </trkpt>
      <trkpt lat="43.44722" lon="6.19384">
        <ele>182.584457</ele>
        <time>2021-05-18T18:32:11.755Z</time>
      </trkpt>
      <trkpt lat="43.44716" lon="6.19417">
        <ele>183.53601</ele>
        <time>2021-05-18T18:32:19.613Z</time>
      </trkpt>
      <trkpt lat="43.44715" lon="6.19431">
        <ele>183.511432</ele>
        <time>2021-05-18T18:32:21.867Z</time>
      </trkpt>
      <trkpt lat="43.44703" lon="6.19479">
        <ele>183.42285</ele>
        <time>2021-05-18T18:32:30.835Z</time>
      </trkpt>
      <trkpt lat="43.44625" lon="6.19547">
        <ele>183.19999</ele>
        <time>2021-05-18T18:32:46.633Z</time>
      </trkpt>
      <trkpt lat="43.44561" lon="6.19614">
        <ele>182.428225</ele>
        <time>2021-05-18T18:32:58.786Z</time>
      </trkpt>
      <trkpt lat="43.44546" lon="6.19622">
        <ele>182.154717</ele>
        <time>2021-05-18T18:33:01.200Z</time>
      </trkpt>
      <trkpt lat="43.44531" lon="6.1962">
        <ele>181.908385</ele>
        <time>2021-05-18T18:33:03.610Z</time>
      </trkpt>
      <trkpt lat="43.44513" lon="6.19611">
        <ele>181.587785</ele>
        <time>2021-05-18T18:33:06.545Z</time>
      </trkpt>
      <trkpt lat="43.44492" lon="6.19593">
        <ele>181.181708</ele>
        <time>2021-05-18T18:33:10.440Z</time>
      </trkpt>
      <trkpt lat="43.44481" lon="6.19614">
        <ele>180.870762</ele>
        <time>2021-05-18T18:33:13.159Z</time>
      </trkpt>
      <trkpt lat="43.44441" lon="6.19739">
        <ele>180.146932</ele>
        <time>2021-05-18T18:33:29.479Z</time>
      </trkpt>
      <trkpt lat="43.44432" lon="6.19775">
        <ele>180.155726</ele>
        <time>2021-05-18T18:33:33.772Z</time>
      </trkpt>
      <trkpt lat="43.44423" lon="6.19832">
        <ele>180.168849</ele>
        <time>2021-05-18T18:33:40.392Z</time>
      </trkpt>
      <trkpt lat="43.44421" lon="6.19865">
        <ele>180.176446</ele>
        <time>2021-05-18T18:33:45.703Z</time>
      </trkpt>
      <trkpt lat="43.44427" lon="6.19899">
        <ele>180.184306</ele>
        <time>2021-05-18T18:33:51.130Z</time>
      </trkpt>
      <trkpt lat="43.44432" lon="6.19909">
        <ele>180.291598</ele>
        <time>2021-05-18T18:33:54.993Z</time>
      </trkpt>
      <trkpt lat="43.4443" lon="6.19924">
        <ele>180.665284</ele>
        <time>2021-05-18T18:33:58.073Z</time>
      </trkpt>
      <trkpt lat="43.44419" lon="6.19956">
        <ele>181.531367</ele>
        <time>2021-05-18T18:34:10.688Z</time>
      </trkpt>
      <trkpt lat="43.44416" lon="6.1996">
        <ele>181.699761</ele>
        <time>2021-05-18T18:34:12.052Z</time>
      </trkpt>
      <trkpt lat="43.44416" lon="6.19964">
        <ele>181.79941</ele>
        <time>2021-05-18T18:34:13.054Z</time>
      </trkpt>
      <trkpt lat="43.44422" lon="6.19964">
        <ele>181.99489</ele>
        <time>2021-05-18T18:34:15.473Z</time>
      </trkpt>
      <trkpt lat="43.44407" lon="6.19987">
        <ele>182.744352</ele>
        <time>2021-05-18T18:34:27.737Z</time>
      </trkpt>
      <trkpt lat="43.44397" lon="6.19999">
        <ele>183.221907</ele>
        <time>2021-05-18T18:34:32.609Z</time>
      </trkpt>
      <trkpt lat="43.44384" lon="6.20063">
        <ele>184.870816</ele>
        <time>2021-05-18T18:34:53.843Z</time>
      </trkpt>
      <trkpt lat="43.44381" lon="6.20076">
        <ele>185.208941</ele>
        <time>2021-05-18T18:34:59.785Z</time>
      </trkpt>
      <trkpt lat="43.44367" lon="6.20148">
        <ele>186.874721</ele>
        <time>2021-05-18T18:35:22.903Z</time>
      </trkpt>
      <trkpt lat="43.4436" lon="6.20253">
        <ele>188.781442</ele>
        <time>2021-05-18T18:35:56.545Z</time>
      </trkpt>
      <trkpt lat="43.44353" lon="6.20359">
        <ele>190.728431</ele>
        <time>2021-05-18T18:36:24.041Z</time>
      </trkpt>
      <trkpt lat="43.44381" lon="6.205">
        <ele>191.729868</ele>
        <time>2021-05-18T18:36:58.189Z</time>
      </trkpt>
      <trkpt lat="43.44378" lon="6.20548">
        <ele>192.026471</ele>
        <time>2021-05-18T18:37:10.112Z</time>
      </trkpt>
      <trkpt lat="43.4437" lon="6.20582">
        <ele>192.255772</ele>
        <time>2021-05-18T18:37:18.880Z</time>
      </trkpt>
      <trkpt lat="43.44355" lon="6.20612">
        <ele>192.441291</ele>
        <time>2021-05-18T18:37:27.437Z</time>
      </trkpt>
      <trkpt lat="43.44346" lon="6.20644">
        <ele>192.534151</ele>
        <time>2021-05-18T18:37:35.990Z</time>
      </trkpt>
      <trkpt lat="43.44338" lon="6.20682">
        <ele>192.639675</ele>
        <time>2021-05-18T18:37:45.526Z</time>
      </trkpt>
      <trkpt lat="43.4433" lon="6.20701">
        <ele>192.69773</ele>
        <time>2021-05-18T18:37:50.436Z</time>
      </trkpt>
      <trkpt lat="43.44333" lon="6.20737">
        <ele>192.793585</ele>
        <time>2021-05-18T18:37:59.187Z</time>
      </trkpt>
      <trkpt lat="43.44312" lon="6.20783">
        <ele>192.937206</ele>
        <time>2021-05-18T18:38:11.507Z</time>
      </trkpt>
      <trkpt lat="43.44322" lon="6.20802">
        <ele>192.999731</ele>
        <time>2021-05-18T18:38:16.532Z</time>
      </trkpt>
      <trkpt lat="43.44353" lon="6.2083">
        <ele>192.879124</ele>
        <time>2021-05-18T18:38:27.026Z</time>
      </trkpt>
      <trkpt lat="43.44412" lon="6.20861">
        <ele>192.153842</ele>
        <time>2021-05-18T18:38:43.569Z</time>
      </trkpt>
      <trkpt lat="43.44424" lon="6.20872">
        <ele>191.987151</ele>
        <time>2021-05-18T18:38:47.421Z</time>
      </trkpt>
      <trkpt lat="43.44403" lon="6.20925">
        <ele>191.493614</ele>
        <time>2021-05-18T18:38:59.064Z</time>
      </trkpt>
      <trkpt lat="43.44385" lon="6.20951">
        <ele>191.192279</ele>
        <time>2021-05-18T18:39:06.366Z</time>
      </trkpt>
      <trkpt lat="43.44372" lon="6.20988">
        <ele>191.113189</ele>
        <time>2021-05-18T18:39:14.714Z</time>
      </trkpt>
      <trkpt lat="43.44374" lon="6.21056">
        <ele>191.483912</ele>
        <time>2021-05-18T18:39:28.832Z</time>
      </trkpt>
      <trkpt lat="43.44398" lon="6.21165">
        <ele>192.098713</ele>
        <time>2021-05-18T18:39:57.147Z</time>
      </trkpt>
      <trkpt lat="43.44399" lon="6.21187">
        <ele>192.219859</ele>
        <time>2021-05-18T18:40:03.672Z</time>
      </trkpt>
      <trkpt lat="43.4438" lon="6.21257">
        <ele>193.350506</ele>
        <time>2021-05-18T18:40:24.598Z</time>
      </trkpt>
      <trkpt lat="43.44379" lon="6.21271">
        <ele>193.633891</ele>
        <time>2021-05-18T18:40:28.826Z</time>
      </trkpt>
      <trkpt lat="43.44369" lon="6.21297">
        <ele>194.205422</ele>
        <time>2021-05-18T18:40:36.823Z</time>
      </trkpt>
      <trkpt lat="43.44361" lon="6.21321">
        <ele>194.738951</ele>
        <time>2021-05-18T18:40:44.769Z</time>
      </trkpt>
      <trkpt lat="43.44337" lon="6.21452">
        <ele>197.519936</ele>
        <time>2021-05-18T18:41:25.158Z</time>
      </trkpt>
      <trkpt lat="43.44344" lon="6.215">
        <ele>199.075393</ele>
        <time>2021-05-18T18:41:42.225Z</time>
      </trkpt>
      <trkpt lat="43.44354" lon="6.21532">
        <ele>200.187103</ele>
        <time>2021-05-18T18:41:54.743Z</time>
      </trkpt>
      <trkpt lat="43.44375" lon="6.2154">
        <ele>201.115319</ele>
        <time>2021-05-18T18:42:02.784Z</time>
      </trkpt>
      <trkpt lat="43.44365" lon="6.21555">
        <ele>201.724192</ele>
        <time>2021-05-18T18:42:11.015Z</time>
      </trkpt>
      <trkpt lat="43.44355" lon="6.21575">
        <ele>202.510604</ele>
        <time>2021-05-18T18:42:18.328Z</time>
      </trkpt>
      <trkpt lat="43.44357" lon="6.21595">
        <ele>203.122718</ele>
        <time>2021-05-18T18:42:26.033Z</time>
      </trkpt>
      <trkpt lat="43.44306" lon="6.21745">
        <ele>207.246928</ele>
        <time>2021-05-18T18:43:26.213Z</time>
      </trkpt>
      <trkpt lat="43.44281" lon="6.21856">
        <ele>209.646957</ele>
        <time>2021-05-18T18:43:59.235Z</time>
      </trkpt>
      <trkpt lat="43.44281" lon="6.2186">
        <ele>209.737774</ele>
        <time>2021-05-18T18:44:01.823Z</time>
      </trkpt>
      <trkpt lat="43.44291" lon="6.21864">
        <ele>210.029623</ele>
        <time>2021-05-18T18:44:04.215Z</time>
      </trkpt>
      <trkpt lat="43.44302" lon="6.21872">
        <ele>210.109622</ele>
        <time>2021-05-18T18:44:08.004Z</time>
      </trkpt>
      <trkpt lat="43.44338" lon="6.21941">
        <ele>208.248805</ele>
        <time>2021-05-18T18:44:24.455Z</time>
      </trkpt>
      <trkpt lat="43.44335" lon="6.22003">
        <ele>206.883264</ele>
        <time>2021-05-18T18:44:35.607Z</time>
      </trkpt>
      <trkpt lat="43.44338" lon="6.22075">
        <ele>205.297154</ele>
        <time>2021-05-18T18:44:47.617Z</time>
      </trkpt>
      <trkpt lat="43.4433" lon="6.22131">
        <ele>203.967448</ele>
        <time>2021-05-18T18:44:56.963Z</time>
      </trkpt>
      <trkpt lat="43.44327" lon="6.22147">
        <ele>203.569497</ele>
        <time>2021-05-18T18:44:59.608Z</time>
      </trkpt>
      <trkpt lat="43.44331" lon="6.22175">
        <ele>202.894428</ele>
        <time>2021-05-18T18:45:04.554Z</time>
      </trkpt>
      <trkpt lat="43.44327" lon="6.22224">
        <ele>201.69866</ele>
        <time>2021-05-18T18:45:13.210Z</time>
      </trkpt>
      <trkpt lat="43.44326" lon="6.22243">
        <ele>201.246264</ele>
        <time>2021-05-18T18:45:16.322Z</time>
      </trkpt>
      <trkpt lat="43.44369" lon="6.22238">
        <ele>199.816321</ele>
        <time>2021-05-18T18:45:22.178Z</time>
      </trkpt>
      <trkpt lat="43.44382" lon="6.22237">
        <ele>199.366873</ele>
        <time>2021-05-18T18:45:24.358Z</time>
      </trkpt>
      <trkpt lat="43.44389" lon="6.22243">
        <ele>199.113267</ele>
        <time>2021-05-18T18:45:26.109Z</time>
      </trkpt>
      <trkpt lat="43.44394" lon="6.22251">
        <ele>198.867839</ele>
        <time>2021-05-18T18:45:27.373Z</time>
      </trkpt>
      <trkpt lat="43.444" lon="6.22269">
        <ele>199.704623</ele>
        <time>2021-05-18T18:45:30.264Z</time>
      </trkpt>
      <trkpt lat="43.44405" lon="6.22312">
        <ele>201.473923</ele>
        <time>2021-05-18T18:45:39.133Z</time>
      </trkpt>
      <trkpt lat="43.44387" lon="6.22278">
        <ele>203.188332</ele>
        <time>2021-05-18T18:45:52.363Z</time>
      </trkpt>
      <trkpt lat="43.44369" lon="6.22264">
        <ele>204.397432</ele>
        <time>2021-05-18T18:46:03.151Z</time>
      </trkpt>
      <trkpt lat="43.44363" lon="6.22283">
        <ele>205.235072</ele>
        <time>2021-05-18T18:46:12.226Z</time>
      </trkpt>
      <trkpt lat="43.44358" lon="6.22298">
        <ele>205.895207</ele>
        <time>2021-05-18T18:46:18.311Z</time>
      </trkpt>
      <trkpt lat="43.44377" lon="6.22326">
        <ele>207.480927</ele>
        <time>2021-05-18T18:46:38.460Z</time>
      </trkpt>
      <trkpt lat="43.44389" lon="6.22398">
        <ele>212.156448</ele>
        <time>2021-05-18T18:47:16.348Z</time>
      </trkpt>
      <trkpt lat="43.44388" lon="6.22456">
        <ele>217.328386</ele>
        <time>2021-05-18T18:47:50.224Z</time>
      </trkpt>
      <trkpt lat="43.44425" lon="6.22536">
        <ele>225.627748</ele>
        <time>2021-05-18T18:48:47.905Z</time>
      </trkpt>
      <trkpt lat="43.44452" lon="6.22576">
        <ele>230.529724</ele>
        <time>2021-05-18T18:49:19.305Z</time>
      </trkpt>
      <trkpt lat="43.44478" lon="6.22628">
        <ele>235.073125</ele>
        <time>2021-05-18T18:49:54.705Z</time>
      </trkpt>
      <trkpt lat="43.4448" lon="6.22663">
        <ele>237.540125</ele>
        <time>2021-05-18T18:50:13.344Z</time>
      </trkpt>
      <trkpt lat="43.44449" lon="6.22795">
        <ele>247.28342</ele>
        <time>2021-05-18T18:51:20.878Z</time>
      </trkpt>
      <trkpt lat="43.44449" lon="6.22818">
        <ele>248.654268</ele>
        <time>2021-05-18T18:51:30.493Z</time>
      </trkpt>
      <trkpt lat="43.44449" lon="6.22818">
        <ele>248.654268</ele>
        <time>2021-05-18T18:51:30.581Z</time>
      </trkpt>
      <trkpt lat="43.44538" lon="6.23094">
        <ele>258.008408</ele>
        <time>2021-05-18T18:53:19.554Z</time>
      </trkpt>
      <trkpt lat="43.44541" lon="6.2318">
        <ele>257.991715</ele>
        <time>2021-05-18T18:53:38.179Z</time>
      </trkpt>
      <trkpt lat="43.44548" lon="6.23235">
        <ele>257.981045</ele>
        <time>2021-05-18T18:53:48.821Z</time>
      </trkpt>
      <trkpt lat="43.44586" lon="6.2327">
        <ele>257.094929</ele>
        <time>2021-05-18T18:54:00.158Z</time>
      </trkpt>
      <trkpt lat="43.44642" lon="6.23374">
        <ele>250.998015</ele>
        <time>2021-05-18T18:54:20.900Z</time>
      </trkpt>
      <trkpt lat="43.44676" lon="6.23456">
        <ele>246.578461</ele>
        <time>2021-05-18T18:54:35.234Z</time>
      </trkpt>
      <trkpt lat="43.44677" lon="6.23459">
        <ele>246.406117</ele>
        <time>2021-05-18T18:54:35.731Z</time>
      </trkpt>
      <trkpt lat="43.44725" lon="6.23461">
        <ele>244.90867</ele>
        <time>2021-05-18T18:54:46.697Z</time>
      </trkpt>
      <trkpt lat="43.44783" lon="6.23467">
        <ele>243.110997</ele>
        <time>2021-05-18T18:55:01.061Z</time>
      </trkpt>
      <trkpt lat="43.44746" lon="6.23596">
        <ele>241.247856</ele>
        <time>2021-05-18T18:55:17.150Z</time>
      </trkpt>
      <trkpt lat="43.44739" lon="6.23664">
        <ele>242.150832</ele>
        <time>2021-05-18T18:55:30.529Z</time>
      </trkpt>
      <trkpt lat="43.44794" lon="6.23946">
        <ele>246.303297</ele>
        <time>2021-05-18T18:56:30.415Z</time>
      </trkpt>
      <trkpt lat="43.44814" lon="6.24048">
        <ele>247.928433</ele>
        <time>2021-05-18T18:56:48.744Z</time>
      </trkpt>
      <trkpt lat="43.44833" lon="6.24101">
        <ele>248.687805</ele>
        <time>2021-05-18T18:56:58.017Z</time>
      </trkpt>
      <trkpt lat="43.44847" lon="6.24123">
        <ele>249.058281</ele>
        <time>2021-05-18T18:57:03.678Z</time>
      </trkpt>
      <trkpt lat="43.44882" lon="6.24158">
        <ele>249.826743</ele>
        <time>2021-05-18T18:57:14.129Z</time>
      </trkpt>
      <trkpt lat="43.44886" lon="6.24159">
        <ele>249.894228</ele>
        <time>2021-05-18T18:57:14.614Z</time>
      </trkpt>
      <trkpt lat="43.44897" lon="6.24179">
        <ele>250.215805</ele>
        <time>2021-05-18T18:57:22.605Z</time>
      </trkpt>
      <trkpt lat="43.44898" lon="6.24204">
        <ele>250.536874</ele>
        <time>2021-05-18T18:57:28.746Z</time>
      </trkpt>
      <trkpt lat="43.4495" lon="6.24345">
        <ele>254.03747</ele>
        <time>2021-05-18T18:58:14.771Z</time>
      </trkpt>
      <trkpt lat="43.44953" lon="6.24353">
        <ele>254.260519</ele>
        <time>2021-05-18T18:58:18.028Z</time>
      </trkpt>
      <trkpt lat="43.44958" lon="6.24367">
        <ele>254.659493</ele>
        <time>2021-05-18T18:58:24.179Z</time>
      </trkpt>
      <trkpt lat="43.4497" lon="6.24399">
        <ele>255.571632</ele>
        <time>2021-05-18T18:58:35.664Z</time>
      </trkpt>
      <trkpt lat="43.44976" lon="6.24497">
        <ele>258.345227</ele>
        <time>2021-05-18T18:59:08.970Z</time>
      </trkpt>
      <trkpt lat="43.44982" lon="6.24521">
        <ele>259.266726</ele>
        <time>2021-05-18T18:59:18.411Z</time>
      </trkpt>
      <trkpt lat="43.44988" lon="6.24541">
        <ele>260.01618</ele>
        <time>2021-05-18T18:59:25.342Z</time>
      </trkpt>
      <trkpt lat="43.45017" lon="6.24556">
        <ele>261.518084</ele>
        <time>2021-05-18T18:59:40.170Z</time>
      </trkpt>
      <trkpt lat="43.45044" lon="6.24581">
        <ele>263.077971</ele>
        <time>2021-05-18T18:59:55.300Z</time>
      </trkpt>
      <trkpt lat="43.45051" lon="6.24614">
        <ele>264.31334</ele>
        <time>2021-05-18T19:00:08.645Z</time>
      </trkpt>
      <trkpt lat="43.45047" lon="6.24638">
        <ele>265.176639</ele>
        <time>2021-05-18T19:00:17.940Z</time>
      </trkpt>
      <trkpt lat="43.45083" lon="6.24706">
        <ele>268.858519</ele>
        <time>2021-05-18T19:00:50.236Z</time>
      </trkpt>
      <trkpt lat="43.45094" lon="6.24748">
        <ele>271.019435</ele>
        <time>2021-05-18T19:01:07.993Z</time>
      </trkpt>
      <trkpt lat="43.45111" lon="6.2479">
        <ele>273.291593</ele>
        <time>2021-05-18T19:01:27.419Z</time>
      </trkpt>
      <trkpt lat="43.45132" lon="6.24857">
        <ele>276.743983</ele>
        <time>2021-05-18T19:01:58.100Z</time>
      </trkpt>
      <trkpt lat="43.4514" lon="6.24912">
        <ele>279.510281</ele>
        <time>2021-05-18T19:02:22.813Z</time>
      </trkpt>
      <trkpt lat="43.45135" lon="6.24943">
        <ele>281.136336</ele>
        <time>2021-05-18T19:02:37.171Z</time>
      </trkpt>
      <trkpt lat="43.45167" lon="6.25122">
        <ele>290.460381</ele>
        <time>2021-05-18T19:03:53.466Z</time>
      </trkpt>
      <trkpt lat="43.45163" lon="6.25197">
        <ele>294.072339</ele>
        <time>2021-05-18T19:04:22.833Z</time>
      </trkpt>
      <trkpt lat="43.45145" lon="6.25242">
        <ele>296.564897</ele>
        <time>2021-05-18T19:04:44.121Z</time>
      </trkpt>
      <trkpt lat="43.45147" lon="6.253">
        <ele>299.366869</ele>
        <time>2021-05-18T19:05:08.871Z</time>
      </trkpt>
      <trkpt lat="43.4514" lon="6.25323">
        <ele>300.573918</ele>
        <time>2021-05-18T19:05:19.126Z</time>
      </trkpt>
      <trkpt lat="43.45147" lon="6.25381">
        <ele>303.084468</ele>
        <time>2021-05-18T19:05:43.729Z</time>
      </trkpt>
      <trkpt lat="43.45157" lon="6.25408">
        <ele>304.101068</ele>
        <time>2021-05-18T19:05:54.838Z</time>
      </trkpt>
      <trkpt lat="43.45165" lon="6.25426">
        <ele>304.827509</ele>
        <time>2021-05-18T19:06:03.878Z</time>
      </trkpt>
      <trkpt lat="43.45163" lon="6.25465">
        <ele>306.170253</ele>
        <time>2021-05-18T19:06:18.374Z</time>
      </trkpt>
      <trkpt lat="43.45147" lon="6.25482">
        <ele>307.125008</ele>
        <time>2021-05-18T19:06:29.010Z</time>
      </trkpt>
      <trkpt lat="43.45049" lon="6.25767">
        <ele>314.140653</ele>
        <time>2021-05-18T19:08:02.610Z</time>
      </trkpt>
      <trkpt lat="43.45034" lon="6.25846">
        <ele>315.057709</ele>
        <time>2021-05-18T19:08:20.631Z</time>
      </trkpt>
      <trkpt lat="43.44987" lon="6.25993">
        <ele>316.169098</ele>
        <time>2021-05-18T19:08:57.856Z</time>
      </trkpt>
      <trkpt lat="43.44997" lon="6.2605">
        <ele>316.766528</ele>
        <time>2021-05-18T19:09:13.310Z</time>
      </trkpt>
      <trkpt lat="43.44966" lon="6.26148">
        <ele>318.751733</ele>
        <time>2021-05-18T19:09:44.455Z</time>
      </trkpt>
      <trkpt lat="43.44954" lon="6.26204">
        <ele>319.82533</ele>
        <time>2021-05-18T19:10:03.066Z</time>
      </trkpt>
      <trkpt lat="43.44867" lon="6.26433">
        <ele>322.149031</ele>
        <time>2021-05-18T19:11:17.495Z</time>
      </trkpt>
      <trkpt lat="43.44849" lon="6.26522">
        <ele>320.853104</ele>
        <time>2021-05-18T19:11:33.664Z</time>
      </trkpt>
      <trkpt lat="43.44839" lon="6.26555">
        <ele>319.251574</ele>
        <time>2021-05-18T19:11:39.731Z</time>
      </trkpt>
      <trkpt lat="43.44835" lon="6.26569">
        <ele>318.56453</ele>
        <time>2021-05-18T19:11:42.120Z</time>
      </trkpt>
      <trkpt lat="43.44833" lon="6.26609">
        <ele>316.790668</ele>
        <time>2021-05-18T19:11:48.581Z</time>
      </trkpt>
      <trkpt lat="43.44826" lon="6.26644">
        <ele>315.162967</ele>
        <time>2021-05-18T19:11:54.297Z</time>
      </trkpt>
      <trkpt lat="43.44792" lon="6.26682">
        <ele>312.445971</ele>
        <time>2021-05-18T19:12:03.695Z</time>
      </trkpt>
      <trkpt lat="43.44758" lon="6.26728">
        <ele>309.773877</ele>
        <time>2021-05-18T19:12:13.762Z</time>
      </trkpt>
      <trkpt lat="43.44747" lon="6.26771">
        <ele>307.997817</ele>
        <time>2021-05-18T19:12:21.309Z</time>
      </trkpt>
      <trkpt lat="43.44726" lon="6.26805">
        <ele>306.286831</ele>
        <time>2021-05-18T19:12:28.627Z</time>
      </trkpt>
      <trkpt lat="43.44709" lon="6.26853">
        <ele>304.250007</ele>
        <time>2021-05-18T19:12:37.697Z</time>
      </trkpt>
      <trkpt lat="43.44701" lon="6.26863">
        <ele>303.659258</ele>
        <time>2021-05-18T19:12:40.328Z</time>
      </trkpt>
      <trkpt lat="43.447" lon="6.26863">
        <ele>303.558071</ele>
        <time>2021-05-18T19:12:40.696Z</time>
      </trkpt>
      <trkpt lat="43.44697" lon="6.26861">
        <ele>303.380493</ele>
        <time>2021-05-18T19:12:43.132Z</time>
      </trkpt>
      <trkpt lat="43.44686" lon="6.26839">
        <ele>302.357381</ele>
        <time>2021-05-18T19:12:47.722Z</time>
      </trkpt>
      <trkpt lat="43.4467" lon="6.26828">
        <ele>301.481932</ele>
        <time>2021-05-18T19:12:52.202Z</time>
      </trkpt>
      <trkpt lat="43.44663" lon="6.26829">
        <ele>301.179884</ele>
        <time>2021-05-18T19:12:53.866Z</time>
      </trkpt>
      <trkpt lat="43.44647" lon="6.2686">
        <ele>299.983032</ele>
        <time>2021-05-18T19:13:00.543Z</time>
      </trkpt>
      <trkpt lat="43.44571" lon="6.27074">
        <ele>292.139687</ele>
        <time>2021-05-18T19:13:40.941Z</time>
      </trkpt>
      <trkpt lat="43.44533" lon="6.27203">
        <ele>286.880521</ele>
        <time>2021-05-18T19:14:03.909Z</time>
      </trkpt>
      <trkpt lat="43.44533" lon="6.27268">
        <ele>284.51634</ele>
        <time>2021-05-18T19:14:14.791Z</time>
      </trkpt>
      <trkpt lat="43.44533" lon="6.27272">
        <ele>284.421901</ele>
        <time>2021-05-18T19:14:15.376Z</time>
      </trkpt>
      <trkpt lat="43.44528" lon="6.27302">
        <ele>283.681088</ele>
        <time>2021-05-18T19:14:20.601Z</time>
      </trkpt>
      <trkpt lat="43.44492" lon="6.27387">
        <ele>281.296481</ele>
        <time>2021-05-18T19:14:37.774Z</time>
      </trkpt>
      <trkpt lat="43.44436" lon="6.27457">
        <ele>278.773358</ele>
        <time>2021-05-18T19:14:56.922Z</time>
      </trkpt>
      <trkpt lat="43.44382" lon="6.27566">
        <ele>279.098129</ele>
        <time>2021-05-18T19:15:23.585Z</time>
      </trkpt>
      <trkpt lat="43.44373" lon="6.27626">
        <ele>279.320236</ele>
        <time>2021-05-18T19:15:38.659Z</time>
      </trkpt>
      <trkpt lat="43.44354" lon="6.27681">
        <ele>279.565854</ele>
        <time>2021-05-18T19:15:56.003Z</time>
      </trkpt>
      <trkpt lat="43.44341" lon="6.27685">
        <ele>280.214958</ele>
        <time>2021-05-18T19:16:01.496Z</time>
      </trkpt>
      <trkpt lat="43.44326" lon="6.27681">
        <ele>281.00386</ele>
        <time>2021-05-18T19:16:08.453Z</time>
      </trkpt>
      <trkpt lat="43.44306" lon="6.2763">
        <ele>283.185066</ele>
        <time>2021-05-18T19:16:29.764Z</time>
      </trkpt>
      <trkpt lat="43.44298" lon="6.27626">
        <ele>283.627775</ele>
        <time>2021-05-18T19:16:34.333Z</time>
      </trkpt>
      <trkpt lat="43.44287" lon="6.27629">
        <ele>284.188642</ele>
        <time>2021-05-18T19:16:40.187Z</time>
      </trkpt>
      <trkpt lat="43.44259" lon="6.27659">
        <ele>286.005475</ele>
        <time>2021-05-18T19:16:59.684Z</time>
      </trkpt>
      <trkpt lat="43.44212" lon="6.27692">
        <ele>288.706356</ele>
        <time>2021-05-18T19:17:28.890Z</time>
      </trkpt>
      <trkpt lat="43.44193" lon="6.27722">
        <ele>289.587936</ele>
        <time>2021-05-18T19:17:44.189Z</time>
      </trkpt>
      <trkpt lat="43.44185" lon="6.27783">
        <ele>290.915768</ele>
        <time>2021-05-18T19:18:05.748Z</time>
      </trkpt>
      <trkpt lat="43.44186" lon="6.27835">
        <ele>292.051418</ele>
        <time>2021-05-18T19:18:22.176Z</time>
      </trkpt>
      <trkpt lat="43.44182" lon="6.27847">
        <ele>292.322977</ele>
        <time>2021-05-18T19:18:25.964Z</time>
      </trkpt>
      <trkpt lat="43.44156" lon="6.27879">
        <ele>293.354037</ele>
        <time>2021-05-18T19:18:38.887Z</time>
      </trkpt>
      <trkpt lat="43.44143" lon="6.27943">
        <ele>293.218742</ele>
        <time>2021-05-18T19:18:52.597Z</time>
      </trkpt>
      <trkpt lat="43.4415" lon="6.27973">
        <ele>292.416277</ele>
        <time>2021-05-18T19:18:58.338Z</time>
      </trkpt>
      <trkpt lat="43.44166" lon="6.28">
        <ele>291.509658</ele>
        <time>2021-05-18T19:19:04.437Z</time>
      </trkpt>
      <trkpt lat="43.44167" lon="6.28031">
        <ele>290.708458</ele>
        <time>2021-05-18T19:19:09.786Z</time>
      </trkpt>
      <trkpt lat="43.44174" lon="6.28066">
        <ele>289.764085</ele>
        <time>2021-05-18T19:19:15.996Z</time>
      </trkpt>
      <trkpt lat="43.44176" lon="6.28103">
        <ele>288.802012</ele>
        <time>2021-05-18T19:19:22.170Z</time>
      </trkpt>
      <trkpt lat="43.44182" lon="6.28173">
        <ele>286.647217</ele>
        <time>2021-05-18T19:19:33.921Z</time>
      </trkpt>
      <trkpt lat="43.44189" lon="6.2823">
        <ele>284.449156</ele>
        <time>2021-05-18T19:19:43.485Z</time>
      </trkpt>
      <trkpt lat="43.44223" lon="6.28308">
        <ele>281.0072</ele>
        <time>2021-05-18T19:19:58.379Z</time>
      </trkpt>
      <trkpt lat="43.44226" lon="6.28348">
        <ele>279.485672</ele>
        <time>2021-05-18T19:20:05.147Z</time>
      </trkpt>
      <trkpt lat="43.44214" lon="6.28392">
        <ele>277.828117</ele>
        <time>2021-05-18T19:20:13.220Z</time>
      </trkpt>
      <trkpt lat="43.44186" lon="6.28432">
        <ele>276.171806</ele>
        <time>2021-05-18T19:20:22.787Z</time>
      </trkpt>
      <trkpt lat="43.44161" lon="6.28502">
        <ele>273.796597</ele>
        <time>2021-05-18T19:20:36.535Z</time>
      </trkpt>
      <trkpt lat="43.44176" lon="6.28635">
        <ele>269.547545</ele>
        <time>2021-05-18T19:20:59.724Z</time>
      </trkpt>
      <trkpt lat="43.44237" lon="6.2872">
        <ele>265.352984</ele>
        <time>2021-05-18T19:21:19.571Z</time>
      </trkpt>
      <trkpt lat="43.44242" lon="6.28741">
        <ele>264.563432</ele>
        <time>2021-05-18T19:21:23.293Z</time>
      </trkpt>
      <trkpt lat="43.44222" lon="6.28788">
        <ele>262.660814</ele>
        <time>2021-05-18T19:21:32.298Z</time>
      </trkpt>
      <trkpt lat="43.44207" lon="6.28881">
        <ele>261.350118</ele>
        <time>2021-05-18T19:21:48.623Z</time>
      </trkpt>
      <trkpt lat="43.44277" lon="6.28972">
        <ele>260.131308</ele>
        <time>2021-05-18T19:22:14.802Z</time>
      </trkpt>
      <trkpt lat="43.44283" lon="6.29018">
        <ele>260.314527</ele>
        <time>2021-05-18T19:22:28.236Z</time>
      </trkpt>
      <trkpt lat="43.4427" lon="6.29052">
        <ele>262.388054</ele>
        <time>2021-05-18T19:22:41.810Z</time>
      </trkpt>
      <trkpt lat="43.44219" lon="6.2915">
        <ele>268.740696</ele>
        <time>2021-05-18T19:23:31.997Z</time>
      </trkpt>
      <trkpt lat="43.44192" lon="6.2919">
        <ele>271.621049</ele>
        <time>2021-05-18T19:23:58.302Z</time>
      </trkpt>
      <trkpt lat="43.4414" lon="6.29228">
        <ele>278.489427</ele>
        <time>2021-05-18T19:24:46.326Z</time>
      </trkpt>
      <trkpt lat="43.44076" lon="6.29296">
        <ele>289.569874</ele>
        <time>2021-05-18T19:25:54.150Z</time>
      </trkpt>
      <trkpt lat="43.44069" lon="6.29316">
        <ele>291.741394</ele>
        <time>2021-05-18T19:26:08.222Z</time>
      </trkpt>
      <trkpt lat="43.44059" lon="6.29319">
        <ele>293.138605</ele>
        <time>2021-05-18T19:26:18.323Z</time>
      </trkpt>
      <trkpt lat="43.43994" lon="6.29266">
        <ele>304.664705</ele>
        <time>2021-05-18T19:27:26.475Z</time>
      </trkpt>
      <trkpt lat="43.439" lon="6.29241">
        <ele>320.50815</ele>
        <time>2021-05-18T19:29:00.966Z</time>
      </trkpt>
      <trkpt lat="43.43844" lon="6.29255">
        <ele>329.926653</ele>
        <time>2021-05-18T19:29:56.511Z</time>
      </trkpt>
      <trkpt lat="43.43774" lon="6.29311">
        <ele>343.120891</ele>
        <time>2021-05-18T19:31:15.877Z</time>
      </trkpt>
      <trkpt lat="43.43716" lon="6.29368">
        <ele>354.688319</ele>
        <time>2021-05-18T19:32:22.957Z</time>
      </trkpt>
      <trkpt lat="43.43692" lon="6.29374">
        <ele>358.092345</ele>
        <time>2021-05-18T19:32:44.722Z</time>
      </trkpt>
      <trkpt lat="43.43681" lon="6.29383">
        <ele>359.748015</ele>
        <time>2021-05-18T19:32:56.678Z</time>
      </trkpt>
      <trkpt lat="43.43629" lon="6.29465">
        <ele>369.531349</ele>
        <time>2021-05-18T19:34:02.123Z</time>
      </trkpt>
      <trkpt lat="43.43586" lon="6.29569">
        <ele>379.817897</ele>
        <time>2021-05-18T19:35:04.385Z</time>
      </trkpt>
      <trkpt lat="43.43587" lon="6.29611">
        <ele>382.371585</ele>
        <time>2021-05-18T19:35:24.563Z</time>
      </trkpt>
      <trkpt lat="43.43565" lon="6.29665">
        <ele>386.159993</ele>
        <time>2021-05-18T19:35:52.960Z</time>
      </trkpt>
      <trkpt lat="43.43519" lon="6.29736">
        <ele>391.914186</ele>
        <time>2021-05-18T19:36:34.120Z</time>
      </trkpt>
      <trkpt lat="43.43509" lon="6.29751">
        <ele>393.189406</ele>
        <time>2021-05-18T19:36:44.678Z</time>
      </trkpt>
      <trkpt lat="43.43494" lon="6.29798">
        <ele>396.059744</ele>
        <time>2021-05-18T19:37:06.203Z</time>
      </trkpt>
      <trkpt lat="43.4348" lon="6.29809">
        <ele>397.322869</ele>
        <time>2021-05-18T19:37:14.100Z</time>
      </trkpt>
      <trkpt lat="43.43464" lon="6.2982">
        <ele>398.714675</ele>
        <time>2021-05-18T19:37:26.584Z</time>
      </trkpt>
      <trkpt lat="43.43448" lon="6.29827">
        <ele>400.019185</ele>
        <time>2021-05-18T19:37:34.781Z</time>
      </trkpt>
      <trkpt lat="43.43439" lon="6.29864">
        <ele>402.165414</ele>
        <time>2021-05-18T19:37:52.872Z</time>
      </trkpt>
      <trkpt lat="43.43449" lon="6.299">
        <ele>404.303675</ele>
        <time>2021-05-18T19:38:11.103Z</time>
      </trkpt>
      <trkpt lat="43.43414" lon="6.2994">
        <ele>407.745043</ele>
        <time>2021-05-18T19:38:38.750Z</time>
      </trkpt>
      <trkpt lat="43.43425" lon="6.29961">
        <ele>408.769912</ele>
        <time>2021-05-18T19:38:50.995Z</time>
      </trkpt>
      <trkpt lat="43.43423" lon="6.29978">
        <ele>409.423309</ele>
        <time>2021-05-18T19:38:58.585Z</time>
      </trkpt>
      <trkpt lat="43.43409" lon="6.3">
        <ele>410.53948</ele>
        <time>2021-05-18T19:39:10.442Z</time>
      </trkpt>
      <trkpt lat="43.4336" lon="6.30031">
        <ele>413.378323</ele>
        <time>2021-05-18T19:39:39.690Z</time>
      </trkpt>
      <trkpt lat="43.43332" lon="6.30062">
        <ele>415.287847</ele>
        <time>2021-05-18T19:39:56.585Z</time>
      </trkpt>
      <trkpt lat="43.43261" lon="6.30116">
        <ele>416.355074</ele>
        <time>2021-05-18T19:40:27.280Z</time>
      </trkpt>
      <trkpt lat="43.43183" lon="6.30217">
        <ele>414.684637</ele>
        <time>2021-05-18T19:40:54.856Z</time>
      </trkpt>
      <trkpt lat="43.43142" lon="6.30288">
        <ele>412.237334</ele>
        <time>2021-05-18T19:41:09.989Z</time>
      </trkpt>
      <trkpt lat="43.43102" lon="6.30316">
        <ele>409.967632</ele>
        <time>2021-05-18T19:41:20.164Z</time>
      </trkpt>
      <trkpt lat="43.43086" lon="6.30343">
        <ele>408.701163</ele>
        <time>2021-05-18T19:41:25.872Z</time>
      </trkpt>
      <trkpt lat="43.43042" lon="6.30385">
        <ele>405.988847</ele>
        <time>2021-05-18T19:41:38.157Z</time>
      </trkpt>
      <trkpt lat="43.42974" lon="6.30476">
        <ele>401.174691</ele>
        <time>2021-05-18T19:42:00.259Z</time>
      </trkpt>
      <trkpt lat="43.42953" lon="6.30487">
        <ele>400.020554</ele>
        <time>2021-05-18T19:42:05.734Z</time>
      </trkpt>
      <trkpt lat="43.42923" lon="6.30604">
        <ele>395.103825</ele>
        <time>2021-05-18T19:42:26.114Z</time>
      </trkpt>
      <trkpt lat="43.4291" lon="6.30631">
        <ele>393.218224</ele>
        <time>2021-05-18T19:42:31.477Z</time>
      </trkpt>
      <trkpt lat="43.42913" lon="6.30646">
        <ele>392.333857</ele>
        <time>2021-05-18T19:42:33.725Z</time>
      </trkpt>
      <trkpt lat="43.42912" lon="6.30683">
        <ele>390.144872</ele>
        <time>2021-05-18T19:42:39.594Z</time>
      </trkpt>
      <trkpt lat="43.42911" lon="6.3069">
        <ele>389.736918</ele>
        <time>2021-05-18T19:42:40.666Z</time>
      </trkpt>
      <trkpt lat="43.4291" lon="6.30703">
        <ele>388.983927</ele>
        <time>2021-05-18T19:42:42.479Z</time>
      </trkpt>
      <trkpt lat="43.42909" lon="6.30747">
        <ele>386.428814</ele>
        <time>2021-05-18T19:42:49.313Z</time>
      </trkpt>
      <trkpt lat="43.4292" lon="6.30827">
        <ele>381.670758</ele>
        <time>2021-05-18T19:43:02.047Z</time>
      </trkpt>
      <trkpt lat="43.4292" lon="6.30855">
        <ele>380.500262</ele>
        <time>2021-05-18T19:43:06.160Z</time>
      </trkpt>
      <trkpt lat="43.42912" lon="6.30866">
        <ele>379.873943</ele>
        <time>2021-05-18T19:43:08.744Z</time>
      </trkpt>
      <trkpt lat="43.42884" lon="6.30869">
        <ele>378.262109</ele>
        <time>2021-05-18T19:43:14.695Z</time>
      </trkpt>
      <trkpt lat="43.42809" lon="6.30911">
        <ele>373.694413</ele>
        <time>2021-05-18T19:43:33.067Z</time>
      </trkpt>
      <trkpt lat="43.42758" lon="6.30931">
        <ele>371.392934</ele>
        <time>2021-05-18T19:43:46.212Z</time>
      </trkpt>
      <trkpt lat="43.42716" lon="6.30936">
        <ele>371.299959</ele>
        <time>2021-05-18T19:43:57.951Z</time>
      </trkpt>
      <trkpt lat="43.42512" lon="6.31038">
        <ele>372.309353</ele>
        <time>2021-05-18T19:45:08.762Z</time>
      </trkpt>
      <trkpt lat="43.42425" lon="6.31128">
        <ele>373.796211</ele>
        <time>2021-05-18T19:45:50.219Z</time>
      </trkpt>
      <trkpt lat="43.42381" lon="6.31212">
        <ele>374.711418</ele>
        <time>2021-05-18T19:46:18.563Z</time>
      </trkpt>
      <trkpt lat="43.42252" lon="6.31383">
        <ele>374.410642</ele>
        <time>2021-05-18T19:47:13.517Z</time>
      </trkpt>
      <trkpt lat="43.42192" lon="6.31525">
        <ele>371.456373</ele>
        <time>2021-05-18T19:47:43.244Z</time>
      </trkpt>
      <trkpt lat="43.42085" lon="6.31663">
        <ele>363.96457</ele>
        <time>2021-05-18T19:48:16.441Z</time>
      </trkpt>
      <trkpt lat="43.42062" lon="6.31684">
        <ele>362.010013</ele>
        <time>2021-05-18T19:48:22.594Z</time>
      </trkpt>
      <trkpt lat="43.41979" lon="6.31795">
        <ele>353.937531</ele>
        <time>2021-05-18T19:48:47.777Z</time>
      </trkpt>
      <trkpt lat="43.41929" lon="6.3187">
        <ele>348.770829</ele>
        <time>2021-05-18T19:49:03.787Z</time>
      </trkpt>
      <trkpt lat="43.41858" lon="6.31948">
        <ele>342.392429</ele>
        <time>2021-05-18T19:49:23.637Z</time>
      </trkpt>
      <trkpt lat="43.41749" lon="6.32129">
        <ele>331.413417</ele>
        <time>2021-05-18T19:50:01.564Z</time>
      </trkpt>
      <trkpt lat="43.41719" lon="6.32157">
        <ele>329.165715</ele>
        <time>2021-05-18T19:50:09.696Z</time>
      </trkpt>
      <trkpt lat="43.41674" lon="6.3223">
        <ele>324.447407</ele>
        <time>2021-05-18T19:50:25.235Z</time>
      </trkpt>
      <trkpt lat="43.4159" lon="6.32337">
        <ele>316.27895</ele>
        <time>2021-05-18T19:50:50.379Z</time>
      </trkpt>
      <trkpt lat="43.41529" lon="6.32431">
        <ele>308.525193</ele>
        <time>2021-05-18T19:51:09.525Z</time>
      </trkpt>
      <trkpt lat="43.41429" lon="6.32561">
        <ele>297.710058</ele>
        <time>2021-05-18T19:51:38.108Z</time>
      </trkpt>
      <trkpt lat="43.41406" lon="6.3258">
        <ele>296.434222</ele>
        <time>2021-05-18T19:51:43.974Z</time>
      </trkpt>
      <trkpt lat="43.41366" lon="6.32629">
        <ele>293.939885</ele>
        <time>2021-05-18T19:51:56.262Z</time>
      </trkpt>
      <trkpt lat="43.41308" lon="6.32686">
        <ele>290.833389</ele>
        <time>2021-05-18T19:52:15.046Z</time>
      </trkpt>
      <trkpt lat="43.41288" lon="6.32699">
        <ele>291.502469</ele>
        <time>2021-05-18T19:52:21.686Z</time>
      </trkpt>
      <trkpt lat="43.41281" lon="6.32697">
        <ele>291.712243</ele>
        <time>2021-05-18T19:52:24.455Z</time>
      </trkpt>
      <trkpt lat="43.41261" lon="6.32796">
        <ele>293.962268</ele>
        <time>2021-05-18T19:52:54.440Z</time>
      </trkpt>
      <trkpt lat="43.41255" lon="6.32875">
        <ele>295.693726</ele>
        <time>2021-05-18T19:53:23.329Z</time>
      </trkpt>
      <trkpt lat="43.41201" lon="6.32977">
        <ele>300.389039</ele>
        <time>2021-05-18T19:54:13.378Z</time>
      </trkpt>
      <trkpt lat="43.41168" lon="6.33041">
        <ele>303.562451</ele>
        <time>2021-05-18T19:54:43.358Z</time>
      </trkpt>
      <trkpt lat="43.41124" lon="6.33111">
        <ele>306.29035</ele>
        <time>2021-05-18T19:55:18.050Z</time>
      </trkpt>
      <trkpt lat="43.41095" lon="6.33143">
        <ele>306.556386</ele>
        <time>2021-05-18T19:55:34.758Z</time>
      </trkpt>
      <trkpt lat="43.41022" lon="6.33227">
        <ele>307.233401</ele>
        <time>2021-05-18T19:56:02.716Z</time>
      </trkpt>
      <trkpt lat="43.41009" lon="6.33241">
        <ele>307.347911</ele>
        <time>2021-05-18T19:56:06.980Z</time>
      </trkpt>
      <trkpt lat="43.41018" lon="6.33258">
        <ele>307.134908</ele>
        <time>2021-05-18T19:56:10.633Z</time>
      </trkpt>
      <trkpt lat="43.40994" lon="6.33287">
        <ele>305.1971</ele>
        <time>2021-05-18T19:56:18.095Z</time>
      </trkpt>
      <trkpt lat="43.40824" lon="6.33576">
        <ele>287.354522</ele>
        <time>2021-05-18T19:57:16.957Z</time>
      </trkpt>
      <trkpt lat="43.40813" lon="6.33587">
        <ele>286.408014</ele>
        <time>2021-05-18T19:57:19.760Z</time>
      </trkpt>
      <trkpt lat="43.40782" lon="6.33574">
        <ele>284.158952</ele>
        <time>2021-05-18T19:57:26.869Z</time>
      </trkpt>
      <trkpt lat="43.40761" lon="6.336">
        <ele>282.325316</ele>
        <time>2021-05-18T19:57:33.168Z</time>
      </trkpt>
      <trkpt lat="43.40719" lon="6.33669">
        <ele>278.204424</ele>
        <time>2021-05-18T19:57:47.661Z</time>
      </trkpt>
      <trkpt lat="43.40665" lon="6.33786">
        <ele>271.848087</ele>
        <time>2021-05-18T19:58:10.157Z</time>
      </trkpt>
      <trkpt lat="43.40625" lon="6.33845">
        <ele>268.099995</ele>
        <time>2021-05-18T19:58:23.122Z</time>
      </trkpt>
      <trkpt lat="43.40579" lon="6.33952">
        <ele>262.356955</ele>
        <time>2021-05-18T19:58:43.126Z</time>
      </trkpt>
      <trkpt lat="43.40563" lon="6.34">
        <ele>259.882166</ele>
        <time>2021-05-18T19:58:51.828Z</time>
      </trkpt>
      <trkpt lat="43.4055" lon="6.34014">
        <ele>258.801563</ele>
        <time>2021-05-18T19:58:55.446Z</time>
      </trkpt>
      <trkpt lat="43.40533" lon="6.34022">
        <ele>257.579004</ele>
        <time>2021-05-18T19:58:59.853Z</time>
      </trkpt>
      <trkpt lat="43.40457" lon="6.34098">
        <ele>251.368544</ele>
        <time>2021-05-18T19:59:20.599Z</time>
      </trkpt>
      <trkpt lat="43.40396" lon="6.34148">
        <ele>245.62329</ele>
        <time>2021-05-18T19:59:35.975Z</time>
      </trkpt>
      <trkpt lat="43.40393" lon="6.34153">
        <ele>245.20535</ele>
        <time>2021-05-18T19:59:36.882Z</time>
      </trkpt>
      <trkpt lat="43.40365" lon="6.34202">
        <ele>240.925806</ele>
        <time>2021-05-18T19:59:46.161Z</time>
      </trkpt>
      <trkpt lat="43.40332" lon="6.34278">
        <ele>234.819306</ele>
        <time>2021-05-18T19:59:59.425Z</time>
      </trkpt>
      <trkpt lat="43.40329" lon="6.34296">
        <ele>233.54993</ele>
        <time>2021-05-18T20:00:02.107Z</time>
      </trkpt>
      <trkpt lat="43.40314" lon="6.34321">
        <ele>231.566096</ele>
        <time>2021-05-18T20:00:06.924Z</time>
      </trkpt>
      <trkpt lat="43.40301" lon="6.34329">
        <ele>230.826162</ele>
        <time>2021-05-18T20:00:08.576Z</time>
      </trkpt>
      <trkpt lat="43.40269" lon="6.34356">
        <ele>228.81471</ele>
        <time>2021-05-18T20:00:13.175Z</time>
      </trkpt>
      <trkpt lat="43.40238" lon="6.34428">
        <ele>225.580401</ele>
        <time>2021-05-18T20:00:21.194Z</time>
      </trkpt>
      <trkpt lat="43.40229" lon="6.34454">
        <ele>224.473678</ele>
        <time>2021-05-18T20:00:23.943Z</time>
      </trkpt>
      <trkpt lat="43.4023" lon="6.34465">
        <ele>224.047918</ele>
        <time>2021-05-18T20:00:25.036Z</time>
      </trkpt>
      <trkpt lat="43.40231" lon="6.34476">
        <ele>223.586996</ele>
        <time>2021-05-18T20:00:26.998Z</time>
      </trkpt>
      <trkpt lat="43.40227" lon="6.34511">
        <ele>222.355026</ele>
        <time>2021-05-18T20:00:31.007Z</time>
      </trkpt>
      <trkpt lat="43.40208" lon="6.34585">
        <ele>223.010055</ele>
        <time>2021-05-18T20:00:46.915Z</time>
      </trkpt>
      <trkpt lat="43.40198" lon="6.34608">
        <ele>223.241587</ele>
        <time>2021-05-18T20:00:52.437Z</time>
      </trkpt>
      <trkpt lat="43.40192" lon="6.34618">
        <ele>223.350454</ele>
        <time>2021-05-18T20:00:56.524Z</time>
      </trkpt>
      <trkpt lat="43.40184" lon="6.3463">
        <ele>223.485998</ele>
        <time>2021-05-18T20:00:59.413Z</time>
      </trkpt>
      <trkpt lat="43.40175" lon="6.34651">
        <ele>223.688684</ele>
        <time>2021-05-18T20:01:05.781Z</time>
      </trkpt>
      <trkpt lat="43.40168" lon="6.3467">
        <ele>223.864129</ele>
        <time>2021-05-18T20:01:12.140Z</time>
      </trkpt>
      <trkpt lat="43.40174" lon="6.34757">
        <ele>223.188544</ele>
        <time>2021-05-18T20:01:22.679Z</time>
      </trkpt>
      <trkpt lat="43.4018" lon="6.34874">
        <ele>216.526536</ele>
        <time>2021-05-18T20:01:34.463Z</time>
      </trkpt>
      <trkpt lat="43.4018" lon="6.34901">
        <ele>214.940285</ele>
        <time>2021-05-18T20:01:38.448Z</time>
      </trkpt>
      <trkpt lat="43.40174" lon="6.34951">
        <ele>212.098459</ele>
        <time>2021-05-18T20:01:45.690Z</time>
      </trkpt>
      <trkpt lat="43.40158" lon="6.3499">
        <ele>208.552199</ele>
        <time>2021-05-18T20:01:52.151Z</time>
      </trkpt>
      <trkpt lat="43.4012" lon="6.35026">
        <ele>201.032828</ele>
        <time>2021-05-18T20:02:00.867Z</time>
      </trkpt>
      <trkpt lat="43.40097" lon="6.35041">
        <ele>196.711465</ele>
        <time>2021-05-18T20:02:05.748Z</time>
      </trkpt>
      <trkpt lat="43.40105" lon="6.35054">
        <ele>194.648438</ele>
        <time>2021-05-18T20:02:07.550Z</time>
      </trkpt>
      <trkpt lat="43.40171" lon="6.35094">
        <ele>182.722808</ele>
        <time>2021-05-18T20:02:18.007Z</time>
      </trkpt>
      <trkpt lat="43.40178" lon="6.35103">
        <ele>181.160367</ele>
        <time>2021-05-18T20:02:19.378Z</time>
      </trkpt>
      <trkpt lat="43.40179" lon="6.35122">
        <ele>178.935437</ele>
        <time>2021-05-18T20:02:21.432Z</time>
      </trkpt>
      <trkpt lat="43.40163" lon="6.35157">
        <ele>174.362344</ele>
        <time>2021-05-18T20:02:25.724Z</time>
      </trkpt>
      <trkpt lat="43.40117" lon="6.35178">
        <ele>166.707927</ele>
        <time>2021-05-18T20:02:32.941Z</time>
      </trkpt>
      <trkpt lat="43.40114" lon="6.35195">
        <ele>164.752513</ele>
        <time>2021-05-18T20:02:34.852Z</time>
      </trkpt>
      <trkpt lat="43.40136" lon="6.35262">
        <ele>156.491119</ele>
        <time>2021-05-18T20:02:42.722Z</time>
      </trkpt>
      <trkpt lat="43.40133" lon="6.35273">
        <ele>155.064664</ele>
        <time>2021-05-18T20:02:44.106Z</time>
      </trkpt>
      <trkpt lat="43.40121" lon="6.35275">
        <ele>153.244617</ele>
        <time>2021-05-18T20:02:45.897Z</time>
      </trkpt>
      <trkpt lat="43.40089" lon="6.35254">
        <ele>148.728331</ele>
        <time>2021-05-18T20:02:51.181Z</time>
      </trkpt>
      <trkpt lat="43.40083" lon="6.35258">
        <ele>147.891353</ele>
        <time>2021-05-18T20:02:52.130Z</time>
      </trkpt>
      <trkpt lat="43.40091" lon="6.35278">
        <ele>145.850589</ele>
        <time>2021-05-18T20:02:54.617Z</time>
      </trkpt>
      <trkpt lat="43.40099" lon="6.35309">
        <ele>142.832948</ele>
        <time>2021-05-18T20:02:58.267Z</time>
      </trkpt>
      <trkpt lat="43.40138" lon="6.3536">
        <ele>136.232547</ele>
        <time>2021-05-18T20:03:06.454Z</time>
      </trkpt>
      <trkpt lat="43.4015" lon="6.35383">
        <ele>133.678385</ele>
        <time>2021-05-18T20:03:09.581Z</time>
      </trkpt>
      <trkpt lat="43.40168" lon="6.35417">
        <ele>130.224514</ele>
        <time>2021-05-18T20:03:14.234Z</time>
      </trkpt>
      <trkpt lat="43.40196" lon="6.35459">
        <ele>127.468244</ele>
        <time>2021-05-18T20:03:20.949Z</time>
      </trkpt>
      <trkpt lat="43.40196" lon="6.35536">
        <ele>123.694374</ele>
        <time>2021-05-18T20:03:30.378Z</time>
      </trkpt>
      <trkpt lat="43.40228" lon="6.35719">
        <ele>116.645556</ele>
        <time>2021-05-18T20:03:54.478Z</time>
      </trkpt>
      <trkpt lat="43.40234" lon="6.35787">
        <ele>115.069209</ele>
        <time>2021-05-18T20:04:03.944Z</time>
      </trkpt>
      <trkpt lat="43.40236" lon="6.35822">
        <ele>114.262714</ele>
        <time>2021-05-18T20:04:07.751Z</time>
      </trkpt>
      <trkpt lat="43.40244" lon="6.35859">
        <ele>113.38452</ele>
        <time>2021-05-18T20:04:12.028Z</time>
      </trkpt>
      <trkpt lat="43.40261" lon="6.35959">
        <ele>112.657641</ele>
        <time>2021-05-18T20:04:24.311Z</time>
      </trkpt>
      <trkpt lat="43.40286" lon="6.36026">
        <ele>112.491324</ele>
        <time>2021-05-18T20:04:34.208Z</time>
      </trkpt>
      <trkpt lat="43.40316" lon="6.36182">
        <ele>112.528398</ele>
        <time>2021-05-18T20:04:58.770Z</time>
      </trkpt>
      <trkpt lat="43.40329" lon="6.36214">
        <ele>112.659384</ele>
        <time>2021-05-18T20:05:04.529Z</time>
      </trkpt>
      <trkpt lat="43.40343" lon="6.36278">
        <ele>112.897352</ele>
        <time>2021-05-18T20:05:15.038Z</time>
      </trkpt>
      <trkpt lat="43.40347" lon="6.36493">
        <ele>112.676368</ele>
        <time>2021-05-18T20:05:44.360Z</time>
      </trkpt>
      <trkpt lat="43.40348" lon="6.36558">
        <ele>112.445207</ele>
        <time>2021-05-18T20:05:52.255Z</time>
      </trkpt>
      <trkpt lat="43.40343" lon="6.36621">
        <ele>112.046699</ele>
        <time>2021-05-18T20:05:59.806Z</time>
      </trkpt>
      <trkpt lat="43.40317" lon="6.36698">
        <ele>111.003457</ele>
        <time>2021-05-18T20:06:09.538Z</time>
      </trkpt>
      <trkpt lat="43.40274" lon="6.36909">
        <ele>108.351677</ele>
        <time>2021-05-18T20:06:34.248Z</time>
      </trkpt>
      <trkpt lat="43.4026" lon="6.37001">
        <ele>107.237619</ele>
        <time>2021-05-18T20:06:45.061Z</time>
      </trkpt>
      <trkpt lat="43.40267" lon="6.37075">
        <ele>106.354111</ele>
        <time>2021-05-18T20:06:53.762Z</time>
      </trkpt>
      <trkpt lat="43.40259" lon="6.37236">
        <ele>105.075387</ele>
        <time>2021-05-18T20:07:12.839Z</time>
      </trkpt>
      <trkpt lat="43.40275" lon="6.37387">
        <ele>104.273643</ele>
        <time>2021-05-18T20:07:31.955Z</time>
      </trkpt>
      <trkpt lat="43.40287" lon="6.37503">
        <ele>104.088264</ele>
        <time>2021-05-18T20:07:47.435Z</time>
      </trkpt>
      <trkpt lat="43.40298" lon="6.37594">
        <ele>103.962762</ele>
        <time>2021-05-18T20:08:00.322Z</time>
      </trkpt>
      <trkpt lat="43.40321" lon="6.37698">
        <ele>103.881029</ele>
        <time>2021-05-18T20:08:15.615Z</time>
      </trkpt>
      <trkpt lat="43.40388" lon="6.38098">
        <ele>102.800414</ele>
        <time>2021-05-18T20:09:08.524Z</time>
      </trkpt>
      <trkpt lat="43.40402" lon="6.38209">
        <ele>102.118132</ele>
        <time>2021-05-18T20:09:22.488Z</time>
      </trkpt>
      <trkpt lat="43.40417" lon="6.38254">
        <ele>101.817672</ele>
        <time>2021-05-18T20:09:28.396Z</time>
      </trkpt>
      <trkpt lat="43.40435" lon="6.38351">
        <ele>100.93261</ele>
        <time>2021-05-18T20:09:40.136Z</time>
      </trkpt>
      <trkpt lat="43.40426" lon="6.38428">
        <ele>100.115574</ele>
        <time>2021-05-18T20:09:49.186Z</time>
      </trkpt>
      <trkpt lat="43.40348" lon="6.38849">
        <ele>95.50257</ele>
        <time>2021-05-18T20:10:39.594Z</time>
      </trkpt>
      <trkpt lat="43.40349" lon="6.39072">
        <ele>93.592774</ele>
        <time>2021-05-18T20:11:06.330Z</time>
      </trkpt>
      <trkpt lat="43.40364" lon="6.39229">
        <ele>92.383146</ele>
        <time>2021-05-18T20:11:25.353Z</time>
      </trkpt>
      <trkpt lat="43.40368" lon="6.39302">
        <ele>91.674463</ele>
        <time>2021-05-18T20:11:34.591Z</time>
      </trkpt>
      <trkpt lat="43.40364" lon="6.39315">
        <ele>91.524214</ele>
        <time>2021-05-18T20:11:36.398Z</time>
      </trkpt>
      <trkpt lat="43.40357" lon="6.3932">
        <ele>91.390047</ele>
        <time>2021-05-18T20:11:37.630Z</time>
      </trkpt>
      <trkpt lat="43.40355" lon="6.39316">
        <ele>91.329598</ele>
        <time>2021-05-18T20:11:38.370Z</time>
      </trkpt>
      <trkpt lat="43.40345" lon="6.39308">
        <ele>91.151167</ele>
        <time>2021-05-18T20:11:40.238Z</time>
      </trkpt>
      <trkpt lat="43.40341" lon="6.39308">
        <ele>91.091658</ele>
        <time>2021-05-18T20:11:40.868Z</time>
      </trkpt>
      <trkpt lat="43.40337" lon="6.3931">
        <ele>91.014946</ele>
        <time>2021-05-18T20:11:41.665Z</time>
      </trkpt>
      <trkpt lat="43.40333" lon="6.39314">
        <ele>90.93878</ele>
        <time>2021-05-18T20:11:42.508Z</time>
      </trkpt>
      <trkpt lat="43.4033" lon="6.39319">
        <ele>90.862312</ele>
        <time>2021-05-18T20:11:43.139Z</time>
      </trkpt>
      <trkpt lat="43.40323" lon="6.39314">
        <ele>90.731676</ele>
        <time>2021-05-18T20:11:44.453Z</time>
      </trkpt>
      <trkpt lat="43.40311" lon="6.39288">
        <ele>90.389228</ele>
        <time>2021-05-18T20:11:47.842Z</time>
      </trkpt>
      <trkpt lat="43.4032" lon="6.3925">
        <ele>89.935762</ele>
        <time>2021-05-18T20:11:52.021Z</time>
      </trkpt>
      <trkpt lat="43.40322" lon="6.3924">
        <ele>89.817328</ele>
        <time>2021-05-18T20:11:53.225Z</time>
      </trkpt>
      <trkpt lat="43.4032" lon="6.39229">
        <ele>89.69037</ele>
        <time>2021-05-18T20:11:54.285Z</time>
      </trkpt>
      <trkpt lat="43.4031" lon="6.39219">
        <ele>89.497273</ele>
        <time>2021-05-18T20:11:56.139Z</time>
      </trkpt>
      <trkpt lat="43.40286" lon="6.39229">
        <ele>88.921483</ele>
        <time>2021-05-18T20:11:59.578Z</time>
      </trkpt>
      <trkpt lat="43.40255" lon="6.39236">
        <ele>87.958486</ele>
        <time>2021-05-18T20:12:04.156Z</time>
      </trkpt>
      <trkpt lat="43.40222" lon="6.39244">
        <ele>86.968963</ele>
        <time>2021-05-18T20:12:08.848Z</time>
      </trkpt>
      <trkpt lat="43.40058" lon="6.39297">
        <ele>82.320224</ele>
        <time>2021-05-18T20:12:31.581Z</time>
      </trkpt>
      <trkpt lat="43.39965" lon="6.39326">
        <ele>80.018543</ele>
        <time>2021-05-18T20:12:45.635Z</time>
      </trkpt>
      <trkpt lat="43.39829" lon="6.39376">
        <ele>78.229248</ele>
        <time>2021-05-18T20:13:07.496Z</time>
      </trkpt>
      <trkpt lat="43.39871" lon="6.39478">
        <ele>77.520552</ele>
        <time>2021-05-18T20:13:21.376Z</time>
      </trkpt>
      <trkpt lat="43.39881" lon="6.39518">
        <ele>77.438684</ele>
        <time>2021-05-18T20:13:26.452Z</time>
      </trkpt>
      <trkpt lat="43.3991" lon="6.39583">
        <ele>77.287612</ele>
        <time>2021-05-18T20:13:36.009Z</time>
      </trkpt>
      <trkpt lat="43.39914" lon="6.39588">
        <ele>77.274553</ele>
        <time>2021-05-18T20:13:36.771Z</time>
      </trkpt>
      <trkpt lat="43.39942" lon="6.39625">
        <ele>77.168425</ele>
        <time>2021-05-18T20:13:43.800Z</time>
      </trkpt>
      <trkpt lat="43.40083" lon="6.39733">
        <ele>77.746064</ele>
        <time>2021-05-18T20:14:15.938Z</time>
      </trkpt>
      <trkpt lat="43.40119" lon="6.39776">
        <ele>77.94533</ele>
        <time>2021-05-18T20:14:25.337Z</time>
      </trkpt>
      <trkpt lat="43.40143" lon="6.39817">
        <ele>78.032643</ele>
        <time>2021-05-18T20:14:32.616Z</time>
      </trkpt>
      <trkpt lat="43.40175" lon="6.39918">
        <ele>78.215419</ele>
        <time>2021-05-18T20:14:47.344Z</time>
      </trkpt>
      <trkpt lat="43.40206" lon="6.40085">
        <ele>78.453704</ele>
        <time>2021-05-18T20:15:10.113Z</time>
      </trkpt>
      <trkpt lat="43.40227" lon="6.40278">
        <ele>78.693974</ele>
        <time>2021-05-18T20:15:36.476Z</time>
      </trkpt>
      <trkpt lat="43.40001" lon="6.40444">
        <ele>78.861763</ele>
        <time>2021-05-18T20:16:26.034Z</time>
      </trkpt>
      <trkpt lat="43.39986" lon="6.40466">
        <ele>78.83705</ele>
        <time>2021-05-18T20:16:30.039Z</time>
      </trkpt>
      <trkpt lat="43.39898" lon="6.40675">
        <ele>77.791883</ele>
        <time>2021-05-18T20:17:00.325Z</time>
      </trkpt>
      <trkpt lat="43.39885" lon="6.40831">
        <ele>76.900178</ele>
        <time>2021-05-18T20:17:18.965Z</time>
      </trkpt>
      <trkpt lat="43.39855" lon="6.40944">
        <ele>76.203695</ele>
        <time>2021-05-18T20:17:33.755Z</time>
      </trkpt>
      <trkpt lat="43.39822" lon="6.41121">
        <ele>75.54223</ele>
        <time>2021-05-18T20:17:58.126Z</time>
      </trkpt>
      <trkpt lat="43.39802" lon="6.41224">
        <ele>75.226392</ele>
        <time>2021-05-18T20:18:11.860Z</time>
      </trkpt>
      <trkpt lat="43.39751" lon="6.41476">
        <ele>72.466143</ele>
        <time>2021-05-18T20:18:42.154Z</time>
      </trkpt>
      <trkpt lat="43.39703" lon="6.41694">
        <ele>69.82505</ele>
        <time>2021-05-18T20:19:08.022Z</time>
      </trkpt>
      <trkpt lat="43.39672" lon="6.41873">
        <ele>68.631769</ele>
        <time>2021-05-18T20:19:30.640Z</time>
      </trkpt>
      <trkpt lat="43.39653" lon="6.42026">
        <ele>67.680348</ele>
        <time>2021-05-18T20:19:50.248Z</time>
      </trkpt>
      <trkpt lat="43.39647" lon="6.42097">
        <ele>67.25064</ele>
        <time>2021-05-18T20:19:59.169Z</time>
      </trkpt>
      <trkpt lat="43.39627" lon="6.42174">
        <ele>66.765787</ele>
        <time>2021-05-18T20:20:08.960Z</time>
      </trkpt>
      <trkpt lat="43.39572" lon="6.42403">
        <ele>65.162078</ele>
        <time>2021-05-18T20:20:38.085Z</time>
      </trkpt>
      <trkpt lat="43.39495" lon="6.42682">
        <ele>64.916738</ele>
        <time>2021-05-18T20:21:17.845Z</time>
      </trkpt>
      <trkpt lat="43.39468" lon="6.42844">
        <ele>65.467319</ele>
        <time>2021-05-18T20:21:42.971Z</time>
      </trkpt>
      <trkpt lat="43.39433" lon="6.43076">
        <ele>66.395871</ele>
        <time>2021-05-18T20:22:19.428Z</time>
      </trkpt>
      <trkpt lat="43.39392" lon="6.43216">
        <ele>67.030125</ele>
        <time>2021-05-18T20:22:41.211Z</time>
      </trkpt>
      <trkpt lat="43.39366" lon="6.43273">
        <ele>67.315817</ele>
        <time>2021-05-18T20:22:50.435Z</time>
      </trkpt>
      <trkpt lat="43.39295" lon="6.43465">
        <ele>69.059632</ele>
        <time>2021-05-18T20:23:26.944Z</time>
      </trkpt>
      <trkpt lat="43.39312" lon="6.43485">
        <ele>69.376408</ele>
        <time>2021-05-18T20:23:32.932Z</time>
      </trkpt>
      <trkpt lat="43.39336" lon="6.43538">
        <ele>70.042672</ele>
        <time>2021-05-18T20:23:44.763Z</time>
      </trkpt>
      <trkpt lat="43.39346" lon="6.43575">
        <ele>70.281049</ele>
        <time>2021-05-18T20:23:52.412Z</time>
      </trkpt>
      <trkpt lat="43.3934" lon="6.4366">
        <ele>70.121518</ele>
        <time>2021-05-18T20:24:06.405Z</time>
      </trkpt>
      <trkpt lat="43.39357" lon="6.43722">
        <ele>69.995841</ele>
        <time>2021-05-18T20:24:15.072Z</time>
      </trkpt>
      <trkpt lat="43.39377" lon="6.43753">
        <ele>69.919034</ele>
        <time>2021-05-18T20:24:20.113Z</time>
      </trkpt>
      <trkpt lat="43.39371" lon="6.4376">
        <ele>69.898873</ele>
        <time>2021-05-18T20:24:21.208Z</time>
      </trkpt>
      <trkpt lat="43.39252" lon="6.43913">
        <ele>65.545325</ele>
        <time>2021-05-18T20:24:43.888Z</time>
      </trkpt>
      <trkpt lat="43.39035" lon="6.44054">
        <ele>56.613941</ele>
        <time>2021-05-18T20:25:15.496Z</time>
      </trkpt>
      <trkpt lat="43.39015" lon="6.44058">
        <ele>55.949376</ele>
        <time>2021-05-18T20:25:18.250Z</time>
      </trkpt>
      <trkpt lat="43.38997" lon="6.44062">
        <ele>55.377124</ele>
        <time>2021-05-18T20:25:20.748Z</time>
      </trkpt>
      <trkpt lat="43.38975" lon="6.44066">
        <ele>54.674382</ele>
        <time>2021-05-18T20:25:23.691Z</time>
      </trkpt>
      <trkpt lat="43.38827" lon="6.44123">
        <ele>50.764971</ele>
        <time>2021-05-18T20:25:45.378Z</time>
      </trkpt>
      <trkpt lat="43.38803" lon="6.44141">
        <ele>50.361443</ele>
        <time>2021-05-18T20:25:49.484Z</time>
      </trkpt>
      <trkpt lat="43.38768" lon="6.44166">
        <ele>49.776977</ele>
        <time>2021-05-18T20:25:55.612Z</time>
      </trkpt>
      <trkpt lat="43.38758" lon="6.44172">
        <ele>49.607615</ele>
        <time>2021-05-18T20:25:57.470Z</time>
      </trkpt>
      <trkpt lat="43.38745" lon="6.44178">
        <ele>49.402708</ele>
        <time>2021-05-18T20:25:59.608Z</time>
      </trkpt>
      <trkpt lat="43.38732" lon="6.4418">
        <ele>49.216501</ele>
        <time>2021-05-18T20:26:01.668Z</time>
      </trkpt>
      <trkpt lat="43.38644" lon="6.44184">
        <ele>48.992058</ele>
        <time>2021-05-18T20:26:16.751Z</time>
      </trkpt>
      <trkpt lat="43.38442" lon="6.44195">
        <ele>49.597444</ele>
        <time>2021-05-18T20:26:56.448Z</time>
      </trkpt>
      <trkpt lat="43.38312" lon="6.44168">
        <ele>50.288483</ele>
        <time>2021-05-18T20:27:23.306Z</time>
      </trkpt>
      <trkpt lat="43.38109" lon="6.44098">
        <ele>51.357335</ele>
        <time>2021-05-18T20:28:03.685Z</time>
      </trkpt>
      <trkpt lat="43.38085" lon="6.44089">
        <ele>51.50562</ele>
        <time>2021-05-18T20:28:08.687Z</time>
      </trkpt>
      <trkpt lat="43.38053" lon="6.44085">
        <ele>51.695845</ele>
        <time>2021-05-18T20:28:15.136Z</time>
      </trkpt>
      <trkpt lat="43.38037" lon="6.44089">
        <ele>51.792526</ele>
        <time>2021-05-18T20:28:18.588Z</time>
      </trkpt>
      <trkpt lat="43.38025" lon="6.44102">
        <ele>51.885589</ele>
        <time>2021-05-18T20:28:21.786Z</time>
      </trkpt>
      <trkpt lat="43.3801" lon="6.44127">
        <ele>52.055905</ele>
        <time>2021-05-18T20:28:26.866Z</time>
      </trkpt>
      <trkpt lat="43.37983" lon="6.44173">
        <ele>52.551152</ele>
        <time>2021-05-18T20:28:35.814Z</time>
      </trkpt>
      <trkpt lat="43.37965" lon="6.44206">
        <ele>52.904526</ele>
        <time>2021-05-18T20:28:42.573Z</time>
      </trkpt>
      <trkpt lat="43.37952" lon="6.44223">
        <ele>53.113783</ele>
        <time>2021-05-18T20:28:46.459Z</time>
      </trkpt>
      <trkpt lat="43.37941" lon="6.4423">
        <ele>53.249376</ele>
        <time>2021-05-18T20:28:49.161Z</time>
      </trkpt>
      <trkpt lat="43.3794" lon="6.44241">
        <ele>53.341576</ele>
        <time>2021-05-18T20:28:51.947Z</time>
      </trkpt>
      <trkpt lat="43.37949" lon="6.44242">
        <ele>53.440041</ele>
        <time>2021-05-18T20:28:54.822Z</time>
      </trkpt>
      <trkpt lat="43.37969" lon="6.4426">
        <ele>53.719504</ele>
        <time>2021-05-18T20:29:03.354Z</time>
      </trkpt>
      <trkpt lat="43.37993" lon="6.44272">
        <ele>54.020553</ele>
        <time>2021-05-18T20:29:12.452Z</time>
      </trkpt>
      <trkpt lat="43.37999" lon="6.44275">
        <ele>54.091469</ele>
        <time>2021-05-18T20:29:14.644Z</time>
      </trkpt>
      <trkpt lat="43.37981" lon="6.44321">
        <ele>54.761563</ele>
        <time>2021-05-18T20:29:28.476Z</time>
      </trkpt>
      <trkpt lat="43.37957" lon="6.4436">
        <ele>55.400447</ele>
        <time>2021-05-18T20:29:41.653Z</time>
      </trkpt>
      <trkpt lat="43.37936" lon="6.44386">
        <ele>55.908898</ele>
        <time>2021-05-18T20:29:52.119Z</time>
      </trkpt>
      <trkpt lat="43.37921" lon="6.44396">
        <ele>56.201414</ele>
        <time>2021-05-18T20:29:58.263Z</time>
      </trkpt>
      <trkpt lat="43.37924" lon="6.44426">
        <ele>56.583333</ele>
        <time>2021-05-18T20:30:06.273Z</time>
      </trkpt>
      <trkpt lat="43.37921" lon="6.4444">
        <ele>56.773968</ele>
        <time>2021-05-18T20:30:10.428Z</time>
      </trkpt>
      <trkpt lat="43.37941" lon="6.44463">
        <ele>57.219654</ele>
        <time>2021-05-18T20:30:20.079Z</time>
      </trkpt>
      <trkpt lat="43.37953" lon="6.4449">
        <ele>57.772689</ele>
        <time>2021-05-18T20:30:28.868Z</time>
      </trkpt>
      <trkpt lat="43.37986" lon="6.44518">
        <ele>58.728276</ele>
        <time>2021-05-18T20:30:43.852Z</time>
      </trkpt>
      <trkpt lat="43.38002" lon="6.44543">
        <ele>59.331857</ele>
        <time>2021-05-18T20:30:53.477Z</time>
      </trkpt>
      <trkpt lat="43.38004" lon="6.44559">
        <ele>59.613484</ele>
        <time>2021-05-18T20:30:58.006Z</time>
      </trkpt>
      <trkpt lat="43.38028" lon="6.446">
        <ele>60.550937</ele>
        <time>2021-05-18T20:31:13.185Z</time>
      </trkpt>
      <trkpt lat="43.38032" lon="6.44617">
        <ele>60.864712</ele>
        <time>2021-05-18T20:31:18.371Z</time>
      </trkpt>
      <trkpt lat="43.38038" lon="6.44688">
        <ele>62.315498</ele>
        <time>2021-05-18T20:31:39.814Z</time>
      </trkpt>
      <trkpt lat="43.38054" lon="6.44707">
        <ele>63.015105</ele>
        <time>2021-05-18T20:31:48.670Z</time>
      </trkpt>
      <trkpt lat="43.38077" lon="6.44707">
        <ele>63.807187</ele>
        <time>2021-05-18T20:31:58.811Z</time>
      </trkpt>
      <trkpt lat="43.38091" lon="6.44725">
        <ele>64.450759</ele>
        <time>2021-05-18T20:32:07.162Z</time>
      </trkpt>
      <trkpt lat="43.38095" lon="6.44768">
        <ele>65.477692</ele>
        <time>2021-05-18T20:32:20.667Z</time>
      </trkpt>
      <trkpt lat="43.38105" lon="6.44793">
        <ele>66.185677</ele>
        <time>2021-05-18T20:32:30.030Z</time>
      </trkpt>
      <trkpt lat="43.38096" lon="6.44851">
        <ele>67.618097</ele>
        <time>2021-05-18T20:32:49.052Z</time>
      </trkpt>
      <trkpt lat="43.38114" lon="6.44894">
        <ele>68.847815</ele>
        <time>2021-05-18T20:33:05.069Z</time>
      </trkpt>
      <trkpt lat="43.38101" lon="6.44958">
        <ele>70.482291</ele>
        <time>2021-05-18T20:33:26.545Z</time>
      </trkpt>
      <trkpt lat="43.38112" lon="6.45019">
        <ele>72.030672</ele>
        <time>2021-05-18T20:33:46.789Z</time>
      </trkpt>
      <trkpt lat="43.38119" lon="6.45022">
        <ele>72.260249</ele>
        <time>2021-05-18T20:33:49.666Z</time>
      </trkpt>
      <trkpt lat="43.38141" lon="6.45008">
        <ele>73.102909</ele>
        <time>2021-05-18T20:34:00.144Z</time>
      </trkpt>
      <trkpt lat="43.38171" lon="6.45004">
        <ele>74.001306</ele>
        <time>2021-05-18T20:34:12.296Z</time>
      </trkpt>
      <trkpt lat="43.38174" lon="6.45007">
        <ele>74.086055</ele>
        <time>2021-05-18T20:34:14.060Z</time>
      </trkpt>
      <trkpt lat="43.38179" lon="6.45024">
        <ele>74.399516</ele>
        <time>2021-05-18T20:34:19.369Z</time>
      </trkpt>
      <trkpt lat="43.38181" lon="6.4505">
        <ele>74.857769</ele>
        <time>2021-05-18T20:34:26.824Z</time>
      </trkpt>
      <trkpt lat="43.38155" lon="6.45123">
        <ele>76.272882</ele>
        <time>2021-05-18T20:34:50.439Z</time>
      </trkpt>
      <trkpt lat="43.38136" lon="6.45152">
        <ele>76.962459</ele>
        <time>2021-05-18T20:35:01.763Z</time>
      </trkpt>
      <trkpt lat="43.38119" lon="6.45213">
        <ele>78.042122</ele>
        <time>2021-05-18T20:35:19.690Z</time>
      </trkpt>
      <trkpt lat="43.38128" lon="6.45253">
        <ele>78.274895</ele>
        <time>2021-05-18T20:35:30.700Z</time>
      </trkpt>
      <trkpt lat="43.38112" lon="6.45303">
        <ele>78.576219</ele>
        <time>2021-05-18T20:35:44.553Z</time>
      </trkpt>
      <trkpt lat="43.38109" lon="6.45335">
        <ele>78.750524</ele>
        <time>2021-05-18T20:35:52.239Z</time>
      </trkpt>
      <trkpt lat="43.38129" lon="6.45408">
        <ele>79.183879</ele>
        <time>2021-05-18T20:36:10.093Z</time>
      </trkpt>
      <trkpt lat="43.38121" lon="6.4545">
        <ele>79.299308</ele>
        <time>2021-05-18T20:36:19.194Z</time>
      </trkpt>
      <trkpt lat="43.38106" lon="6.4549">
        <ele>78.721497</ele>
        <time>2021-05-18T20:36:28.332Z</time>
      </trkpt>
      <trkpt lat="43.38108" lon="6.45501">
        <ele>78.570294</ele>
        <time>2021-05-18T20:36:30.686Z</time>
      </trkpt>
      <trkpt lat="43.38118" lon="6.45508">
        <ele>78.364098</ele>
        <time>2021-05-18T20:36:33.771Z</time>
      </trkpt>
      <trkpt lat="43.38182" lon="6.45473">
        <ele>77.144683</ele>
        <time>2021-05-18T20:36:51.224Z</time>
      </trkpt>
      <trkpt lat="43.38232" lon="6.4551">
        <ele>76.153739</ele>
        <time>2021-05-18T20:37:05.654Z</time>
      </trkpt>
      <trkpt lat="43.38249" lon="6.45515">
        <ele>75.96442</ele>
        <time>2021-05-18T20:37:10.268Z</time>
      </trkpt>
      <trkpt lat="43.38257" lon="6.45513">
        <ele>75.874592</ele>
        <time>2021-05-18T20:37:12.161Z</time>
      </trkpt>
      <trkpt lat="43.38276" lon="6.45524">
        <ele>75.647679</ele>
        <time>2021-05-18T20:37:17.638Z</time>
      </trkpt>
      <trkpt lat="43.38261" lon="6.45559">
        <ele>75.319705</ele>
        <time>2021-05-18T20:37:25.527Z</time>
      </trkpt>
      <trkpt lat="43.38257" lon="6.456">
        <ele>74.988805</ele>
        <time>2021-05-18T20:37:33.627Z</time>
      </trkpt>
      <trkpt lat="43.38233" lon="6.45654">
        <ele>74.481498</ele>
        <time>2021-05-18T20:37:46.553Z</time>
      </trkpt>
      <trkpt lat="43.38229" lon="6.45736">
        <ele>74.471242</ele>
        <time>2021-05-18T20:38:05.190Z</time>
      </trkpt>
      <trkpt lat="43.3822" lon="6.45797">
        <ele>74.844352</ele>
        <time>2021-05-18T20:38:20.742Z</time>
      </trkpt>
      <trkpt lat="43.38211" lon="6.45818">
        <ele>74.994961</ele>
        <time>2021-05-18T20:38:26.976Z</time>
      </trkpt>
      <trkpt lat="43.38195" lon="6.45906">
        <ele>75.538356</ele>
        <time>2021-05-18T20:38:49.279Z</time>
      </trkpt>
      <trkpt lat="43.3818" lon="6.45942">
        <ele>75.759331</ele>
        <time>2021-05-18T20:38:59.322Z</time>
      </trkpt>
      <trkpt lat="43.38068" lon="6.46053">
        <ele>76.607005</ele>
        <time>2021-05-18T20:39:43.398Z</time>
      </trkpt>
      <trkpt lat="43.38058" lon="6.46125">
        <ele>77.026738</ele>
        <time>2021-05-18T20:40:00.189Z</time>
      </trkpt>
      <trkpt lat="43.3805" lon="6.46149">
        <ele>77.218933</ele>
        <time>2021-05-18T20:40:06.399Z</time>
      </trkpt>
      <trkpt lat="43.3802" lon="6.46171">
        <ele>77.559501</ele>
        <time>2021-05-18T20:40:17.486Z</time>
      </trkpt>
      <trkpt lat="43.37996" lon="6.46204">
        <ele>77.893273</ele>
        <time>2021-05-18T20:40:28.577Z</time>
      </trkpt>
      <trkpt lat="43.37981" lon="6.46226">
        <ele>78.118665</ele>
        <time>2021-05-18T20:40:36.277Z</time>
      </trkpt>
      <trkpt lat="43.37964" lon="6.46259">
        <ele>78.410178</ele>
        <time>2021-05-18T20:40:46.517Z</time>
      </trkpt>
      <trkpt lat="43.37928" lon="6.46315">
        <ele>79.436549</ele>
        <time>2021-05-18T20:41:06.378Z</time>
      </trkpt>
      <trkpt lat="43.37881" lon="6.46332">
        <ele>80.541781</ele>
        <time>2021-05-18T20:41:25.086Z</time>
      </trkpt>
      <trkpt lat="43.37827" lon="6.46325">
        <ele>81.761769</ele>
        <time>2021-05-18T20:41:46.518Z</time>
      </trkpt>
      <trkpt lat="43.37774" lon="6.46336">
        <ele>83.053065</ele>
        <time>2021-05-18T20:42:08.166Z</time>
      </trkpt>
      <trkpt lat="43.3776" lon="6.46344">
        <ele>83.481697</ele>
        <time>2021-05-18T20:42:14.445Z</time>
      </trkpt>
      <trkpt lat="43.37728" lon="6.46386">
        <ele>84.741715</ele>
        <time>2021-05-18T20:42:32.685Z</time>
      </trkpt>
      <trkpt lat="43.37709" lon="6.46451">
        <ele>86.152138</ele>
        <time>2021-05-18T20:42:52.778Z</time>
      </trkpt>
      <trkpt lat="43.377" lon="6.46464">
        <ele>86.522092</ele>
        <time>2021-05-18T20:42:58.553Z</time>
      </trkpt>
      <trkpt lat="43.37683" lon="6.46478">
        <ele>87.089899</ele>
        <time>2021-05-18T20:43:06.926Z</time>
      </trkpt>
      <trkpt lat="43.37653" lon="6.46486">
        <ele>87.946081</ele>
        <time>2021-05-18T20:43:19.548Z</time>
      </trkpt>
      <trkpt lat="43.37632" lon="6.46511">
        <ele>88.81136</ele>
        <time>2021-05-18T20:43:31.403Z</time>
      </trkpt>
      <trkpt lat="43.37605" lon="6.46521">
        <ele>89.659303</ele>
        <time>2021-05-18T20:43:42.932Z</time>
      </trkpt>
      <trkpt lat="43.37595" lon="6.46543">
        <ele>90.23411</ele>
        <time>2021-05-18T20:43:50.596Z</time>
      </trkpt>
      <trkpt lat="43.37587" lon="6.46545">
        <ele>90.507977</ele>
        <time>2021-05-18T20:43:54.236Z</time>
      </trkpt>
      <trkpt lat="43.37587" lon="6.46545">
        <ele>90.507977</ele>
        <time>2021-05-18T20:43:54.307Z</time>
      </trkpt>
      <trkpt lat="43.37562" lon="6.46547">
        <ele>91.260162</ele>
        <time>2021-05-18T20:44:04.503Z</time>
      </trkpt>
      <trkpt lat="43.37543" lon="6.46547">
        <ele>91.830757</ele>
        <time>2021-05-18T20:44:12.362Z</time>
      </trkpt>
      <trkpt lat="43.37523" lon="6.46555">
        <ele>92.468589</ele>
        <time>2021-05-18T20:44:20.984Z</time>
      </trkpt>
      <trkpt lat="43.37504" lon="6.46548">
        <ele>93.06228</ele>
        <time>2021-05-18T20:44:29.382Z</time>
      </trkpt>
      <trkpt lat="43.37496" lon="6.46533">
        <ele>93.479157</ele>
        <time>2021-05-18T20:44:35.126Z</time>
      </trkpt>
      <trkpt lat="43.37457" lon="6.46536">
        <ele>94.652329</ele>
        <time>2021-05-18T20:44:51.757Z</time>
      </trkpt>
      <trkpt lat="43.37443" lon="6.46529">
        <ele>95.096861</ele>
        <time>2021-05-18T20:44:58.388Z</time>
      </trkpt>
      <trkpt lat="43.37425" lon="6.46424">
        <ele>97.467065</ele>
        <time>2021-05-18T20:45:31.070Z</time>
      </trkpt>
      <trkpt lat="43.37414" lon="6.46409">
        <ele>97.926945</ele>
        <time>2021-05-18T20:45:37.279Z</time>
      </trkpt>
      <trkpt lat="43.37403" lon="6.46405">
        <ele>98.26621</ele>
        <time>2021-05-18T20:45:41.885Z</time>
      </trkpt>
      <trkpt lat="43.3739" lon="6.46409">
        <ele>98.671347</ele>
        <time>2021-05-18T20:45:47.505Z</time>
      </trkpt>
      <trkpt lat="43.37359" lon="6.46434">
        <ele>99.548613</ele>
        <time>2021-05-18T20:46:01.921Z</time>
      </trkpt>
      <trkpt lat="43.3735" lon="6.46437">
        <ele>99.795112</ele>
        <time>2021-05-18T20:46:05.893Z</time>
      </trkpt>
      <trkpt lat="43.37284" lon="6.46418">
        <ele>101.452859</ele>
        <time>2021-05-18T20:46:32.142Z</time>
      </trkpt>
      <trkpt lat="43.37249" lon="6.46433">
        <ele>102.354311</ele>
        <time>2021-05-18T20:46:46.008Z</time>
      </trkpt>
      <trkpt lat="43.37226" lon="6.46454">
        <ele>103.045435</ele>
        <time>2021-05-18T20:46:56.528Z</time>
      </trkpt>
      <trkpt lat="43.37182" lon="6.46457">
        <ele>104.439063</ele>
        <time>2021-05-18T20:47:14.515Z</time>
      </trkpt>
      <trkpt lat="43.37171" lon="6.46456">
        <ele>104.774638</ele>
        <time>2021-05-18T20:47:19.196Z</time>
      </trkpt>
      <trkpt lat="43.37165" lon="6.46446">
        <ele>105.081223</ele>
        <time>2021-05-18T20:47:22.807Z</time>
      </trkpt>
      <trkpt lat="43.37158" lon="6.46438">
        <ele>105.370353</ele>
        <time>2021-05-18T20:47:26.426Z</time>
      </trkpt>
      <trkpt lat="43.37148" lon="6.46461">
        <ele>105.978444</ele>
        <time>2021-05-18T20:47:34.806Z</time>
      </trkpt>
      <trkpt lat="43.37134" lon="6.4649">
        <ele>106.799002</ele>
        <time>2021-05-18T20:47:45.371Z</time>
      </trkpt>
      <trkpt lat="43.3714" lon="6.46512">
        <ele>107.345804</ele>
        <time>2021-05-18T20:47:52.735Z</time>
      </trkpt>
      <trkpt lat="43.37147" lon="6.46528">
        <ele>107.762846</ele>
        <time>2021-05-18T20:47:58.186Z</time>
      </trkpt>
      <trkpt lat="43.37156" lon="6.46545">
        <ele>108.248505</ele>
        <time>2021-05-18T20:48:05.444Z</time>
      </trkpt>
      <trkpt lat="43.37167" lon="6.46669">
        <ele>112.373621</ele>
        <time>2021-05-18T20:48:47.758Z</time>
      </trkpt>
      <trkpt lat="43.37165" lon="6.4677">
        <ele>115.937202</ele>
        <time>2021-05-18T20:49:25.039Z</time>
      </trkpt>
      <trkpt lat="43.37086" lon="6.4687">
        <ele>121.90163</ele>
        <time>2021-05-18T20:50:21.016Z</time>
      </trkpt>
      <trkpt lat="43.37079" lon="6.46887">
        <ele>122.738662</ele>
        <time>2021-05-18T20:50:28.714Z</time>
      </trkpt>
      <trkpt lat="43.3709" lon="6.46933">
        <ele>124.830246</ele>
        <time>2021-05-18T20:50:47.969Z</time>
      </trkpt>
      <trkpt lat="43.37087" lon="6.46959">
        <ele>125.960125</ele>
        <time>2021-05-18T20:50:58.421Z</time>
      </trkpt>
      <trkpt lat="43.37014" lon="6.47072">
        <ele>132.071419</ele>
        <time>2021-05-18T20:51:57.997Z</time>
      </trkpt>
      <trkpt lat="43.37002" lon="6.47135">
        <ele>134.627734</ele>
        <time>2021-05-18T20:52:22.467Z</time>
      </trkpt>
      <trkpt lat="43.36971" lon="6.47228">
        <ele>138.130723</ele>
        <time>2021-05-18T20:52:58.876Z</time>
      </trkpt>
      <trkpt lat="43.3696" lon="6.47275">
        <ele>138.855478</ele>
        <time>2021-05-18T20:53:14.709Z</time>
      </trkpt>
      <trkpt lat="43.36974" lon="6.47322">
        <ele>139.596584</ele>
        <time>2021-05-18T20:53:29.460Z</time>
      </trkpt>
      <trkpt lat="43.36972" lon="6.47344">
        <ele>139.921326</ele>
        <time>2021-05-18T20:53:35.446Z</time>
      </trkpt>
      <trkpt lat="43.36965" lon="6.47366">
        <ele>140.280828</ele>
        <time>2021-05-18T20:53:41.923Z</time>
      </trkpt>
      <trkpt lat="43.3696" lon="6.47381">
        <ele>140.528396</ele>
        <time>2021-05-18T20:53:46.423Z</time>
      </trkpt>
      <trkpt lat="43.36956" lon="6.47406">
        <ele>140.90329</ele>
        <time>2021-05-18T20:53:52.204Z</time>
      </trkpt>
      <trkpt lat="43.36962" lon="6.4743">
        <ele>141.261479</ele>
        <time>2021-05-18T20:53:57.934Z</time>
      </trkpt>
      <trkpt lat="43.36986" lon="6.47445">
        <ele>140.648544</ele>
        <time>2021-05-18T20:54:05.615Z</time>
      </trkpt>
      <trkpt lat="43.3701" lon="6.47492">
        <ele>138.598603</ele>
        <time>2021-05-18T20:54:16.874Z</time>
      </trkpt>
      <trkpt lat="43.37014" lon="6.47518">
        <ele>137.640566</ele>
        <time>2021-05-18T20:54:21.114Z</time>
      </trkpt>
      <trkpt lat="43.37012" lon="6.47553">
        <ele>136.383555</ele>
        <time>2021-05-18T20:54:27.343Z</time>
      </trkpt>
      <trkpt lat="43.37027" lon="6.47575">
        <ele>135.285907</ele>
        <time>2021-05-18T20:54:32.015Z</time>
      </trkpt>
      <trkpt lat="43.37039" lon="6.47611">
        <ele>133.875655</ele>
        <time>2021-05-18T20:54:38.066Z</time>
      </trkpt>
      <trkpt lat="43.37043" lon="6.47637">
        <ele>132.896286</ele>
        <time>2021-05-18T20:54:42.483Z</time>
      </trkpt>
      <trkpt lat="43.3704" lon="6.47661">
        <ele>131.459792</ele>
        <time>2021-05-18T20:54:45.955Z</time>
      </trkpt>
      <trkpt lat="43.37029" lon="6.47691">
        <ele>128.855519</ele>
        <time>2021-05-18T20:54:51.307Z</time>
      </trkpt>
      <trkpt lat="43.37035" lon="6.47693">
        <ele>128.164219</ele>
        <time>2021-05-18T20:54:52.530Z</time>
      </trkpt>
      <trkpt lat="43.3706" lon="6.47695">
        <ele>125.476504</ele>
        <time>2021-05-18T20:54:57.962Z</time>
      </trkpt>
      <trkpt lat="43.3709" lon="6.47688">
        <ele>122.272523</ele>
        <time>2021-05-18T20:55:04.085Z</time>
      </trkpt>
      <trkpt lat="43.37105" lon="6.47704">
        <ele>120.221084</ele>
        <time>2021-05-18T20:55:07.937Z</time>
      </trkpt>
      <trkpt lat="43.37124" lon="6.47713">
        <ele>118.119485</ele>
        <time>2021-05-18T20:55:12.018Z</time>
      </trkpt>
      <trkpt lat="43.37197" lon="6.47739">
        <ele>110.171131</ele>
        <time>2021-05-18T20:55:26.885Z</time>
      </trkpt>
      <trkpt lat="43.37244" lon="6.47747">
        <ele>105.125037</ele>
        <time>2021-05-18T20:55:36.727Z</time>
      </trkpt>
      <trkpt lat="43.37273" lon="6.47756">
        <ele>101.994575</ele>
        <time>2021-05-18T20:55:42.811Z</time>
      </trkpt>
      <trkpt lat="43.37291" lon="6.47788">
        <ele>98.971243</ele>
        <time>2021-05-18T20:55:48.701Z</time>
      </trkpt>
      <trkpt lat="43.37354" lon="6.47805">
        <ele>93.127997</ele>
        <time>2021-05-18T20:56:02.155Z</time>
      </trkpt>
      <trkpt lat="43.37428" lon="6.47834">
        <ele>88.300289</ele>
        <time>2021-05-18T20:56:18.389Z</time>
      </trkpt>
      <trkpt lat="43.37506" lon="6.4779">
        <ele>83.314293</ele>
        <time>2021-05-18T20:56:38.196Z</time>
      </trkpt>
      <trkpt lat="43.37539" lon="6.47813">
        <ele>84.133558</ele>
        <time>2021-05-18T20:56:48.180Z</time>
      </trkpt>
      <trkpt lat="43.37608" lon="6.47808">
        <ele>85.641775</ele>
        <time>2021-05-18T20:57:12.848Z</time>
      </trkpt>
      <trkpt lat="43.37619" lon="6.4783">
        <ele>86.059994</ele>
        <time>2021-05-18T20:57:21.724Z</time>
      </trkpt>
      <trkpt lat="43.37626" lon="6.47864">
        <ele>86.62634</ele>
        <time>2021-05-18T20:57:34.815Z</time>
      </trkpt>
      <trkpt lat="43.37625" lon="6.47925">
        <ele>88.852808</ele>
        <time>2021-05-18T20:58:00.229Z</time>
      </trkpt>
      <trkpt lat="43.37632" lon="6.47976">
        <ele>92.143402</ele>
        <time>2021-05-18T20:58:24.083Z</time>
      </trkpt>
      <trkpt lat="43.37614" lon="6.48055">
        <ele>97.391444</ele>
        <time>2021-05-18T20:59:06.084Z</time>
      </trkpt>
      <trkpt lat="43.3763" lon="6.48154">
        <ele>103.794056</ele>
        <time>2021-05-18T20:59:55.955Z</time>
      </trkpt>
      <trkpt lat="43.37634" lon="6.48199">
        <ele>106.520768</ele>
        <time>2021-05-18T21:00:17.234Z</time>
      </trkpt>
      <trkpt lat="43.37628" lon="6.48221">
        <ele>107.925852</ele>
        <time>2021-05-18T21:00:28.022Z</time>
      </trkpt>
      <trkpt lat="43.37617" lon="6.48249">
        <ele>109.855448</ele>
        <time>2021-05-18T21:00:42.334Z</time>
      </trkpt>
      <trkpt lat="43.37608" lon="6.4825">
        <ele>110.641972</ele>
        <time>2021-05-18T21:00:48.224Z</time>
      </trkpt>
      <trkpt lat="43.37596" lon="6.48229">
        <ele>112.249484</ele>
        <time>2021-05-18T21:01:00.129Z</time>
      </trkpt>
      <trkpt lat="43.37586" lon="6.48229">
        <ele>113.083729</ele>
        <time>2021-05-18T21:01:06.319Z</time>
      </trkpt>
      <trkpt lat="43.37573" lon="6.4824">
        <ele>114.323953</ele>
        <time>2021-05-18T21:01:15.614Z</time>
      </trkpt>
      <trkpt lat="43.37567" lon="6.48271">
        <ele>116.290989</ele>
        <time>2021-05-18T21:01:30.537Z</time>
      </trkpt>
      <trkpt lat="43.37556" lon="6.48294">
        <ele>117.950493</ele>
        <time>2021-05-18T21:01:43.133Z</time>
      </trkpt>
      <trkpt lat="43.3756" lon="6.48354">
        <ele>121.3003</ele>
        <time>2021-05-18T21:02:08.889Z</time>
      </trkpt>
      <trkpt lat="43.37549" lon="6.48357">
        <ele>122.173016</ele>
        <time>2021-05-18T21:02:15.497Z</time>
      </trkpt>
      <trkpt lat="43.37502" lon="6.4834">
        <ele>125.92692</ele>
        <time>2021-05-18T21:02:44.640Z</time>
      </trkpt>
      <trkpt lat="43.37483" lon="6.48346">
        <ele>127.465835</ele>
        <time>2021-05-18T21:02:57.061Z</time>
      </trkpt>
      <trkpt lat="43.37429" lon="6.48395">
        <ele>132.249596</ele>
        <time>2021-05-18T21:03:37.008Z</time>
      </trkpt>
      <trkpt lat="43.37406" lon="6.48427">
        <ele>134.064508</ele>
        <time>2021-05-18T21:03:56.379Z</time>
      </trkpt>
      <trkpt lat="43.37369" lon="6.48452">
        <ele>136.398074</ele>
        <time>2021-05-18T21:04:19.925Z</time>
      </trkpt>
      <trkpt lat="43.37351" lon="6.48493">
        <ele>138.365908</ele>
        <time>2021-05-18T21:04:37.915Z</time>
      </trkpt>
      <trkpt lat="43.37351" lon="6.48511">
        <ele>139.086139</ele>
        <time>2021-05-18T21:04:44.150Z</time>
      </trkpt>
      <trkpt lat="43.37305" lon="6.48589">
        <ele>142.170602</ele>
        <time>2021-05-18T21:05:16.126Z</time>
      </trkpt>
      <trkpt lat="43.3727" lon="6.48607">
        <ele>142.799704</ele>
        <time>2021-05-18T21:05:30.368Z</time>
      </trkpt>
      <trkpt lat="43.3725" lon="6.48625">
        <ele>143.194397</ele>
        <time>2021-05-18T21:05:38.665Z</time>
      </trkpt>
      <trkpt lat="43.37243" lon="6.48649">
        <ele>143.505729</ele>
        <time>2021-05-18T21:05:45.152Z</time>
      </trkpt>
      <trkpt lat="43.37249" lon="6.48699">
        <ele>144.119488</ele>
        <time>2021-05-18T21:05:57.489Z</time>
      </trkpt>
      <trkpt lat="43.37233" lon="6.48761">
        <ele>144.760272</ele>
        <time>2021-05-18T21:06:12.940Z</time>
      </trkpt>
      <trkpt lat="43.37238" lon="6.48792">
        <ele>144.787146</ele>
        <time>2021-05-18T21:06:20.226Z</time>
      </trkpt>
      <trkpt lat="43.37227" lon="6.48843">
        <ele>144.832645</ele>
        <time>2021-05-18T21:06:32.199Z</time>
      </trkpt>
      <trkpt lat="43.37204" lon="6.48883">
        <ele>144.876419</ele>
        <time>2021-05-18T21:06:43.226Z</time>
      </trkpt>
      <trkpt lat="43.37179" lon="6.48909">
        <ele>144.913704</ele>
        <time>2021-05-18T21:06:52.353Z</time>
      </trkpt>
      <trkpt lat="43.37172" lon="6.4893">
        <ele>144.933239</ele>
        <time>2021-05-18T21:06:57.245Z</time>
      </trkpt>
      <trkpt lat="43.37168" lon="6.48973">
        <ele>144.960186</ele>
        <time>2021-05-18T21:07:06.623Z</time>
      </trkpt>
      <trkpt lat="43.37177" lon="6.49049">
        <ele>144.961684</ele>
        <time>2021-05-18T21:07:22.769Z</time>
      </trkpt>
      <trkpt lat="43.3717" lon="6.49073">
        <ele>144.962186</ele>
        <time>2021-05-18T21:07:28.311Z</time>
      </trkpt>
      <trkpt lat="43.37158" lon="6.49087">
        <ele>144.962593</ele>
        <time>2021-05-18T21:07:32.614Z</time>
      </trkpt>
      <trkpt lat="43.37143" lon="6.49164">
        <ele>144.964163</ele>
        <time>2021-05-18T21:07:49.959Z</time>
      </trkpt>
      <trkpt lat="43.37127" lon="6.49172">
        <ele>144.964628</ele>
        <time>2021-05-18T21:07:55.040Z</time>
      </trkpt>
      <trkpt lat="43.37122" lon="6.49181">
        <ele>145.016278</ele>
        <time>2021-05-18T21:07:57.496Z</time>
      </trkpt>
      <trkpt lat="43.37125" lon="6.49203">
        <ele>145.350026</ele>
        <time>2021-05-18T21:08:02.720Z</time>
      </trkpt>
      <trkpt lat="43.37112" lon="6.49223">
        <ele>145.747837</ele>
        <time>2021-05-18T21:08:08.976Z</time>
      </trkpt>
      <trkpt lat="43.37118" lon="6.4935">
        <ele>147.691715</ele>
        <time>2021-05-18T21:08:43.914Z</time>
      </trkpt>
      <trkpt lat="43.37125" lon="6.49381">
        <ele>148.188151</ele>
        <time>2021-05-18T21:08:53.650Z</time>
      </trkpt>
      <trkpt lat="43.37175" lon="6.49521">
        <ele>152.89455</ele>
        <time>2021-05-18T21:09:45.771Z</time>
      </trkpt>
      <trkpt lat="43.37184" lon="6.49588">
        <ele>155.270393</ele>
        <time>2021-05-18T21:10:10.806Z</time>
      </trkpt>
      <trkpt lat="43.37172" lon="6.49599">
        <ele>155.984201</ele>
        <time>2021-05-18T21:10:18.518Z</time>
      </trkpt>
      <trkpt lat="43.37153" lon="6.49682">
        <ele>159.476638</ele>
        <time>2021-05-18T21:10:52.379Z</time>
      </trkpt>
      <trkpt lat="43.37123" lon="6.49686">
        <ele>161.358312</ele>
        <time>2021-05-18T21:11:09.410Z</time>
      </trkpt>
      <trkpt lat="43.37106" lon="6.49697">
        <ele>162.521611</ele>
        <time>2021-05-18T21:11:20.107Z</time>
      </trkpt>
      <trkpt lat="43.37084" lon="6.49728">
        <ele>164.456654</ele>
        <time>2021-05-18T21:11:37.949Z</time>
      </trkpt>
      <trkpt lat="43.37051" lon="6.49748">
        <ele>166.650346</ele>
        <time>2021-05-18T21:11:57.807Z</time>
      </trkpt>
      <trkpt lat="43.37042" lon="6.49771">
        <ele>167.86947</ele>
        <time>2021-05-18T21:12:08.361Z</time>
      </trkpt>
      <trkpt lat="43.37038" lon="6.49828">
        <ele>169.340491</ele>
        <time>2021-05-18T21:12:29.414Z</time>
      </trkpt>
      <trkpt lat="43.37031" lon="6.4985">
        <ele>169.838877</ele>
        <time>2021-05-18T21:12:38.040Z</time>
      </trkpt>
      <trkpt lat="43.37014" lon="6.49868">
        <ele>170.429699</ele>
        <time>2021-05-18T21:12:48.048Z</time>
      </trkpt>
      <trkpt lat="43.3701" lon="6.499">
        <ele>171.094898</ele>
        <time>2021-05-18T21:12:58.762Z</time>
      </trkpt>
      <trkpt lat="43.36996" lon="6.49923">
        <ele>171.703857</ele>
        <time>2021-05-18T21:13:08.190Z</time>
      </trkpt>
      <trkpt lat="43.36943" lon="6.50107">
        <ele>171.116981</ele>
        <time>2021-05-18T21:13:49.742Z</time>
      </trkpt>
      <trkpt lat="43.36937" lon="6.50176">
        <ele>169.60681</ele>
        <time>2021-05-18T21:14:01.923Z</time>
      </trkpt>
      <trkpt lat="43.36925" lon="6.5019">
        <ele>169.119375</ele>
        <time>2021-05-18T21:14:05.578Z</time>
      </trkpt>
      <trkpt lat="43.36905" lon="6.50195">
        <ele>168.512394</ele>
        <time>2021-05-18T21:14:10.359Z</time>
      </trkpt>
      <trkpt lat="43.36902" lon="6.50203">
        <ele>168.333365</ele>
        <time>2021-05-18T21:14:11.665Z</time>
      </trkpt>
      <trkpt lat="43.36904" lon="6.50213">
        <ele>168.097952</ele>
        <time>2021-05-18T21:14:13.228Z</time>
      </trkpt>
      <trkpt lat="43.36911" lon="6.50225">
        <ele>167.276077</ele>
        <time>2021-05-18T21:14:15.914Z</time>
      </trkpt>
      <trkpt lat="43.36939" lon="6.5023">
        <ele>165.333322</ele>
        <time>2021-05-18T21:14:21.803Z</time>
      </trkpt>
      <trkpt lat="43.36945" lon="6.50243">
        <ele>164.542635</ele>
        <time>2021-05-18T21:14:24.331Z</time>
      </trkpt>
      <trkpt lat="43.36943" lon="6.50272">
        <ele>163.065261</ele>
        <time>2021-05-18T21:14:28.763Z</time>
      </trkpt>
      <trkpt lat="43.3696" lon="6.50285">
        <ele>161.707715</ele>
        <time>2021-05-18T21:14:33.044Z</time>
      </trkpt>
      <trkpt lat="43.36963" lon="6.50325">
        <ele>159.658929</ele>
        <time>2021-05-18T21:14:39.291Z</time>
      </trkpt>
      <trkpt lat="43.36982" lon="6.50399">
        <ele>155.653319</ele>
        <time>2021-05-18T21:14:51.749Z</time>
      </trkpt>
      <trkpt lat="43.36988" lon="6.50395">
        <ele>155.290879</ele>
        <time>2021-05-18T21:14:53.304Z</time>
      </trkpt>
      <trkpt lat="43.37007" lon="6.50395">
        <ele>154.477505</ele>
        <time>2021-05-18T21:14:57.591Z</time>
      </trkpt>
      <trkpt lat="43.37056" lon="6.50417">
        <ele>152.270168</ele>
        <time>2021-05-18T21:15:09.207Z</time>
      </trkpt>
      <trkpt lat="43.37122" lon="6.50427">
        <ele>149.397439</ele>
        <time>2021-05-18T21:15:25.027Z</time>
      </trkpt>
      <trkpt lat="43.37141" lon="6.50457">
        <ele>148.140862</ele>
        <time>2021-05-18T21:15:32.464Z</time>
      </trkpt>
      <trkpt lat="43.37192" lon="6.50447">
        <ele>146.799421</ele>
        <time>2021-05-18T21:15:46.087Z</time>
      </trkpt>
      <trkpt lat="43.3723" lon="6.5046">
        <ele>145.929933</ele>
        <time>2021-05-18T21:15:56.361Z</time>
      </trkpt>
      <trkpt lat="43.37238" lon="6.50463">
        <ele>145.746702</ele>
        <time>2021-05-18T21:15:58.491Z</time>
      </trkpt>
      <trkpt lat="43.37282" lon="6.50511">
        <ele>144.488839</ele>
        <time>2021-05-18T21:16:13.333Z</time>
      </trkpt>
      <trkpt lat="43.37302" lon="6.50525">
        <ele>143.999068</ele>
        <time>2021-05-18T21:16:18.891Z</time>
      </trkpt>
      <trkpt lat="43.37419" lon="6.50549">
        <ele>140.672834</ele>
        <time>2021-05-18T21:16:48.096Z</time>
      </trkpt>
      <trkpt lat="43.37448" lon="6.50546">
        <ele>139.845978</ele>
        <time>2021-05-18T21:16:55.172Z</time>
      </trkpt>
      <trkpt lat="43.37475" lon="6.50507">
        <ele>138.709441</ele>
        <time>2021-05-18T21:17:05.120Z</time>
      </trkpt>
      <trkpt lat="43.3749" lon="6.50494">
        <ele>138.553937</ele>
        <time>2021-05-18T21:17:09.469Z</time>
      </trkpt>
      <trkpt lat="43.37513" lon="6.50451">
        <ele>138.451285</ele>
        <time>2021-05-18T21:17:19.851Z</time>
      </trkpt>
      <trkpt lat="43.37523" lon="6.50423">
        <ele>138.393352</ele>
        <time>2021-05-18T21:17:25.911Z</time>
      </trkpt>
      <trkpt lat="43.37551" lon="6.50405">
        <ele>138.311446</ele>
        <time>2021-05-18T21:17:34.800Z</time>
      </trkpt>
      <trkpt lat="43.37627" lon="6.50385">
        <ele>138.204494</ele>
        <time>2021-05-18T21:18:01.569Z</time>
      </trkpt>
      <trkpt lat="43.37642" lon="6.50378">
        <ele>138.664535</ele>
        <time>2021-05-18T21:18:07.748Z</time>
      </trkpt>
      <trkpt lat="43.37661" lon="6.50358">
        <ele>139.377883</ele>
        <time>2021-05-18T21:18:17.369Z</time>
      </trkpt>
      <trkpt lat="43.37682" lon="6.50348">
        <ele>140.037725</ele>
        <time>2021-05-18T21:18:26.644Z</time>
      </trkpt>
      <trkpt lat="43.37721" lon="6.5035">
        <ele>141.185813</ele>
        <time>2021-05-18T21:18:43.444Z</time>
      </trkpt>
      <trkpt lat="43.37749" lon="6.50339">
        <ele>142.043891</ele>
        <time>2021-05-18T21:18:56.270Z</time>
      </trkpt>
      <trkpt lat="43.37774" lon="6.50338">
        <ele>142.79231</ele>
        <time>2021-05-18T21:19:07.420Z</time>
      </trkpt>
      <trkpt lat="43.3779" lon="6.50328">
        <ele>143.325402</ele>
        <time>2021-05-18T21:19:15.277Z</time>
      </trkpt>
      <trkpt lat="43.37822" lon="6.50324">
        <ele>144.058149</ele>
        <time>2021-05-18T21:19:28.992Z</time>
      </trkpt>
      <trkpt lat="43.37883" lon="6.50372">
        <ele>145.591308</ele>
        <time>2021-05-18T21:19:57.382Z</time>
      </trkpt>
      <trkpt lat="43.37892" lon="6.50392">
        <ele>145.967321</ele>
        <time>2021-05-18T21:20:03.792Z</time>
      </trkpt>
      <trkpt lat="43.37899" lon="6.50473">
        <ele>147.26518</ele>
        <time>2021-05-18T21:20:24.737Z</time>
      </trkpt>
      <trkpt lat="43.37895" lon="6.50519">
        <ele>147.162899</ele>
        <time>2021-05-18T21:20:35.859Z</time>
      </trkpt>
      <trkpt lat="43.37884" lon="6.50547">
        <ele>146.979489</ele>
        <time>2021-05-18T21:20:43.004Z</time>
      </trkpt>
      <trkpt lat="43.37889" lon="6.50578">
        <ele>146.795796</ele>
        <time>2021-05-18T21:20:49.654Z</time>
      </trkpt>
      <trkpt lat="43.37883" lon="6.50611">
        <ele>146.605214</ele>
        <time>2021-05-18T21:20:56.472Z</time>
      </trkpt>
      <trkpt lat="43.3786" lon="6.50686">
        <ele>146.133217</ele>
        <time>2021-05-18T21:21:12.357Z</time>
      </trkpt>
      <trkpt lat="43.37853" lon="6.50748">
        <ele>145.36291</ele>
        <time>2021-05-18T21:21:23.920Z</time>
      </trkpt>
      <trkpt lat="43.37848" lon="6.50763">
        <ele>145.071371</ele>
        <time>2021-05-18T21:21:26.800Z</time>
      </trkpt>
      <trkpt lat="43.37826" lon="6.50787">
        <ele>144.363616</ele>
        <time>2021-05-18T21:21:33.951Z</time>
      </trkpt>
      <trkpt lat="43.37831" lon="6.5083">
        <ele>143.578468</ele>
        <time>2021-05-18T21:21:41.849Z</time>
      </trkpt>
      <trkpt lat="43.37825" lon="6.50852">
        <ele>143.151192</ele>
        <time>2021-05-18T21:21:46.149Z</time>
      </trkpt>
      <trkpt lat="43.3781" lon="6.50869">
        <ele>142.66418</ele>
        <time>2021-05-18T21:21:51.178Z</time>
      </trkpt>
      <trkpt lat="43.37786" lon="6.50886">
        <ele>141.978996</ele>
        <time>2021-05-18T21:21:58.150Z</time>
      </trkpt>
      <trkpt lat="43.37781" lon="6.50899">
        <ele>141.709396</ele>
        <time>2021-05-18T21:22:00.920Z</time>
      </trkpt>
      <trkpt lat="43.37786" lon="6.50942">
        <ele>141.16817</ele>
        <time>2021-05-18T21:22:08.922Z</time>
      </trkpt>
      <trkpt lat="43.37776" lon="6.5096">
        <ele>140.933252</ele>
        <time>2021-05-18T21:22:13.173Z</time>
      </trkpt>
      <trkpt lat="43.37756" lon="6.50974">
        <ele>140.605992</ele>
        <time>2021-05-18T21:22:19.196Z</time>
      </trkpt>
      <trkpt lat="43.37753" lon="6.50984">
        <ele>140.498014</ele>
        <time>2021-05-18T21:22:21.186Z</time>
      </trkpt>
      <trkpt lat="43.37757" lon="6.51021">
        <ele>140.104587</ele>
        <time>2021-05-18T21:22:28.601Z</time>
      </trkpt>
      <trkpt lat="43.37748" lon="6.51035">
        <ele>139.91042</ele>
        <time>2021-05-18T21:22:32.308Z</time>
      </trkpt>
      <trkpt lat="43.37653" lon="6.51047">
        <ele>138.67538</ele>
        <time>2021-05-18T21:22:59.367Z</time>
      </trkpt>
      <trkpt lat="43.37642" lon="6.51054">
        <ele>138.560512</ele>
        <time>2021-05-18T21:23:02.829Z</time>
      </trkpt>
      <trkpt lat="43.37639" lon="6.51065">
        <ele>138.48512</ele>
        <time>2021-05-18T21:23:05.139Z</time>
      </trkpt>
      <trkpt lat="43.37696" lon="6.51079">
        <ele>137.947372</ele>
        <time>2021-05-18T21:23:20.291Z</time>
      </trkpt>
      <trkpt lat="43.3771" lon="6.51088">
        <ele>137.802832</ele>
        <time>2021-05-18T21:23:25.230Z</time>
      </trkpt>
      <trkpt lat="43.37724" lon="6.51107">
        <ele>137.616351</ele>
        <time>2021-05-18T21:23:30.385Z</time>
      </trkpt>
      <trkpt lat="43.37725" lon="6.5114">
        <ele>137.394725</ele>
        <time>2021-05-18T21:23:37.816Z</time>
      </trkpt>
      <trkpt lat="43.37721" lon="6.51153">
        <ele>137.298621</ele>
        <time>2021-05-18T21:23:40.404Z</time>
      </trkpt>
      <trkpt lat="43.37738" lon="6.51187">
        <ele>137.275339</ele>
        <time>2021-05-18T21:23:49.501Z</time>
      </trkpt>
      <trkpt lat="43.37744" lon="6.51197">
        <ele>137.288918</ele>
        <time>2021-05-18T21:23:51.748Z</time>
      </trkpt>
      <trkpt lat="43.37741" lon="6.51201">
        <ele>137.29491</ele>
        <time>2021-05-18T21:23:53.303Z</time>
      </trkpt>
      <trkpt lat="43.37706" lon="6.51256">
        <ele>137.370932</ele>
        <time>2021-05-18T21:24:02.728Z</time>
      </trkpt>
      <trkpt lat="43.37702" lon="6.51289">
        <ele>137.405743</ele>
        <time>2021-05-18T21:24:06.933Z</time>
      </trkpt>
      <trkpt lat="43.37679" lon="6.51337">
        <ele>137.465105</ele>
        <time>2021-05-18T21:24:14.987Z</time>
      </trkpt>
      <trkpt lat="43.37682" lon="6.51396">
        <ele>137.836785</ele>
        <time>2021-05-18T21:24:24.316Z</time>
      </trkpt>
      <trkpt lat="43.37669" lon="6.51442">
        <ele>138.471855</ele>
        <time>2021-05-18T21:24:32.989Z</time>
      </trkpt>
      <trkpt lat="43.37676" lon="6.51489">
        <ele>139.086933</ele>
        <time>2021-05-18T21:24:41.468Z</time>
      </trkpt>
      <trkpt lat="43.37627" lon="6.51522">
        <ele>140.05909</ele>
        <time>2021-05-18T21:24:55.267Z</time>
      </trkpt>
      <trkpt lat="43.37615" lon="6.51544">
        <ele>140.413645</ele>
        <time>2021-05-18T21:25:00.622Z</time>
      </trkpt>
      <trkpt lat="43.37594" lon="6.5162">
        <ele>142.299781</ele>
        <time>2021-05-18T21:25:17.599Z</time>
      </trkpt>
      <trkpt lat="43.37601" lon="6.51667">
        <ele>143.597587</ele>
        <time>2021-05-18T21:25:28.327Z</time>
      </trkpt>
      <trkpt lat="43.376" lon="6.51699">
        <ele>144.448083</ele>
        <time>2021-05-18T21:25:35.631Z</time>
      </trkpt>
      <trkpt lat="43.37545" lon="6.51887">
        <ele>150.877283</ele>
        <time>2021-05-18T21:26:29.644Z</time>
      </trkpt>
      <trkpt lat="43.37545" lon="6.51905">
        <ele>151.540984</ele>
        <time>2021-05-18T21:26:34.220Z</time>
      </trkpt>
      <trkpt lat="43.37558" lon="6.51937">
        <ele>152.862569</ele>
        <time>2021-05-18T21:26:44.656Z</time>
      </trkpt>
      <trkpt lat="43.3755" lon="6.51956">
        <ele>153.659689</ele>
        <time>2021-05-18T21:26:50.247Z</time>
      </trkpt>
      <trkpt lat="43.37544" lon="6.51957">
        <ele>154.001702</ele>
        <time>2021-05-18T21:26:54.643Z</time>
      </trkpt>
      <trkpt lat="43.37536" lon="6.51954">
        <ele>154.409395</ele>
        <time>2021-05-18T21:26:56.720Z</time>
      </trkpt>
      <trkpt lat="43.37509" lon="6.51929">
        <ele>156.039442</ele>
        <time>2021-05-18T21:27:09.754Z</time>
      </trkpt>
      <trkpt lat="43.37488" lon="6.51933">
        <ele>157.233236</ele>
        <time>2021-05-18T21:27:17.247Z</time>
      </trkpt>
      <trkpt lat="43.37465" lon="6.51965">
        <ele>159.146726</ele>
        <time>2021-05-18T21:27:30.659Z</time>
      </trkpt>
      <trkpt lat="43.37448" lon="6.51999">
        <ele>160.920988</ele>
        <time>2021-05-18T21:27:43.403Z</time>
      </trkpt>
      <trkpt lat="43.37436" lon="6.52032">
        <ele>162.494363</ele>
        <time>2021-05-18T21:27:55.148Z</time>
      </trkpt>
      <trkpt lat="43.37425" lon="6.52083">
        <ele>164.783015</ele>
        <time>2021-05-18T21:28:10.674Z</time>
      </trkpt>
      <trkpt lat="43.37437" lon="6.52156">
        <ele>167.924058</ele>
        <time>2021-05-18T21:28:33.742Z</time>
      </trkpt>
      <trkpt lat="43.37431" lon="6.52176">
        <ele>168.815002</ele>
        <time>2021-05-18T21:28:40.602Z</time>
      </trkpt>
      <trkpt lat="43.37412" lon="6.52182">
        <ele>169.903554</ele>
        <time>2021-05-18T21:28:48.967Z</time>
      </trkpt>
      <trkpt lat="43.37381" lon="6.52168">
        <ele>171.705214</ele>
        <time>2021-05-18T21:29:02.288Z</time>
      </trkpt>
      <trkpt lat="43.3736" lon="6.52176">
        <ele>172.933915</ele>
        <time>2021-05-18T21:29:11.200Z</time>
      </trkpt>
      <trkpt lat="43.37328" lon="6.52202">
        <ele>174.962724</ele>
        <time>2021-05-18T21:29:25.643Z</time>
      </trkpt>
      <trkpt lat="43.37275" lon="6.52196">
        <ele>177.814193</ele>
        <time>2021-05-18T21:29:45.661Z</time>
      </trkpt>
      <trkpt lat="43.37253" lon="6.52199">
        <ele>178.875386</ele>
        <time>2021-05-18T21:29:53.623Z</time>
      </trkpt>
      <trkpt lat="43.37236" lon="6.5222">
        <ele>180.001351</ele>
        <time>2021-05-18T21:30:02.117Z</time>
      </trkpt>
      <trkpt lat="43.37229" lon="6.52293">
        <ele>182.549653</ele>
        <time>2021-05-18T21:30:21.249Z</time>
      </trkpt>
      <trkpt lat="43.37234" lon="6.52387">
        <ele>185.856373</ele>
        <time>2021-05-18T21:30:46.471Z</time>
      </trkpt>
      <trkpt lat="43.37231" lon="6.52439">
        <ele>187.960181</ele>
        <time>2021-05-18T21:31:01.252Z</time>
      </trkpt>
      <trkpt lat="43.37246" lon="6.52516">
        <ele>191.144907</ele>
        <time>2021-05-18T21:31:24.467Z</time>
      </trkpt>
      <trkpt lat="43.37244" lon="6.5257">
        <ele>193.311177</ele>
        <time>2021-05-18T21:31:40.603Z</time>
      </trkpt>
      <trkpt lat="43.37236" lon="6.52626">
        <ele>195.574697</ele>
        <time>2021-05-18T21:31:57.339Z</time>
      </trkpt>
      <trkpt lat="43.37195" lon="6.52741">
        <ele>199.427909</ele>
        <time>2021-05-18T21:32:36.315Z</time>
      </trkpt>
      <trkpt lat="43.37179" lon="6.52807">
        <ele>201.469257</ele>
        <time>2021-05-18T21:32:51.734Z</time>
      </trkpt>
      <trkpt lat="43.37173" lon="6.52821">
        <ele>201.949293</ele>
        <time>2021-05-18T21:32:56.092Z</time>
      </trkpt>
      <trkpt lat="43.37176" lon="6.52857">
        <ele>203.008225</ele>
        <time>2021-05-18T21:33:01.590Z</time>
      </trkpt>
      <trkpt lat="43.37178" lon="6.52896">
        <ele>202.494581</ele>
        <time>2021-05-18T21:33:07.507Z</time>
      </trkpt>
      <trkpt lat="43.37173" lon="6.52934">
        <ele>201.995167</ele>
        <time>2021-05-18T21:33:12.478Z</time>
      </trkpt>
      <trkpt lat="43.37184" lon="6.52981">
        <ele>201.361489</ele>
        <time>2021-05-18T21:33:17.940Z</time>
      </trkpt>
      <trkpt lat="43.37179" lon="6.52997">
        <ele>201.133831</ele>
        <time>2021-05-18T21:33:19.704Z</time>
      </trkpt>
      <trkpt lat="43.37146" lon="6.53022">
        <ele>200.474082</ele>
        <time>2021-05-18T21:33:24.907Z</time>
      </trkpt>
      <trkpt lat="43.37143" lon="6.53045">
        <ele>200.169521</ele>
        <time>2021-05-18T21:33:27.121Z</time>
      </trkpt>
      <trkpt lat="43.37185" lon="6.53124">
        <ele>197.820668</ele>
        <time>2021-05-18T21:33:36.328Z</time>
      </trkpt>
      <trkpt lat="43.37197" lon="6.53166">
        <ele>196.561337</ele>
        <time>2021-05-18T21:33:40.567Z</time>
      </trkpt>
      <trkpt lat="43.37194" lon="6.53186">
        <ele>195.999839</ele>
        <time>2021-05-18T21:33:42.488Z</time>
      </trkpt>
      <trkpt lat="43.37184" lon="6.53203">
        <ele>195.392151</ele>
        <time>2021-05-18T21:33:44.573Z</time>
      </trkpt>
      <trkpt lat="43.3714" lon="6.53223">
        <ele>193.622646</ele>
        <time>2021-05-18T21:33:50.736Z</time>
      </trkpt>
      <trkpt lat="43.37137" lon="6.53238">
        <ele>193.19228</ele>
        <time>2021-05-18T21:33:52.333Z</time>
      </trkpt>
      <trkpt lat="43.37141" lon="6.53254">
        <ele>192.807325</ele>
        <time>2021-05-18T21:33:54.093Z</time>
      </trkpt>
      <trkpt lat="43.3716" lon="6.5327">
        <ele>192.404998</ele>
        <time>2021-05-18T21:33:57.142Z</time>
      </trkpt>
      <trkpt lat="43.37166" lon="6.53275">
        <ele>192.26686</ele>
        <time>2021-05-18T21:33:58.316Z</time>
      </trkpt>
      <trkpt lat="43.37182" lon="6.53289">
        <ele>191.918193</ele>
        <time>2021-05-18T21:34:00.945Z</time>
      </trkpt>
      <trkpt lat="43.37197" lon="6.53308">
        <ele>191.540667</ele>
        <time>2021-05-18T21:34:04.095Z</time>
      </trkpt>
      <trkpt lat="43.37207" lon="6.53332">
        <ele>191.165314</ele>
        <time>2021-05-18T21:34:07.045Z</time>
      </trkpt>
      <trkpt lat="43.37209" lon="6.53391">
        <ele>190.376656</ele>
        <time>2021-05-18T21:34:13.688Z</time>
      </trkpt>
      <trkpt lat="43.37221" lon="6.53437">
        <ele>189.718453</ele>
        <time>2021-05-18T21:34:19.305Z</time>
      </trkpt>
      <trkpt lat="43.37237" lon="6.53542">
        <ele>188.187132</ele>
        <time>2021-05-18T21:34:31.467Z</time>
      </trkpt>
      <trkpt lat="43.37235" lon="6.53589">
        <ele>187.508955</ele>
        <time>2021-05-18T21:34:36.704Z</time>
      </trkpt>
      <trkpt lat="43.37225" lon="6.53654">
        <ele>186.553105</ele>
        <time>2021-05-18T21:34:43.667Z</time>
      </trkpt>
      <trkpt lat="43.37243" lon="6.53676">
        <ele>186.074689</ele>
        <time>2021-05-18T21:34:46.970Z</time>
      </trkpt>
      <trkpt lat="43.37316" lon="6.53723">
        <ele>183.598697</ele>
        <time>2021-05-18T21:34:57.839Z</time>
      </trkpt>
      <trkpt lat="43.37327" lon="6.5375">
        <ele>182.894244</ele>
        <time>2021-05-18T21:35:01.019Z</time>
      </trkpt>
      <trkpt lat="43.37332" lon="6.53776">
        <ele>182.295486</ele>
        <time>2021-05-18T21:35:03.563Z</time>
      </trkpt>
      <trkpt lat="43.37328" lon="6.53794">
        <ele>181.877276</ele>
        <time>2021-05-18T21:35:05.506Z</time>
      </trkpt>
      <trkpt lat="43.3732" lon="6.53807">
        <ele>181.490052</ele>
        <time>2021-05-18T21:35:07.169Z</time>
      </trkpt>
      <trkpt lat="43.37314" lon="6.53811">
        <ele>181.264637</ele>
        <time>2021-05-18T21:35:08.127Z</time>
      </trkpt>
      <trkpt lat="43.37306" lon="6.53815">
        <ele>181.015628</ele>
        <time>2021-05-18T21:35:09.285Z</time>
      </trkpt>
      <trkpt lat="43.3726" lon="6.5383">
        <ele>179.721276</ele>
        <time>2021-05-18T21:35:15.995Z</time>
      </trkpt>
      <trkpt lat="43.37224" lon="6.53851">
        <ele>178.765943</ele>
        <time>2021-05-18T21:35:21.463Z</time>
      </trkpt>
      <trkpt lat="43.37173" lon="6.53864">
        <ele>177.513193</ele>
        <time>2021-05-18T21:35:28.866Z</time>
      </trkpt>
      <trkpt lat="43.37125" lon="6.54018">
        <ele>174.851461</ele>
        <time>2021-05-18T21:35:46.717Z</time>
      </trkpt>
      <trkpt lat="43.37103" lon="6.54052">
        <ele>174.221133</ele>
        <time>2021-05-18T21:35:51.273Z</time>
      </trkpt>
      <trkpt lat="43.37093" lon="6.54063">
        <ele>173.977391</ele>
        <time>2021-05-18T21:35:52.912Z</time>
      </trkpt>
      <trkpt lat="43.37026" lon="6.54068">
        <ele>172.670436</ele>
        <time>2021-05-18T21:36:02.927Z</time>
      </trkpt>
      <trkpt lat="43.37003" lon="6.54098">
        <ele>173.243114</ele>
        <time>2021-05-18T21:36:08.161Z</time>
      </trkpt>
      <trkpt lat="43.36995" lon="6.54118">
        <ele>173.692076</ele>
        <time>2021-05-18T21:36:11.330Z</time>
      </trkpt>
      <trkpt lat="43.3698" lon="6.54133">
        <ele>174.207015</ele>
        <time>2021-05-18T21:36:16.532Z</time>
      </trkpt>
      <trkpt lat="43.3697" lon="6.54139">
        <ele>174.493311</ele>
        <time>2021-05-18T21:36:19.640Z</time>
      </trkpt>
      <trkpt lat="43.36957" lon="6.54139">
        <ele>174.855453</ele>
        <time>2021-05-18T21:36:23.622Z</time>
      </trkpt>
      <trkpt lat="43.36933" lon="6.54138">
        <ele>175.525701</ele>
        <time>2021-05-18T21:36:31.708Z</time>
      </trkpt>
      <trkpt lat="43.36908" lon="6.54146">
        <ele>176.204686</ele>
        <time>2021-05-18T21:36:40.115Z</time>
      </trkpt>
      <trkpt lat="43.36896" lon="6.54145">
        <ele>176.537353</ele>
        <time>2021-05-18T21:36:44.647Z</time>
      </trkpt>
      <trkpt lat="43.3688" lon="6.54134">
        <ele>177.010242</ele>
        <time>2021-05-18T21:36:50.326Z</time>
      </trkpt>
      <trkpt lat="43.3687" lon="6.54129">
        <ele>177.312789</ele>
        <time>2021-05-18T21:36:55.555Z</time>
      </trkpt>
      <trkpt lat="43.36863" lon="6.54132">
        <ele>177.549708</ele>
        <time>2021-05-18T21:36:58.073Z</time>
      </trkpt>
      <trkpt lat="43.36857" lon="6.54132">
        <ele>177.869299</ele>
        <time>2021-05-18T21:37:00.161Z</time>
      </trkpt>
      <trkpt lat="43.36847" lon="6.54143">
        <ele>178.575243</ele>
        <time>2021-05-18T21:37:05.086Z</time>
      </trkpt>
      <trkpt lat="43.36847" lon="6.54156">
        <ele>179.054703</ele>
        <time>2021-05-18T21:37:09.878Z</time>
      </trkpt>
      <trkpt lat="43.3685" lon="6.54173">
        <ele>179.730136</ele>
        <time>2021-05-18T21:37:14.842Z</time>
      </trkpt>
      <trkpt lat="43.36902" lon="6.54261">
        <ele>184.054352</ele>
        <time>2021-05-18T21:37:48.233Z</time>
      </trkpt>
      <trkpt lat="43.36937" lon="6.54303">
        <ele>186.455644</ele>
        <time>2021-05-18T21:38:07.473Z</time>
      </trkpt>
      <trkpt lat="43.36945" lon="6.54332">
        <ele>187.407328</ele>
        <time>2021-05-18T21:38:14.667Z</time>
      </trkpt>
      <trkpt lat="43.36953" lon="6.54336">
        <ele>187.723637</ele>
        <time>2021-05-18T21:38:17.092Z</time>
      </trkpt>
      <trkpt lat="43.37011" lon="6.54337">
        <ele>189.867754</ele>
        <time>2021-05-18T21:38:34.027Z</time>
      </trkpt>
      <trkpt lat="43.37088" lon="6.54375">
        <ele>192.877965</ele>
        <time>2021-05-18T21:38:59.935Z</time>
      </trkpt>
      <trkpt lat="43.371" lon="6.54389">
        <ele>193.440994</ele>
        <time>2021-05-18T21:39:04.975Z</time>
      </trkpt>
      <trkpt lat="43.37105" lon="6.5442">
        <ele>194.556738</ele>
        <time>2021-05-18T21:39:13.290Z</time>
      </trkpt>
      <trkpt lat="43.37103" lon="6.54439">
        <ele>195.218848</ele>
        <time>2021-05-18T21:39:18.282Z</time>
      </trkpt>
      <trkpt lat="43.37096" lon="6.54455">
        <ele>195.835176</ele>
        <time>2021-05-18T21:39:23.186Z</time>
      </trkpt>
      <trkpt lat="43.37039" lon="6.54498">
        <ele>198.916185</ele>
        <time>2021-05-18T21:39:48.315Z</time>
      </trkpt>
      <trkpt lat="43.37035" lon="6.54516">
        <ele>199.573331</ele>
        <time>2021-05-18T21:39:53.718Z</time>
      </trkpt>
      <trkpt lat="43.37077" lon="6.54559">
        <ele>202.003063</ele>
        <time>2021-05-18T21:40:13.096Z</time>
      </trkpt>
      <trkpt lat="43.37084" lon="6.5458">
        <ele>202.416598</ele>
        <time>2021-05-18T21:40:19.193Z</time>
      </trkpt>
      <trkpt lat="43.3708" lon="6.54652">
        <ele>203.731152</ele>
        <time>2021-05-18T21:40:37.603Z</time>
      </trkpt>
      <trkpt lat="43.37084" lon="6.54684">
        <ele>204.314606</ele>
        <time>2021-05-18T21:40:45.076Z</time>
      </trkpt>
      <trkpt lat="43.37076" lon="6.54804">
        <ele>206.443639</ele>
        <time>2021-05-18T21:41:04.316Z</time>
      </trkpt>
      <trkpt lat="43.37115" lon="6.54844">
        <ele>206.083403</ele>
        <time>2021-05-18T21:41:12.071Z</time>
      </trkpt>
      <trkpt lat="43.3712" lon="6.54875">
        <ele>205.904913</ele>
        <time>2021-05-18T21:41:15.732Z</time>
      </trkpt>
      <trkpt lat="43.37119" lon="6.54887">
        <ele>205.840655</ele>
        <time>2021-05-18T21:41:16.976Z</time>
      </trkpt>
      <trkpt lat="43.37115" lon="6.54907">
        <ele>205.729085</ele>
        <time>2021-05-18T21:41:19.420Z</time>
      </trkpt>
      <trkpt lat="43.37113" lon="6.54913">
        <ele>205.691583</ele>
        <time>2021-05-18T21:41:20.154Z</time>
      </trkpt>
      <trkpt lat="43.37111" lon="6.54925">
        <ele>205.624746</ele>
        <time>2021-05-18T21:41:21.372Z</time>
      </trkpt>
      <trkpt lat="43.37095" lon="6.54996">
        <ele>205.220234</ele>
        <time>2021-05-18T21:41:29.963Z</time>
      </trkpt>
      <trkpt lat="43.37083" lon="6.55004">
        <ele>205.123593</ele>
        <time>2021-05-18T21:41:31.880Z</time>
      </trkpt>
      <trkpt lat="43.37053" lon="6.55007">
        <ele>205.770289</ele>
        <time>2021-05-18T21:41:37.197Z</time>
      </trkpt>
      <trkpt lat="43.3703" lon="6.55022">
        <ele>206.359412</ele>
        <time>2021-05-18T21:41:41.987Z</time>
      </trkpt>
      <trkpt lat="43.37" lon="6.55057">
        <ele>207.29682</ele>
        <time>2021-05-18T21:41:52.338Z</time>
      </trkpt>
      <trkpt lat="43.36989" lon="6.55059">
        <ele>207.55692</ele>
        <time>2021-05-18T21:41:55.419Z</time>
      </trkpt>
      <trkpt lat="43.36977" lon="6.55058">
        <ele>207.851177</ele>
        <time>2021-05-18T21:41:58.769Z</time>
      </trkpt>
      <trkpt lat="43.3698" lon="6.55043">
        <ele>208.115662</ele>
        <time>2021-05-18T21:42:03.729Z</time>
      </trkpt>
      <trkpt lat="43.36979" lon="6.55033">
        <ele>208.295458</ele>
        <time>2021-05-18T21:42:06.442Z</time>
      </trkpt>
      <trkpt lat="43.36961" lon="6.55012">
        <ele>208.846572</ele>
        <time>2021-05-18T21:42:14.515Z</time>
      </trkpt>
      <trkpt lat="43.36932" lon="6.55">
        <ele>209.799344</ele>
        <time>2021-05-18T21:42:25.513Z</time>
      </trkpt>
      <trkpt lat="43.36916" lon="6.54992">
        <ele>210.651347</ele>
        <time>2021-05-18T21:42:33.168Z</time>
      </trkpt>
      <trkpt lat="43.3691" lon="6.54991">
        <ele>210.943336</ele>
        <time>2021-05-18T21:42:35.648Z</time>
      </trkpt>
      <trkpt lat="43.36907" lon="6.5499">
        <ele>211.074648</ele>
        <time>2021-05-18T21:42:36.891Z</time>
      </trkpt>
      <trkpt lat="43.36907" lon="6.5499">
        <ele>211.074648</ele>
        <time>2021-05-18T21:42:36.928Z</time>
      </trkpt>
      <trkpt lat="43.36872" lon="6.54984">
        <ele>212.883936</ele>
        <time>2021-05-18T21:42:55.407Z</time>
      </trkpt>
      <trkpt lat="43.3686" lon="6.54983">
        <ele>213.479439</ele>
        <time>2021-05-18T21:43:01.044Z</time>
      </trkpt>
      <trkpt lat="43.36848" lon="6.54972">
        <ele>214.166019</ele>
        <time>2021-05-18T21:43:09.346Z</time>
      </trkpt>
      <trkpt lat="43.36821" lon="6.54964">
        <ele>215.566835</ele>
        <time>2021-05-18T21:43:22.742Z</time>
      </trkpt>
      <trkpt lat="43.36793" lon="6.54942">
        <ele>217.196601</ele>
        <time>2021-05-18T21:43:38.724Z</time>
      </trkpt>
      <trkpt lat="43.36776" lon="6.54943">
        <ele>218.035766</ele>
        <time>2021-05-18T21:43:47.637Z</time>
      </trkpt>
      <trkpt lat="43.36731" lon="6.54987">
        <ele>220.475567</ele>
        <time>2021-05-18T21:44:13.156Z</time>
      </trkpt>
      <trkpt lat="43.36643" lon="6.55">
        <ele>224.261767</ele>
        <time>2021-05-18T21:44:52.838Z</time>
      </trkpt>
      <trkpt lat="43.3661" lon="6.5504">
        <ele>226.164659</ele>
        <time>2021-05-18T21:45:13.185Z</time>
      </trkpt>
      <trkpt lat="43.3658" lon="6.55104">
        <ele>229.581916</ele>
        <time>2021-05-18T21:45:42.176Z</time>
      </trkpt>
      <trkpt lat="43.36548" lon="6.55152">
        <ele>232.492828</ele>
        <time>2021-05-18T21:46:07.665Z</time>
      </trkpt>
      <trkpt lat="43.36514" lon="6.55141">
        <ele>234.65203</ele>
        <time>2021-05-18T21:46:27.645Z</time>
      </trkpt>
      <trkpt lat="43.36505" lon="6.55145">
        <ele>235.220375</ele>
        <time>2021-05-18T21:46:34.093Z</time>
      </trkpt>
      <trkpt lat="43.36486" lon="6.55173">
        <ele>236.935924</ele>
        <time>2021-05-18T21:46:48.896Z</time>
      </trkpt>
      <trkpt lat="43.36481" lon="6.55174">
        <ele>237.227952</ele>
        <time>2021-05-18T21:46:52.837Z</time>
      </trkpt>
      <trkpt lat="43.36474" lon="6.55187">
        <ele>238.033607</ele>
        <time>2021-05-18T21:46:59.971Z</time>
      </trkpt>
      <trkpt lat="43.36466" lon="6.55207">
        <ele>239.148903</ele>
        <time>2021-05-18T21:47:08.322Z</time>
      </trkpt>
      <trkpt lat="43.36463" lon="6.5524">
        <ele>240.75605</ele>
        <time>2021-05-18T21:47:23.078Z</time>
      </trkpt>
      <trkpt lat="43.36488" lon="6.55236">
        <ele>242.465882</ele>
        <time>2021-05-18T21:47:38.082Z</time>
      </trkpt>
      <trkpt lat="43.36492" lon="6.55242">
        <ele>242.801729</ele>
        <time>2021-05-18T21:47:41.095Z</time>
      </trkpt>
      <trkpt lat="43.36483" lon="6.55258">
        <ele>243.784939</ele>
        <time>2021-05-18T21:47:48.657Z</time>
      </trkpt>
      <trkpt lat="43.36471" lon="6.55306">
        <ele>246.27823</ele>
        <time>2021-05-18T21:48:10.368Z</time>
      </trkpt>
      <trkpt lat="43.36487" lon="6.55477">
        <ele>254.060338</ele>
        <time>2021-05-18T21:49:17.147Z</time>
      </trkpt>
      <trkpt lat="43.36474" lon="6.55543">
        <ele>257.039152</ele>
        <time>2021-05-18T21:49:44.632Z</time>
      </trkpt>
      <trkpt lat="43.36474" lon="6.55572">
        <ele>258.314681</ele>
        <time>2021-05-18T21:49:55.534Z</time>
      </trkpt>
      <trkpt lat="43.36469" lon="6.55574">
        <ele>258.620082</ele>
        <time>2021-05-18T21:49:58.566Z</time>
      </trkpt>
      <trkpt lat="43.36414" lon="6.55535">
        <ele>262.1211</ele>
        <time>2021-05-18T21:50:29.937Z</time>
      </trkpt>
      <trkpt lat="43.36408" lon="6.55536">
        <ele>262.455573</ele>
        <time>2021-05-18T21:50:33.678Z</time>
      </trkpt>
      <trkpt lat="43.36406" lon="6.55522">
        <ele>263.016035</ele>
        <time>2021-05-18T21:50:39.662Z</time>
      </trkpt>
      <trkpt lat="43.36384" lon="6.55465">
        <ele>265.627546</ele>
        <time>2021-05-18T21:51:03.523Z</time>
      </trkpt>
      <trkpt lat="43.36364" lon="6.55448">
        <ele>266.968638</ele>
        <time>2021-05-18T21:51:16.684Z</time>
      </trkpt>
      <trkpt lat="43.36342" lon="6.55442">
        <ele>268.196183</ele>
        <time>2021-05-18T21:51:27.135Z</time>
      </trkpt>
      <trkpt lat="43.3632" lon="6.55416">
        <ele>269.814948</ele>
        <time>2021-05-18T21:51:42.674Z</time>
      </trkpt>
      <trkpt lat="43.36289" lon="6.55398">
        <ele>271.401253</ele>
        <time>2021-05-18T21:52:00.633Z</time>
      </trkpt>
      <trkpt lat="43.36231" lon="6.55347">
        <ele>274.557899</ele>
        <time>2021-05-18T21:52:32.287Z</time>
      </trkpt>
      <trkpt lat="43.36188" lon="6.55343">
        <ele>276.542726</ele>
        <time>2021-05-18T21:52:53.188Z</time>
      </trkpt>
      <trkpt lat="43.36148" lon="6.55361">
        <ele>278.424501</ele>
        <time>2021-05-18T21:53:12.528Z</time>
      </trkpt>
      <trkpt lat="43.36143" lon="6.55359">
        <ele>278.623588</ele>
        <time>2021-05-18T21:53:15.766Z</time>
      </trkpt>
      <trkpt lat="43.36139" lon="6.55367">
        <ele>278.906957</ele>
        <time>2021-05-18T21:53:18.144Z</time>
      </trkpt>
      <trkpt lat="43.36118" lon="6.55396">
        <ele>279.986384</ele>
        <time>2021-05-18T21:53:32.678Z</time>
      </trkpt>
      <trkpt lat="43.3611" lon="6.55404">
        <ele>280.368149</ele>
        <time>2021-05-18T21:53:35.965Z</time>
      </trkpt>
      <trkpt lat="43.36111" lon="6.55387">
        <ele>280.842335</ele>
        <time>2021-05-18T21:53:42.843Z</time>
      </trkpt>
      <trkpt lat="43.36107" lon="6.5534">
        <ele>282.093307</ele>
        <time>2021-05-18T21:53:57.948Z</time>
      </trkpt>
      <trkpt lat="43.3606" lon="6.55213">
        <ele>285.3548</ele>
        <time>2021-05-18T21:54:42.183Z</time>
      </trkpt>
      <trkpt lat="43.36048" lon="6.55187">
        <ele>285.748436</ele>
        <time>2021-05-18T21:54:51.848Z</time>
      </trkpt>
      <trkpt lat="43.36021" lon="6.5515">
        <ele>286.410065</ele>
        <time>2021-05-18T21:55:06.131Z</time>
      </trkpt>
      <trkpt lat="43.36005" lon="6.55103">
        <ele>287.072678</ele>
        <time>2021-05-18T21:55:19.528Z</time>
      </trkpt>
      <trkpt lat="43.35953" lon="6.55071">
        <ele>287.986634</ele>
        <time>2021-05-18T21:55:37.772Z</time>
      </trkpt>
      <trkpt lat="43.35938" lon="6.55047">
        <ele>287.907292</ele>
        <time>2021-05-18T21:55:44.722Z</time>
      </trkpt>
      <trkpt lat="43.35929" lon="6.55035">
        <ele>287.86288</ele>
        <time>2021-05-18T21:55:48.383Z</time>
      </trkpt>
      <trkpt lat="43.35905" lon="6.54985">
        <ele>287.708181</ele>
        <time>2021-05-18T21:56:01.113Z</time>
      </trkpt>
      <trkpt lat="43.3588" lon="6.54929">
        <ele>287.542131</ele>
        <time>2021-05-18T21:56:14.355Z</time>
      </trkpt>
      <trkpt lat="43.35873" lon="6.54872">
        <ele>287.39636</ele>
        <time>2021-05-18T21:56:26.028Z</time>
      </trkpt>
      <trkpt lat="43.35865" lon="6.54818">
        <ele>287.270216</ele>
        <time>2021-05-18T21:56:37.439Z</time>
      </trkpt>
      <trkpt lat="43.35843" lon="6.54763">
        <ele>287.132349</ele>
        <time>2021-05-18T21:56:50.798Z</time>
      </trkpt>
      <trkpt lat="43.35838" lon="6.54753">
        <ele>287.105782</ele>
        <time>2021-05-18T21:56:53.294Z</time>
      </trkpt>
      <trkpt lat="43.35824" lon="6.54732">
        <ele>287.042499</ele>
        <time>2021-05-18T21:57:00.168Z</time>
      </trkpt>
      <trkpt lat="43.35777" lon="6.54648">
        <ele>286.81383</ele>
        <time>2021-05-18T21:57:22.446Z</time>
      </trkpt>
      <trkpt lat="43.35775" lon="6.54613">
        <ele>286.764877</ele>
        <time>2021-05-18T21:57:29.674Z</time>
      </trkpt>
      <trkpt lat="43.3576" lon="6.5456">
        <ele>286.685866</ele>
        <time>2021-05-18T21:57:41.445Z</time>
      </trkpt>
      <trkpt lat="43.35749" lon="6.5454">
        <ele>286.650092</ele>
        <time>2021-05-18T21:57:46.492Z</time>
      </trkpt>
      <trkpt lat="43.35717" lon="6.54485">
        <ele>286.551578</ele>
        <time>2021-05-18T21:58:01.616Z</time>
      </trkpt>
      <trkpt lat="43.35652" lon="6.54399">
        <ele>287.019357</ele>
        <time>2021-05-18T21:58:29.802Z</time>
      </trkpt>
      <trkpt lat="43.35642" lon="6.54385">
        <ele>287.16791</ele>
        <time>2021-05-18T21:58:33.744Z</time>
      </trkpt>
      <trkpt lat="43.35636" lon="6.54376">
        <ele>287.260229</ele>
        <time>2021-05-18T21:58:37.710Z</time>
      </trkpt>
      <trkpt lat="43.35608" lon="6.54328">
        <ele>287.731675</ele>
        <time>2021-05-18T21:58:53.063Z</time>
      </trkpt>
      <trkpt lat="43.356" lon="6.54218">
        <ele>288.687934</ele>
        <time>2021-05-18T21:59:22.066Z</time>
      </trkpt>
      <trkpt lat="43.35587" lon="6.54185">
        <ele>289.126888</ele>
        <time>2021-05-18T21:59:32.436Z</time>
      </trkpt>
      <trkpt lat="43.35553" lon="6.54143">
        <ele>289.867947</ele>
        <time>2021-05-18T21:59:47.508Z</time>
      </trkpt>
      <trkpt lat="43.35547" lon="6.5413">
        <ele>290.056596</ele>
        <time>2021-05-18T21:59:52.019Z</time>
      </trkpt>
      <trkpt lat="43.35558" lon="6.54093">
        <ele>290.519345</ele>
        <time>2021-05-18T22:00:01.110Z</time>
      </trkpt>
      <trkpt lat="43.35554" lon="6.54061">
        <ele>290.905268</ele>
        <time>2021-05-18T22:00:10.607Z</time>
      </trkpt>
      <trkpt lat="43.35527" lon="6.5402">
        <ele>292.306067</ele>
        <time>2021-05-18T22:00:24.829Z</time>
      </trkpt>
      <trkpt lat="43.35513" lon="6.53983">
        <ele>294.094689</ele>
        <time>2021-05-18T22:00:38.515Z</time>
      </trkpt>
      <trkpt lat="43.35504" lon="6.53968">
        <ele>294.952858</ele>
        <time>2021-05-18T22:00:44.670Z</time>
      </trkpt>
      <trkpt lat="43.35499" lon="6.53962">
        <ele>295.315955</ele>
        <time>2021-05-18T22:00:49.109Z</time>
      </trkpt>
      <trkpt lat="43.35494" lon="6.53954">
        <ele>295.778247</ele>
        <time>2021-05-18T22:00:53.556Z</time>
      </trkpt>
      <trkpt lat="43.35468" lon="6.53912">
        <ele>298.132131</ele>
        <time>2021-05-18T22:01:17.019Z</time>
      </trkpt>
      <trkpt lat="43.35449" lon="6.53864">
        <ele>300.472556</ele>
        <time>2021-05-18T22:01:41.127Z</time>
      </trkpt>
      <trkpt lat="43.35432" lon="6.53812">
        <ele>302.749884</ele>
        <time>2021-05-18T22:02:08.128Z</time>
      </trkpt>
      <trkpt lat="43.35428" lon="6.53791">
        <ele>303.550526</ele>
        <time>2021-05-18T22:02:18.149Z</time>
      </trkpt>
      <trkpt lat="43.35422" lon="6.53772">
        <ele>304.294295</ele>
        <time>2021-05-18T22:02:28.004Z</time>
      </trkpt>
      <trkpt lat="43.35406" lon="6.53743">
        <ele>305.581115</ele>
        <time>2021-05-18T22:02:40.191Z</time>
      </trkpt>
      <trkpt lat="43.35388" lon="6.53693">
        <ele>307.579172</ele>
        <time>2021-05-18T22:02:58.699Z</time>
      </trkpt>
      <trkpt lat="43.35378" lon="6.5365">
        <ele>309.229043</ele>
        <time>2021-05-18T22:03:13.886Z</time>
      </trkpt>
      <trkpt lat="43.35377" lon="6.53641">
        <ele>309.546901</ele>
        <time>2021-05-18T22:03:18.129Z</time>
      </trkpt>
      <trkpt lat="43.35396" lon="6.53597">
        <ele>311.036652</ele>
        <time>2021-05-18T22:03:32.783Z</time>
      </trkpt>
      <trkpt lat="43.35398" lon="6.53585">
        <ele>311.230599</ele>
        <time>2021-05-18T22:03:36.607Z</time>
      </trkpt>
      <trkpt lat="43.35397" lon="6.53569">
        <ele>311.495223</ele>
        <time>2021-05-18T22:03:39.607Z</time>
      </trkpt>
      <trkpt lat="43.35397" lon="6.53553">
        <ele>311.755056</ele>
        <time>2021-05-18T22:03:43.711Z</time>
      </trkpt>
      <trkpt lat="43.35394" lon="6.53536">
        <ele>312.036038</ele>
        <time>2021-05-18T22:03:48.893Z</time>
      </trkpt>
      <trkpt lat="43.3539" lon="6.53519">
        <ele>312.321295</ele>
        <time>2021-05-18T22:03:51.980Z</time>
      </trkpt>
      <trkpt lat="43.35386" lon="6.53507">
        <ele>312.51857</ele>
        <time>2021-05-18T22:03:54.922Z</time>
      </trkpt>
      <trkpt lat="43.35387" lon="6.53491">
        <ele>312.774946</ele>
        <time>2021-05-18T22:04:00.364Z</time>
      </trkpt>
      <trkpt lat="43.35426" lon="6.53405">
        <ele>314.412989</ele>
        <time>2021-05-18T22:04:25.951Z</time>
      </trkpt>
      <trkpt lat="43.35429" lon="6.53346">
        <ele>317.251366</ele>
        <time>2021-05-18T22:04:46.768Z</time>
      </trkpt>
      <trkpt lat="43.35417" lon="6.53313">
        <ele>319.615997</ele>
        <time>2021-05-18T22:05:03.721Z</time>
      </trkpt>
      <trkpt lat="43.35404" lon="6.53297">
        <ele>321.089205</ele>
        <time>2021-05-18T22:05:15.119Z</time>
      </trkpt>
      <trkpt lat="43.3537" lon="6.53277">
        <ele>324.367907</ele>
        <time>2021-05-18T22:05:41.180Z</time>
      </trkpt>
      <trkpt lat="43.35367" lon="6.53269">
        <ele>324.921447</ele>
        <time>2021-05-18T22:05:45.619Z</time>
      </trkpt>
      <trkpt lat="43.35383" lon="6.53174">
        <ele>331.370344</ele>
        <time>2021-05-18T22:06:38.682Z</time>
      </trkpt>
      <trkpt lat="43.35356" lon="6.53078">
        <ele>339.842447</ele>
        <time>2021-05-18T22:07:36.087Z</time>
      </trkpt>
      <trkpt lat="43.35364" lon="6.53048">
        <ele>342.4757</ele>
        <time>2021-05-18T22:07:54.055Z</time>
      </trkpt>
      <trkpt lat="43.35377" lon="6.5303">
        <ele>344.638836</ele>
        <time>2021-05-18T22:08:08.511Z</time>
      </trkpt>
      <trkpt lat="43.35387" lon="6.5303">
        <ele>345.705408</ele>
        <time>2021-05-18T22:08:15.669Z</time>
      </trkpt>
      <trkpt lat="43.35408" lon="6.53047">
        <ele>348.469377</ele>
        <time>2021-05-18T22:08:33.637Z</time>
      </trkpt>
      <trkpt lat="43.35424" lon="6.53044">
        <ele>350.331541</ele>
        <time>2021-05-18T22:08:45.671Z</time>
      </trkpt>
      <trkpt lat="43.35431" lon="6.53029">
        <ele>351.540086</ele>
        <time>2021-05-18T22:08:54.679Z</time>
      </trkpt>
      <trkpt lat="43.35432" lon="6.52995">
        <ele>353.719961</ele>
        <time>2021-05-18T22:09:13.113Z</time>
      </trkpt>
      <trkpt lat="43.35462" lon="6.52916">
        <ele>359.380208</ele>
        <time>2021-05-18T22:09:57.149Z</time>
      </trkpt>
      <trkpt lat="43.35491" lon="6.52871">
        <ele>363.21636</ele>
        <time>2021-05-18T22:10:23.289Z</time>
      </trkpt>
      <trkpt lat="43.35526" lon="6.52831">
        <ele>367.013688</ele>
        <time>2021-05-18T22:10:49.503Z</time>
      </trkpt>
      <trkpt lat="43.35527" lon="6.5282">
        <ele>367.566245</ele>
        <time>2021-05-18T22:10:54.404Z</time>
      </trkpt>
      <trkpt lat="43.35521" lon="6.52725">
        <ele>371.964925</ele>
        <time>2021-05-18T22:11:32.493Z</time>
      </trkpt>
      <trkpt lat="43.35508" lon="6.52701">
        <ele>373.322445</ele>
        <time>2021-05-18T22:11:43.909Z</time>
      </trkpt>
      <trkpt lat="43.35407" lon="6.52603">
        <ele>382.002653</ele>
        <time>2021-05-18T22:12:50.844Z</time>
      </trkpt>
      <trkpt lat="43.354" lon="6.52576">
        <ele>383.643892</ele>
        <time>2021-05-18T22:13:03.173Z</time>
      </trkpt>
      <trkpt lat="43.35397" lon="6.52506">
        <ele>387.65402</ele>
        <time>2021-05-18T22:13:35.664Z</time>
      </trkpt>
      <trkpt lat="43.35385" lon="6.52471">
        <ele>389.883484</ele>
        <time>2021-05-18T22:13:54.364Z</time>
      </trkpt>
      <trkpt lat="43.35384" lon="6.52439">
        <ele>391.747841</ele>
        <time>2021-05-18T22:14:10.578Z</time>
      </trkpt>
      <trkpt lat="43.35364" lon="6.52433">
        <ele>393.608436</ele>
        <time>2021-05-18T22:14:23.995Z</time>
      </trkpt>
      <trkpt lat="43.35331" lon="6.5245">
        <ele>397.005677</ele>
        <time>2021-05-18T22:14:47.667Z</time>
      </trkpt>
      <trkpt lat="43.35311" lon="6.5246">
        <ele>399.057704</ele>
        <time>2021-05-18T22:15:02.293Z</time>
      </trkpt>
      <trkpt lat="43.35279" lon="6.52459">
        <ele>402.085654</ele>
        <time>2021-05-18T22:15:23.444Z</time>
      </trkpt>
      <trkpt lat="43.35266" lon="6.52452">
        <ele>403.467471</ele>
        <time>2021-05-18T22:15:32.968Z</time>
      </trkpt>
      <trkpt lat="43.35257" lon="6.52422">
        <ele>405.763698</ele>
        <time>2021-05-18T22:15:50.026Z</time>
      </trkpt>
      <trkpt lat="43.35262" lon="6.52372">
        <ele>409.239705</ele>
        <time>2021-05-18T22:16:15.666Z</time>
      </trkpt>
      <trkpt lat="43.35247" lon="6.52277">
        <ele>416.112338</ele>
        <time>2021-05-18T22:17:04.672Z</time>
      </trkpt>
      <trkpt lat="43.35227" lon="6.52238">
        <ele>419.49013</ele>
        <time>2021-05-18T22:17:27.633Z</time>
      </trkpt>
      <trkpt lat="43.35213" lon="6.52235">
        <ele>420.877331</ele>
        <time>2021-05-18T22:17:37.217Z</time>
      </trkpt>
      <trkpt lat="43.35171" lon="6.52256">
        <ele>425.297345</ele>
        <time>2021-05-18T22:18:07.857Z</time>
      </trkpt>
      <trkpt lat="43.35096" lon="6.52253">
        <ele>431.672661</ele>
        <time>2021-05-18T22:19:00.426Z</time>
      </trkpt>
      <trkpt lat="43.35062" lon="6.52238">
        <ele>434.626788</ele>
        <time>2021-05-18T22:19:24.947Z</time>
      </trkpt>
      <trkpt lat="43.35036" lon="6.52235">
        <ele>436.748635</ele>
        <time>2021-05-18T22:19:40.892Z</time>
      </trkpt>
      <trkpt lat="43.35015" lon="6.52233">
        <ele>438.528733</ele>
        <time>2021-05-18T22:19:54.586Z</time>
      </trkpt>
      <trkpt lat="43.35004" lon="6.52232">
        <ele>439.452007</ele>
        <time>2021-05-18T22:20:00.035Z</time>
      </trkpt>
      <trkpt lat="43.34958" lon="6.52222">
        <ele>442.081218</ele>
        <time>2021-05-18T22:20:24.068Z</time>
      </trkpt>
      <trkpt lat="43.34932" lon="6.52219">
        <ele>442.434477</ele>
        <time>2021-05-18T22:20:36.845Z</time>
      </trkpt>
      <trkpt lat="43.3492" lon="6.52224">
        <ele>442.606336</ele>
        <time>2021-05-18T22:20:42.425Z</time>
      </trkpt>
      <trkpt lat="43.34911" lon="6.52228">
        <ele>442.736527</ele>
        <time>2021-05-18T22:20:47.831Z</time>
      </trkpt>
      <trkpt lat="43.34898" lon="6.52248">
        <ele>443.001347</ele>
        <time>2021-05-18T22:20:53.991Z</time>
      </trkpt>
      <trkpt lat="43.34879" lon="6.52253">
        <ele>443.268487</ele>
        <time>2021-05-18T22:21:02.192Z</time>
      </trkpt>
      <trkpt lat="43.34827" lon="6.52239">
        <ele>443.991202</ele>
        <time>2021-05-18T22:21:16.372Z</time>
      </trkpt>
      <trkpt lat="43.34782" lon="6.52208">
        <ele>443.049824</ele>
        <time>2021-05-18T22:21:28.813Z</time>
      </trkpt>
      <trkpt lat="43.34746" lon="6.52192">
        <ele>441.29524</ele>
        <time>2021-05-18T22:21:37.405Z</time>
      </trkpt>
      <trkpt lat="43.34693" lon="6.52182">
        <ele>438.792573</ele>
        <time>2021-05-18T22:21:49.769Z</time>
      </trkpt>
      <trkpt lat="43.34677" lon="6.52173">
        <ele>437.994466</ele>
        <time>2021-05-18T22:21:53.727Z</time>
      </trkpt>
      <trkpt lat="43.34623" lon="6.52174">
        <ele>435.506866</ele>
        <time>2021-05-18T22:22:05.989Z</time>
      </trkpt>
      <trkpt lat="43.34606" lon="6.52185">
        <ele>434.669102</ele>
        <time>2021-05-18T22:22:10.232Z</time>
      </trkpt>
      <trkpt lat="43.34593" lon="6.52185">
        <ele>434.062787</ele>
        <time>2021-05-18T22:22:13.298Z</time>
      </trkpt>
      <trkpt lat="43.34549" lon="6.52168">
        <ele>432.0139</ele>
        <time>2021-05-18T22:22:23.860Z</time>
      </trkpt>
      <trkpt lat="43.34507" lon="6.52008">
        <ele>426.408335</ele>
        <time>2021-05-18T22:22:53.526Z</time>
      </trkpt>
      <trkpt lat="43.34512" lon="6.51973">
        <ele>425.166529</ele>
        <time>2021-05-18T22:22:59.858Z</time>
      </trkpt>
      <trkpt lat="43.3451" lon="6.51955">
        <ele>424.550437</ele>
        <time>2021-05-18T22:23:02.959Z</time>
      </trkpt>
      <trkpt lat="43.34495" lon="6.51944">
        <ele>423.743071</ele>
        <time>2021-05-18T22:23:07.007Z</time>
      </trkpt>
      <trkpt lat="43.34423" lon="6.51916">
        <ele>420.191352</ele>
        <time>2021-05-18T22:23:24.268Z</time>
      </trkpt>
      <trkpt lat="43.34359" lon="6.51856">
        <ele>415.572378</ele>
        <time>2021-05-18T22:23:41.496Z</time>
      </trkpt>
      <trkpt lat="43.34301" lon="6.51831">
        <ele>411.681244</ele>
        <time>2021-05-18T22:23:54.908Z</time>
      </trkpt>
      <trkpt lat="43.34292" lon="6.51818">
        <ele>410.895492</ele>
        <time>2021-05-18T22:23:57.588Z</time>
      </trkpt>
      <trkpt lat="43.34273" lon="6.5179">
        <ele>409.136337</ele>
        <time>2021-05-18T22:24:03.647Z</time>
      </trkpt>
      <trkpt lat="43.34135" lon="6.51688">
        <ele>400.613681</ele>
        <time>2021-05-18T22:24:39.280Z</time>
      </trkpt>
      <trkpt lat="43.34089" lon="6.51633">
        <ele>397.055266</ele>
        <time>2021-05-18T22:24:53.683Z</time>
      </trkpt>
      <trkpt lat="43.34083" lon="6.51607">
        <ele>395.691947</ele>
        <time>2021-05-18T22:24:58.353Z</time>
      </trkpt>
      <trkpt lat="43.34085" lon="6.51597">
        <ele>395.158961</ele>
        <time>2021-05-18T22:25:00.201Z</time>
      </trkpt>
      <trkpt lat="43.34161" lon="6.51519">
        <ele>388.709626</ele>
        <time>2021-05-18T22:25:20.760Z</time>
      </trkpt>
      <trkpt lat="43.34164" lon="6.51504">
        <ele>387.902978</ele>
        <time>2021-05-18T22:25:23.199Z</time>
      </trkpt>
      <trkpt lat="43.34146" lon="6.51397">
        <ele>381.416279</ele>
        <time>2021-05-18T22:25:39.915Z</time>
      </trkpt>
      <trkpt lat="43.34125" lon="6.51377">
        <ele>379.160252</ele>
        <time>2021-05-18T22:25:45.098Z</time>
      </trkpt>
      <trkpt lat="43.34057" lon="6.51263">
        <ele>370.079992</ele>
        <time>2021-05-18T22:26:07.485Z</time>
      </trkpt>
      <trkpt lat="43.34055" lon="6.51239">
        <ele>369.489598</ele>
        <time>2021-05-18T22:26:11.415Z</time>
      </trkpt>
      <trkpt lat="43.34071" lon="6.51114">
        <ele>366.366493</ele>
        <time>2021-05-18T22:26:33.820Z</time>
      </trkpt>
      <trkpt lat="43.34067" lon="6.51088">
        <ele>365.725854</ele>
        <time>2021-05-18T22:26:39.055Z</time>
      </trkpt>
      <trkpt lat="43.34049" lon="6.51067">
        <ele>364.93089</ele>
        <time>2021-05-18T22:26:45.607Z</time>
      </trkpt>
      <trkpt lat="43.33966" lon="6.51002">
        <ele>363.622239</ele>
        <time>2021-05-18T22:27:13.533Z</time>
      </trkpt>
      <trkpt lat="43.33968" lon="6.50989">
        <ele>363.546439</ele>
        <time>2021-05-18T22:27:16.586Z</time>
      </trkpt>
      <trkpt lat="43.33993" lon="6.50948">
        <ele>363.24284</ele>
        <time>2021-05-18T22:27:28.660Z</time>
      </trkpt>
      <trkpt lat="43.34027" lon="6.50944">
        <ele>362.981554</ele>
        <time>2021-05-18T22:27:38.250Z</time>
      </trkpt>
      <trkpt lat="43.34059" lon="6.5093">
        <ele>362.099812</ele>
        <time>2021-05-18T22:27:47.127Z</time>
      </trkpt>
      <trkpt lat="43.34103" lon="6.50874">
        <ele>358.060043</ele>
        <time>2021-05-18T22:28:01.526Z</time>
      </trkpt>
      <trkpt lat="43.34126" lon="6.50858">
        <ele>356.327804</ele>
        <time>2021-05-18T22:28:06.762Z</time>
      </trkpt>
      <trkpt lat="43.34134" lon="6.5084">
        <ele>355.285025</ele>
        <time>2021-05-18T22:28:10.309Z</time>
      </trkpt>
      <trkpt lat="43.34141" lon="6.50757">
        <ele>351.197968</ele>
        <time>2021-05-18T22:28:22.795Z</time>
      </trkpt>
      <trkpt lat="43.3414" lon="6.50691">
        <ele>347.790136</ele>
        <time>2021-05-18T22:28:33.025Z</time>
      </trkpt>
      <trkpt lat="43.34144" lon="6.50677">
        <ele>347.049282</ele>
        <time>2021-05-18T22:28:35.062Z</time>
      </trkpt>
      <trkpt lat="43.34138" lon="6.50682">
        <ele>346.565195</ele>
        <time>2021-05-18T22:28:36.379Z</time>
      </trkpt>
      <trkpt lat="43.3408" lon="6.50628">
        <ele>341.5742</ele>
        <time>2021-05-18T22:28:51.378Z</time>
      </trkpt>
      <trkpt lat="43.34057" lon="6.50582">
        <ele>338.660394</ele>
        <time>2021-05-18T22:29:00.594Z</time>
      </trkpt>
      <trkpt lat="43.34018" lon="6.50519">
        <ele>337.800545</ele>
        <time>2021-05-18T22:29:16.100Z</time>
      </trkpt>
      <trkpt lat="43.3395" lon="6.50468">
        <ele>337.774958</ele>
        <time>2021-05-18T22:29:43.539Z</time>
      </trkpt>
      <trkpt lat="43.33905" lon="6.5042">
        <ele>337.773022</ele>
        <time>2021-05-18T22:30:03.859Z</time>
      </trkpt>
      <trkpt lat="43.33869" lon="6.50399">
        <ele>337.990534</ele>
        <time>2021-05-18T22:30:17.244Z</time>
      </trkpt>
      <trkpt lat="43.33843" lon="6.50403">
        <ele>338.139244</ele>
        <time>2021-05-18T22:30:25.940Z</time>
      </trkpt>
      <trkpt lat="43.33813" lon="6.50396">
        <ele>338.307788</ele>
        <time>2021-05-18T22:30:35.359Z</time>
      </trkpt>
      <trkpt lat="43.33776" lon="6.50374">
        <ele>338.534003</ele>
        <time>2021-05-18T22:30:47.606Z</time>
      </trkpt>
      <trkpt lat="43.33761" lon="6.50348">
        <ele>338.668586</ele>
        <time>2021-05-18T22:30:54.756Z</time>
      </trkpt>
      <trkpt lat="43.33742" lon="6.50285">
        <ele>339.226089</ele>
        <time>2021-05-18T22:31:09.520Z</time>
      </trkpt>
      <trkpt lat="43.33706" lon="6.50254">
        <ele>339.813272</ele>
        <time>2021-05-18T22:31:22.256Z</time>
      </trkpt>
      <trkpt lat="43.33699" lon="6.50241">
        <ele>339.983756</ele>
        <time>2021-05-18T22:31:26.219Z</time>
      </trkpt>
      <trkpt lat="43.33694" lon="6.50223">
        <ele>340.179764</ele>
        <time>2021-05-18T22:31:31.028Z</time>
      </trkpt>
      <trkpt lat="43.33682" lon="6.50176">
        <ele>340.691299</ele>
        <time>2021-05-18T22:31:44.505Z</time>
      </trkpt>
      <trkpt lat="43.33647" lon="6.5013">
        <ele>341.591373</ele>
        <time>2021-05-18T22:32:04.251Z</time>
      </trkpt>
      <trkpt lat="43.33602" lon="6.50105">
        <ele>344.228175</ele>
        <time>2021-05-18T22:32:26.914Z</time>
      </trkpt>
      <trkpt lat="43.33544" lon="6.50095">
        <ele>347.374679</ele>
        <time>2021-05-18T22:32:56.625Z</time>
      </trkpt>
      <trkpt lat="43.33471" lon="6.50036">
        <ele>351.862338</ele>
        <time>2021-05-18T22:33:45.811Z</time>
      </trkpt>
      <trkpt lat="43.33425" lon="6.50021">
        <ele>354.257858</ele>
        <time>2021-05-18T22:34:13.176Z</time>
      </trkpt>
      <trkpt lat="43.33421" lon="6.49982">
        <ele>355.674705</ele>
        <time>2021-05-18T22:34:25.414Z</time>
      </trkpt>
      <trkpt lat="43.33416" lon="6.49977">
        <ele>356.023251</ele>
        <time>2021-05-18T22:34:30.846Z</time>
      </trkpt>
      <trkpt lat="43.33408" lon="6.49995">
        <ele>356.798611</ele>
        <time>2021-05-18T22:34:36.097Z</time>
      </trkpt>
      <trkpt lat="43.33396" lon="6.49985">
        <ele>357.476874</ele>
        <time>2021-05-18T22:34:39.131Z</time>
      </trkpt>
      <trkpt lat="43.33365" lon="6.49945">
        <ele>359.627555</ele>
        <time>2021-05-18T22:34:55.091Z</time>
      </trkpt>
      <trkpt lat="43.3333" lon="6.49883">
        <ele>361.158118</ele>
        <time>2021-05-18T22:35:10.639Z</time>
      </trkpt>
      <trkpt lat="43.33318" lon="6.49883">
        <ele>361.437563</ele>
        <time>2021-05-18T22:35:14.176Z</time>
      </trkpt>
      <trkpt lat="43.33286" lon="6.49906">
        <ele>362.294666</ele>
        <time>2021-05-18T22:35:22.533Z</time>
      </trkpt>
      <trkpt lat="43.33278" lon="6.49904">
        <ele>362.478118</ele>
        <time>2021-05-18T22:35:24.263Z</time>
      </trkpt>
      <trkpt lat="43.3328" lon="6.49872">
        <ele>363.010341</ele>
        <time>2021-05-18T22:35:29.561Z</time>
      </trkpt>
      <trkpt lat="43.33278" lon="6.49858">
        <ele>363.253528</ele>
        <time>2021-05-18T22:35:32.166Z</time>
      </trkpt>
      <trkpt lat="43.33271" lon="6.49854">
        <ele>363.426475</ele>
        <time>2021-05-18T22:35:34.053Z</time>
      </trkpt>
      <trkpt lat="43.33262" lon="6.49854">
        <ele>363.649495</ele>
        <time>2021-05-18T22:35:36.637Z</time>
      </trkpt>
      <trkpt lat="43.3324" lon="6.49882">
        <ele>364.406003</ele>
        <time>2021-05-18T22:35:45.018Z</time>
      </trkpt>
      <trkpt lat="43.33224" lon="6.49878">
        <ele>364.990616</ele>
        <time>2021-05-18T22:35:50.069Z</time>
      </trkpt>
      <trkpt lat="43.33205" lon="6.4976">
        <ele>368.080128</ele>
        <time>2021-05-18T22:36:18.490Z</time>
      </trkpt>
      <trkpt lat="43.33192" lon="6.4974">
        <ele>368.767536</ele>
        <time>2021-05-18T22:36:25.288Z</time>
      </trkpt>
      <trkpt lat="43.33145" lon="6.49692">
        <ele>370.690739</ele>
        <time>2021-05-18T22:36:45.452Z</time>
      </trkpt>
      <trkpt lat="43.33099" lon="6.49665">
        <ele>371.653443</ele>
        <time>2021-05-18T22:37:01.374Z</time>
      </trkpt>
      <trkpt lat="43.33047" lon="6.49616">
        <ele>372.857143</ele>
        <time>2021-05-18T22:37:17.884Z</time>
      </trkpt>
      <trkpt lat="43.33011" lon="6.49613">
        <ele>373.55162</ele>
        <time>2021-05-18T22:37:25.665Z</time>
      </trkpt>
      <trkpt lat="43.3298" lon="6.49623">
        <ele>373.643641</ele>
        <time>2021-05-18T22:37:31.340Z</time>
      </trkpt>
      <trkpt lat="43.32948" lon="6.49596">
        <ele>372.387769</ele>
        <time>2021-05-18T22:37:37.128Z</time>
      </trkpt>
      <trkpt lat="43.32875" lon="6.49572">
        <ele>369.905403</ele>
        <time>2021-05-18T22:37:47.218Z</time>
      </trkpt>
      <trkpt lat="43.32867" lon="6.4956">
        <ele>369.520596</ele>
        <time>2021-05-18T22:37:48.681Z</time>
      </trkpt>
      <trkpt lat="43.32865" lon="6.49521">
        <ele>368.5727</ele>
        <time>2021-05-18T22:37:52.268Z</time>
      </trkpt>
      <trkpt lat="43.32857" lon="6.49503">
        <ele>368.062585</ele>
        <time>2021-05-18T22:37:54.163Z</time>
      </trkpt>
      <trkpt lat="43.32848" lon="6.49491">
        <ele>367.380712</ele>
        <time>2021-05-18T22:37:55.770Z</time>
      </trkpt>
      <trkpt lat="43.32766" lon="6.49429">
        <ele>362.12723</ele>
        <time>2021-05-18T22:38:07.223Z</time>
      </trkpt>
      <trkpt lat="43.32745" lon="6.49407">
        <ele>360.664781</ele>
        <time>2021-05-18T22:38:10.399Z</time>
      </trkpt>
      <trkpt lat="43.32691" lon="6.49321">
        <ele>356.721501</ele>
        <time>2021-05-18T22:38:21.090Z</time>
      </trkpt>
      <trkpt lat="43.32683" lon="6.49294">
        <ele>355.9804</ele>
        <time>2021-05-18T22:38:23.724Z</time>
      </trkpt>
      <trkpt lat="43.32679" lon="6.49279">
        <ele>355.551957</ele>
        <time>2021-05-18T22:38:25.569Z</time>
      </trkpt>
      <trkpt lat="43.32671" lon="6.49259">
        <ele>354.983923</ele>
        <time>2021-05-18T22:38:27.651Z</time>
      </trkpt>
      <trkpt lat="43.32637" lon="6.49237">
        <ele>353.639871</ele>
        <time>2021-05-18T22:38:32.820Z</time>
      </trkpt>
      <trkpt lat="43.32619" lon="6.49233">
        <ele>353.007227</ele>
        <time>2021-05-18T22:38:35.409Z</time>
      </trkpt>
      <trkpt lat="43.32586" lon="6.49236">
        <ele>351.829196</ele>
        <time>2021-05-18T22:38:39.960Z</time>
      </trkpt>
      <trkpt lat="43.32537" lon="6.4925">
        <ele>350.628271</ele>
        <time>2021-05-18T22:38:47.075Z</time>
      </trkpt>
      <trkpt lat="43.32475" lon="6.49318">
        <ele>348.906498</ele>
        <time>2021-05-18T22:38:58.300Z</time>
      </trkpt>
      <trkpt lat="43.32461" lon="6.49326">
        <ele>348.57943</ele>
        <time>2021-05-18T22:39:00.519Z</time>
      </trkpt>
      <trkpt lat="43.32445" lon="6.49326">
        <ele>348.233299</ele>
        <time>2021-05-18T22:39:02.876Z</time>
      </trkpt>
      <trkpt lat="43.32369" lon="6.4929">
        <ele>347.934376</ele>
        <time>2021-05-18T22:39:15.853Z</time>
      </trkpt>
      <trkpt lat="43.32344" lon="6.49262">
        <ele>348.111302</ele>
        <time>2021-05-18T22:39:21.946Z</time>
      </trkpt>
      <trkpt lat="43.32337" lon="6.49247">
        <ele>348.180989</ele>
        <time>2021-05-18T22:39:24.697Z</time>
      </trkpt>
      <trkpt lat="43.32333" lon="6.49207">
        <ele>348.344517</ele>
        <time>2021-05-18T22:39:31.389Z</time>
      </trkpt>
      <trkpt lat="43.32338" lon="6.49189">
        <ele>348.419559</ele>
        <time>2021-05-18T22:39:34.849Z</time>
      </trkpt>
      <trkpt lat="43.32361" lon="6.4915">
        <ele>348.616979</ele>
        <time>2021-05-18T22:39:44.091Z</time>
      </trkpt>
      <trkpt lat="43.32411" lon="6.49099">
        <ele>349.499441</ele>
        <time>2021-05-18T22:40:00.990Z</time>
      </trkpt>
      <trkpt lat="43.32418" lon="6.49065">
        <ele>349.862816</ele>
        <time>2021-05-18T22:40:07.452Z</time>
      </trkpt>
      <trkpt lat="43.32416" lon="6.4905">
        <ele>350.027879</ele>
        <time>2021-05-18T22:40:10.148Z</time>
      </trkpt>
      <trkpt lat="43.32406" lon="6.49035">
        <ele>350.235608</ele>
        <time>2021-05-18T22:40:13.633Z</time>
      </trkpt>
      <trkpt lat="43.32357" lon="6.49045">
        <ele>350.937911</ele>
        <time>2021-05-18T22:40:24.494Z</time>
      </trkpt>
      <trkpt lat="43.32328" lon="6.49035">
        <ele>351.012647</ele>
        <time>2021-05-18T22:40:30.677Z</time>
      </trkpt>
      <trkpt lat="43.32315" lon="6.49015">
        <ele>350.725909</ele>
        <time>2021-05-18T22:40:34.068Z</time>
      </trkpt>
      <trkpt lat="43.32316" lon="6.48975">
        <ele>350.289324</ele>
        <time>2021-05-18T22:40:38.979Z</time>
      </trkpt>
      <trkpt lat="43.3232" lon="6.48961">
        <ele>350.123524</ele>
        <time>2021-05-18T22:40:40.730Z</time>
      </trkpt>
      <trkpt lat="43.32354" lon="6.48908">
        <ele>349.342767</ele>
        <time>2021-05-18T22:40:48.542Z</time>
      </trkpt>
      <trkpt lat="43.32377" lon="6.48852">
        <ele>348.632931</ele>
        <time>2021-05-18T22:40:55.063Z</time>
      </trkpt>
      <trkpt lat="43.32451" lon="6.48761">
        <ele>344.693829</ele>
        <time>2021-05-18T22:41:08.109Z</time>
      </trkpt>
      <trkpt lat="43.32453" lon="6.48751">
        <ele>344.355661</ele>
        <time>2021-05-18T22:41:09.122Z</time>
      </trkpt>
      <trkpt lat="43.3245" lon="6.4874">
        <ele>343.996606</ele>
        <time>2021-05-18T22:41:10.180Z</time>
      </trkpt>
      <trkpt lat="43.32417" lon="6.48709">
        <ele>342.265326</ele>
        <time>2021-05-18T22:41:15.250Z</time>
      </trkpt>
      <trkpt lat="43.32393" lon="6.48667">
        <ele>340.689145</ele>
        <time>2021-05-18T22:41:20.160Z</time>
      </trkpt>
      <trkpt lat="43.32387" lon="6.48594">
        <ele>339.518818</ele>
        <time>2021-05-18T22:41:27.300Z</time>
      </trkpt>
      <trkpt lat="43.32359" lon="6.48528">
        <ele>338.301949</ele>
        <time>2021-05-18T22:41:35.154Z</time>
      </trkpt>
      <trkpt lat="43.32355" lon="6.48499">
        <ele>337.840179</ele>
        <time>2021-05-18T22:41:38.505Z</time>
      </trkpt>
      <trkpt lat="43.32341" lon="6.48462">
        <ele>337.1682</ele>
        <time>2021-05-18T22:41:43.654Z</time>
      </trkpt>
      <trkpt lat="43.32334" lon="6.48338">
        <ele>337.50471</ele>
        <time>2021-05-18T22:42:03.528Z</time>
      </trkpt>
      <trkpt lat="43.32341" lon="6.48304">
        <ele>337.734472</ele>
        <time>2021-05-18T22:42:09.660Z</time>
      </trkpt>
      <trkpt lat="43.32366" lon="6.48274">
        <ele>338.031517</ele>
        <time>2021-05-18T22:42:17.496Z</time>
      </trkpt>
      <trkpt lat="43.32358" lon="6.48175">
        <ele>338.595254</ele>
        <time>2021-05-18T22:42:32.410Z</time>
      </trkpt>
      <trkpt lat="43.32359" lon="6.48146">
        <ele>338.713086</ele>
        <time>2021-05-18T22:42:36.969Z</time>
      </trkpt>
      <trkpt lat="43.32357" lon="6.48123">
        <ele>338.808296</ele>
        <time>2021-05-18T22:42:39.715Z</time>
      </trkpt>
      <trkpt lat="43.32352" lon="6.48099">
        <ele>338.911376</ele>
        <time>2021-05-18T22:42:43.473Z</time>
      </trkpt>
      <trkpt lat="43.32341" lon="6.48077">
        <ele>339.018914</ele>
        <time>2021-05-18T22:42:46.491Z</time>
      </trkpt>
      <trkpt lat="43.32324" lon="6.48068">
        <ele>339.124396</ele>
        <time>2021-05-18T22:42:49.945Z</time>
      </trkpt>
      <trkpt lat="43.32277" lon="6.48083">
        <ele>339.39822</ele>
        <time>2021-05-18T22:42:58.628Z</time>
      </trkpt>
      <trkpt lat="43.32239" lon="6.48077">
        <ele>340.864578</ele>
        <time>2021-05-18T22:43:07.552Z</time>
      </trkpt>
      <trkpt lat="43.32226" lon="6.48064">
        <ele>341.695628</ele>
        <time>2021-05-18T22:43:11.343Z</time>
      </trkpt>
      <trkpt lat="43.32217" lon="6.48045">
        <ele>342.571258</ele>
        <time>2021-05-18T22:43:19.423Z</time>
      </trkpt>
      <trkpt lat="43.32186" lon="6.47967">
        <ele>345.958483</ele>
        <time>2021-05-18T22:43:44.859Z</time>
      </trkpt>
      <trkpt lat="43.32182" lon="6.47958">
        <ele>346.374182</ele>
        <time>2021-05-18T22:43:50.400Z</time>
      </trkpt>
      <trkpt lat="43.32172" lon="6.47939">
        <ele>347.270948</ele>
        <time>2021-05-18T22:43:56.442Z</time>
      </trkpt>
      <trkpt lat="43.32163" lon="6.47923">
        <ele>348.038501</ele>
        <time>2021-05-18T22:44:04.517Z</time>
      </trkpt>
      <trkpt lat="43.32159" lon="6.47916">
        <ele>348.346799</ele>
        <time>2021-05-18T22:44:08.071Z</time>
      </trkpt>
      <trkpt lat="43.32152" lon="6.47901">
        <ele>349.122232</ele>
        <time>2021-05-18T22:44:13.014Z</time>
      </trkpt>
      <trkpt lat="43.32142" lon="6.47882">
        <ele>350.321723</ele>
        <time>2021-05-18T22:44:22.882Z</time>
      </trkpt>
      <trkpt lat="43.32094" lon="6.47733">
        <ele>358.721503</ele>
        <time>2021-05-18T22:45:24.710Z</time>
      </trkpt>
      <trkpt lat="43.32068" lon="6.47689">
        <ele>361.657559</ele>
        <time>2021-05-18T22:45:42.519Z</time>
      </trkpt>
      <trkpt lat="43.31974" lon="6.4763">
        <ele>361.964976</ele>
        <time>2021-05-18T22:46:08.169Z</time>
      </trkpt>
      <trkpt lat="43.31949" lon="6.47624">
        <ele>362.042699</ele>
        <time>2021-05-18T22:46:12.248Z</time>
      </trkpt>
      <trkpt lat="43.31932" lon="6.47609">
        <ele>362.104137</ele>
        <time>2021-05-18T22:46:15.596Z</time>
      </trkpt>
      <trkpt lat="43.31918" lon="6.47583">
        <ele>362.17378</ele>
        <time>2021-05-18T22:46:18.918Z</time>
      </trkpt>
      <trkpt lat="43.31918" lon="6.47567">
        <ele>361.953552</ele>
        <time>2021-05-18T22:46:20.684Z</time>
      </trkpt>
      <trkpt lat="43.31918" lon="6.47556">
        <ele>361.551702</ele>
        <time>2021-05-18T22:46:21.568Z</time>
      </trkpt>
      <trkpt lat="43.31897" lon="6.4751">
        <ele>359.396311</ele>
        <time>2021-05-18T22:46:26.810Z</time>
      </trkpt>
      <trkpt lat="43.31819" lon="6.47408">
        <ele>353.701484</ele>
        <time>2021-05-18T22:46:39.839Z</time>
      </trkpt>
      <trkpt lat="43.31795" lon="6.474">
        <ele>352.477738</ele>
        <time>2021-05-18T22:46:42.955Z</time>
      </trkpt>
      <trkpt lat="43.31771" lon="6.47381">
        <ele>351.8182</ele>
        <time>2021-05-18T22:46:46.335Z</time>
      </trkpt>
      <trkpt lat="43.31702" lon="6.47256">
        <ele>349.104122</ele>
        <time>2021-05-18T22:47:02.683Z</time>
      </trkpt>
      <trkpt lat="43.31699" lon="6.47242">
        <ele>348.854895</ele>
        <time>2021-05-18T22:47:04.125Z</time>
      </trkpt>
      <trkpt lat="43.3169" lon="6.47242">
        <ele>348.627752</ele>
        <time>2021-05-18T22:47:06.975Z</time>
      </trkpt>
      <trkpt lat="43.3169" lon="6.47241">
        <ele>348.614843</ele>
        <time>2021-05-18T22:47:07.040Z</time>
      </trkpt>
      <trkpt lat="43.31691" lon="6.47229">
        <ele>348.409185</ele>
        <time>2021-05-18T22:47:09.279Z</time>
      </trkpt>
      <trkpt lat="43.31687" lon="6.47223">
        <ele>348.324071</ele>
        <time>2021-05-18T22:47:10.755Z</time>
      </trkpt>
      <trkpt lat="43.31684" lon="6.47222">
        <ele>348.38626</ele>
        <time>2021-05-18T22:47:11.148Z</time>
      </trkpt>
      <trkpt lat="43.31681" lon="6.47222">
        <ele>348.447423</ele>
        <time>2021-05-18T22:47:11.921Z</time>
      </trkpt>
      <trkpt lat="43.31674" lon="6.4723">
        <ele>348.623591</ele>
        <time>2021-05-18T22:47:13.360Z</time>
      </trkpt>
      <trkpt lat="43.31674" lon="6.47234">
        <ele>348.68606</ele>
        <time>2021-05-18T22:47:14.671Z</time>
      </trkpt>
      <trkpt lat="43.31657" lon="6.47234">
        <ele>349.028777</ele>
        <time>2021-05-18T22:47:19.843Z</time>
      </trkpt>
      <trkpt lat="43.31602" lon="6.47213">
        <ele>350.193757</ele>
        <time>2021-05-18T22:47:36.400Z</time>
      </trkpt>
      <trkpt lat="43.31527" lon="6.47226">
        <ele>351.728136</ele>
        <time>2021-05-18T22:47:57.660Z</time>
      </trkpt>
      <trkpt lat="43.31488" lon="6.47221">
        <ele>351.872075</ele>
        <time>2021-05-18T22:48:07.689Z</time>
      </trkpt>
      <trkpt lat="43.31475" lon="6.47214">
        <ele>351.826691</ele>
        <time>2021-05-18T22:48:11.826Z</time>
      </trkpt>
      <trkpt lat="43.3146" lon="6.47169">
        <ele>351.706469</ele>
        <time>2021-05-18T22:48:18.650Z</time>
      </trkpt>
      <trkpt lat="43.31457" lon="6.47154">
        <ele>351.670358</ele>
        <time>2021-05-18T22:48:20.241Z</time>
      </trkpt>
      <trkpt lat="43.31457" lon="6.47141">
        <ele>351.638135</ele>
        <time>2021-05-18T22:48:21.754Z</time>
      </trkpt>
      <trkpt lat="43.31453" lon="6.47131">
        <ele>351.610747</ele>
        <time>2021-05-18T22:48:23.553Z</time>
      </trkpt>
      <trkpt lat="43.31454" lon="6.4713">
        <ele>351.605506</ele>
        <time>2021-05-18T22:48:24.024Z</time>
      </trkpt>
      <trkpt lat="43.31456" lon="6.47123">
        <ele>351.58981</ele>
        <time>2021-05-18T22:48:25.470Z</time>
      </trkpt>
      <trkpt lat="43.31455" lon="6.47121">
        <ele>351.584213</ele>
        <time>2021-05-18T22:48:25.761Z</time>
      </trkpt>
      <trkpt lat="43.31454" lon="6.4712">
        <ele>351.578475</ele>
        <time>2021-05-18T22:48:26.052Z</time>
      </trkpt>
      <trkpt lat="43.31452" lon="6.47119">
        <ele>351.572924</ele>
        <time>2021-05-18T22:48:26.279Z</time>
      </trkpt>
      <trkpt lat="43.3145" lon="6.47118">
        <ele>351.567181</ele>
        <time>2021-05-18T22:48:26.513Z</time>
      </trkpt>
      <trkpt lat="43.31449" lon="6.47119">
        <ele>351.561717</ele>
        <time>2021-05-18T22:48:26.734Z</time>
      </trkpt>
      <trkpt lat="43.31446" lon="6.47124">
        <ele>351.545401</ele>
        <time>2021-05-18T22:48:27.403Z</time>
      </trkpt>
      <trkpt lat="43.31446" lon="6.47126">
        <ele>351.539587</ele>
        <time>2021-05-18T22:48:27.624Z</time>
      </trkpt>
      <trkpt lat="43.31446" lon="6.47128">
        <ele>351.534003</ele>
        <time>2021-05-18T22:48:27.883Z</time>
      </trkpt>
      <trkpt lat="43.31447" lon="6.4713">
        <ele>351.528308</ele>
        <time>2021-05-18T22:48:28.117Z</time>
      </trkpt>
      <trkpt lat="43.31449" lon="6.47131">
        <ele>351.522955</ele>
        <time>2021-05-18T22:48:28.366Z</time>
      </trkpt>
      <trkpt lat="43.31449" lon="6.47131">
        <ele>351.522955</ele>
        <time>2021-05-18T22:48:28.429Z</time>
      </trkpt>
      <trkpt lat="43.31453" lon="6.47142">
        <ele>351.493499</ele>
        <time>2021-05-18T22:48:29.944Z</time>
      </trkpt>
      <trkpt lat="43.31457" lon="6.47154">
        <ele>351.460501</ele>
        <time>2021-05-18T22:48:32.278Z</time>
      </trkpt>
      <trkpt lat="43.31457" lon="6.47141">
        <ele>351.428278</ele>
        <time>2021-05-18T22:48:33.539Z</time>
      </trkpt>
      <trkpt lat="43.31453" lon="6.47131">
        <ele>351.40089</ele>
        <time>2021-05-18T22:48:34.576Z</time>
      </trkpt>
      <trkpt lat="43.31454" lon="6.4713">
        <ele>351.395649</ele>
        <time>2021-05-18T22:48:34.802Z</time>
      </trkpt>
      <trkpt lat="43.31456" lon="6.47123">
        <ele>351.379953</ele>
        <time>2021-05-18T22:48:35.623Z</time>
      </trkpt>
      <trkpt lat="43.31455" lon="6.47121">
        <ele>351.374356</ele>
        <time>2021-05-18T22:48:35.887Z</time>
      </trkpt>
      <trkpt lat="43.31454" lon="6.4712">
        <ele>351.368618</ele>
        <time>2021-05-18T22:48:36.315Z</time>
      </trkpt>
      <trkpt lat="43.31452" lon="6.47119">
        <ele>351.335167</ele>
        <time>2021-05-18T22:48:36.712Z</time>
      </trkpt>
      <trkpt lat="43.3145" lon="6.47118">
        <ele>351.279146</ele>
        <time>2021-05-18T22:48:37.204Z</time>
      </trkpt>
      <trkpt lat="43.31449" lon="6.47119">
        <ele>351.225851</ele>
        <time>2021-05-18T22:48:37.534Z</time>
      </trkpt>
      <trkpt lat="43.31446" lon="6.47124">
        <ele>351.066697</ele>
        <time>2021-05-18T22:48:38.244Z</time>
      </trkpt>
      <trkpt lat="43.31446" lon="6.47126">
        <ele>351.009978</ele>
        <time>2021-05-18T22:48:38.458Z</time>
      </trkpt>
      <trkpt lat="43.31436" lon="6.47124">
        <ele>350.693048</ele>
        <time>2021-05-18T22:48:39.626Z</time>
      </trkpt>
      <trkpt lat="43.31386" lon="6.4713">
        <ele>349.062207</ele>
        <time>2021-05-18T22:48:46.062Z</time>
      </trkpt>
      <trkpt lat="43.31347" lon="6.47139">
        <ele>347.776427</ele>
        <time>2021-05-18T22:48:51.525Z</time>
      </trkpt>
      <trkpt lat="43.31331" lon="6.47142">
        <ele>347.253024</ele>
        <time>2021-05-18T22:48:53.736Z</time>
      </trkpt>
      <trkpt lat="43.31325" lon="6.47143">
        <ele>347.050759</ele>
        <time>2021-05-18T22:48:54.473Z</time>
      </trkpt>
      <trkpt lat="43.31302" lon="6.47138">
        <ele>346.309289</ele>
        <time>2021-05-18T22:48:57.751Z</time>
      </trkpt>
      <trkpt lat="43.31284" lon="6.47131">
        <ele>345.692219</ele>
        <time>2021-05-18T22:49:00.312Z</time>
      </trkpt>
      <trkpt lat="43.31271" lon="6.47124">
        <ele>345.346398</ele>
        <time>2021-05-18T22:49:02.432Z</time>
      </trkpt>
      <trkpt lat="43.31258" lon="6.47118">
        <ele>345.080878</ele>
        <time>2021-05-18T22:49:04.285Z</time>
      </trkpt>
      <trkpt lat="43.31254" lon="6.47115">
        <ele>344.976943</ele>
        <time>2021-05-18T22:49:04.969Z</time>
      </trkpt>
      <trkpt lat="43.31239" lon="6.47108">
        <ele>344.665625</ele>
        <time>2021-05-18T22:49:07.356Z</time>
      </trkpt>
      <trkpt lat="43.3124" lon="6.47102">
        <ele>344.58123</ele>
        <time>2021-05-18T22:49:08.111Z</time>
      </trkpt>
      <trkpt lat="43.31239" lon="6.47094">
        <ele>344.464655</ele>
        <time>2021-05-18T22:49:08.975Z</time>
      </trkpt>
      <trkpt lat="43.31165" lon="6.47044">
        <ele>342.820035</ele>
        <time>2021-05-18T22:49:20.602Z</time>
      </trkpt>
      <trkpt lat="43.31112" lon="6.46998">
        <ele>341.871887</ele>
        <time>2021-05-18T22:49:30.737Z</time>
      </trkpt>
      <trkpt lat="43.31066" lon="6.46983">
        <ele>341.71852</ele>
        <time>2021-05-18T22:49:39.089Z</time>
      </trkpt>
      <trkpt lat="43.30998" lon="6.46958">
        <ele>341.490016</ele>
        <time>2021-05-18T22:49:51.422Z</time>
      </trkpt>
      <trkpt lat="43.30961" lon="6.46962">
        <ele>341.370593</ele>
        <time>2021-05-18T22:49:57.602Z</time>
      </trkpt>
      <trkpt lat="43.30932" lon="6.46956">
        <ele>341.795007</ele>
        <time>2021-05-18T22:50:02.460Z</time>
      </trkpt>
      <trkpt lat="43.30899" lon="6.46928">
        <ele>342.576354</ele>
        <time>2021-05-18T22:50:10.185Z</time>
      </trkpt>
      <trkpt lat="43.30868" lon="6.46878">
        <ele>343.530344</ele>
        <time>2021-05-18T22:50:22.247Z</time>
      </trkpt>
      <trkpt lat="43.30831" lon="6.46803">
        <ele>344.848283</ele>
        <time>2021-05-18T22:50:42.692Z</time>
      </trkpt>
      <trkpt lat="43.30773" lon="6.46738">
        <ele>348.858493</ele>
        <time>2021-05-18T22:51:10.573Z</time>
      </trkpt>
      <trkpt lat="43.30732" lon="6.46723">
        <ele>351.210186</ele>
        <time>2021-05-18T22:51:28.311Z</time>
      </trkpt>
      <trkpt lat="43.307" lon="6.46697">
        <ele>353.23564</ele>
        <time>2021-05-18T22:51:44.418Z</time>
      </trkpt>
      <trkpt lat="43.3065" lon="6.4668">
        <ele>356.268818</ele>
        <time>2021-05-18T22:52:07.524Z</time>
      </trkpt>
      <trkpt lat="43.30591" lon="6.46724">
        <ele>360.489635</ele>
        <time>2021-05-18T22:52:36.149Z</time>
      </trkpt>
      <trkpt lat="43.30572" lon="6.46732">
        <ele>361.733293</ele>
        <time>2021-05-18T22:52:44.423Z</time>
      </trkpt>
      <trkpt lat="43.30501" lon="6.46707">
        <ele>366.403583</ele>
        <time>2021-05-18T22:53:15.860Z</time>
      </trkpt>
      <trkpt lat="43.30419" lon="6.467">
        <ele>372.195262</ele>
        <time>2021-05-18T22:53:51.498Z</time>
      </trkpt>
      <trkpt lat="43.30294" lon="6.46747">
        <ele>381.62192</ele>
        <time>2021-05-18T22:54:54.077Z</time>
      </trkpt>
      <trkpt lat="43.30219" lon="6.46707">
        <ele>387.843389</ele>
        <time>2021-05-18T22:55:36.239Z</time>
      </trkpt>
      <trkpt lat="43.30178" lon="6.46739">
        <ele>391.538483</ele>
        <time>2021-05-18T22:55:59.524Z</time>
      </trkpt>
      <trkpt lat="43.30141" lon="6.46731">
        <ele>393.612084</ele>
        <time>2021-05-18T22:56:16.151Z</time>
      </trkpt>
      <trkpt lat="43.30109" lon="6.46757">
        <ele>394.927389</ele>
        <time>2021-05-18T22:56:30.996Z</time>
      </trkpt>
      <trkpt lat="43.30084" lon="6.46815">
        <ele>396.637457</ele>
        <time>2021-05-18T22:56:47.067Z</time>
      </trkpt>
      <trkpt lat="43.3007" lon="6.4686">
        <ele>397.889388</ele>
        <time>2021-05-18T22:56:56.705Z</time>
      </trkpt>
      <trkpt lat="43.3004" lon="6.46863">
        <ele>398.957743</ele>
        <time>2021-05-18T22:57:03.611Z</time>
      </trkpt>
      <trkpt lat="43.30001" lon="6.4685">
        <ele>398.878397</ele>
        <time>2021-05-18T22:57:10.656Z</time>
      </trkpt>
      <trkpt lat="43.2998" lon="6.46828">
        <ele>398.566326</ele>
        <time>2021-05-18T22:57:14.912Z</time>
      </trkpt>
      <trkpt lat="43.29963" lon="6.46782">
        <ele>398.124972</ele>
        <time>2021-05-18T22:57:20.439Z</time>
      </trkpt>
      <trkpt lat="43.29957" lon="6.46733">
        <ele>397.692921</ele>
        <time>2021-05-18T22:57:25.710Z</time>
      </trkpt>
      <trkpt lat="43.29959" lon="6.46692">
        <ele>397.338347</ele>
        <time>2021-05-18T22:57:30.140Z</time>
      </trkpt>
      <trkpt lat="43.29954" lon="6.46672">
        <ele>397.161006</ele>
        <time>2021-05-18T22:57:32.288Z</time>
      </trkpt>
      <trkpt lat="43.29902" lon="6.46579">
        <ele>398.46189</ele>
        <time>2021-05-18T22:57:46.815Z</time>
      </trkpt>
      <trkpt lat="43.29846" lon="6.46501">
        <ele>399.74641</ele>
        <time>2021-05-18T22:58:09.215Z</time>
      </trkpt>
      <trkpt lat="43.29818" lon="6.46443">
        <ele>403.391436</ele>
        <time>2021-05-18T22:58:31.705Z</time>
      </trkpt>
      <trkpt lat="43.29815" lon="6.46381">
        <ele>407.951863</ele>
        <time>2021-05-18T22:58:58.059Z</time>
      </trkpt>
      <trkpt lat="43.29835" lon="6.46323">
        <ele>412.657713</ele>
        <time>2021-05-18T22:59:28.957Z</time>
      </trkpt>
      <trkpt lat="43.29859" lon="6.46276">
        <ele>416.840006</ele>
        <time>2021-05-18T22:59:58.207Z</time>
      </trkpt>
      <trkpt lat="43.29902" lon="6.46244">
        <ele>421.96629</ele>
        <time>2021-05-18T23:00:31.989Z</time>
      </trkpt>
      <trkpt lat="43.2991" lon="6.46233">
        <ele>423.073308</ele>
        <time>2021-05-18T23:00:39.176Z</time>
      </trkpt>
      <trkpt lat="43.29908" lon="6.4622">
        <ele>424.147615</ele>
        <time>2021-05-18T23:00:45.515Z</time>
      </trkpt>
      <trkpt lat="43.29871" lon="6.46155">
        <ele>430.392093</ele>
        <time>2021-05-18T23:01:22.333Z</time>
      </trkpt>
      <trkpt lat="43.29843" lon="6.46149">
        <ele>433.362668</ele>
        <time>2021-05-18T23:01:38.411Z</time>
      </trkpt>
      <trkpt lat="43.29821" lon="6.46121">
        <ele>436.498448</ele>
        <time>2021-05-18T23:01:54.643Z</time>
      </trkpt>
      <trkpt lat="43.29809" lon="6.46116">
        <ele>437.729966</ele>
        <time>2021-05-18T23:02:01.466Z</time>
      </trkpt>
      <trkpt lat="43.29785" lon="6.4615">
        <ele>440.862127</ele>
        <time>2021-05-18T23:02:17.989Z</time>
      </trkpt>
      <trkpt lat="43.29747" lon="6.46166">
        <ele>444.485125</ele>
        <time>2021-05-18T23:02:36.877Z</time>
      </trkpt>
      <trkpt lat="43.29719" lon="6.46167">
        <ele>447.03389</ele>
        <time>2021-05-18T23:02:50.730Z</time>
      </trkpt>
      <trkpt lat="43.29704" lon="6.46155">
        <ele>448.603251</ele>
        <time>2021-05-18T23:03:00.239Z</time>
      </trkpt>
      <trkpt lat="43.29688" lon="6.46095">
        <ele>452.823361</ele>
        <time>2021-05-18T23:03:28.207Z</time>
      </trkpt>
      <trkpt lat="43.29687" lon="6.46024">
        <ele>459.705321</ele>
        <time>2021-05-18T23:04:03.571Z</time>
      </trkpt>
      <trkpt lat="43.29698" lon="6.45984">
        <ele>464.024067</ele>
        <time>2021-05-18T23:04:26.503Z</time>
      </trkpt>
      <trkpt lat="43.29685" lon="6.4593">
        <ele>469.822349</ele>
        <time>2021-05-18T23:04:58.511Z</time>
      </trkpt>
      <trkpt lat="43.2969" lon="6.45857">
        <ele>477.13663</ele>
        <time>2021-05-18T23:05:41.024Z</time>
      </trkpt>
      <trkpt lat="43.29711" lon="6.45824">
        <ele>481.436364</ele>
        <time>2021-05-18T23:06:07.587Z</time>
      </trkpt>
      <trkpt lat="43.29711" lon="6.45804">
        <ele>483.304839</ele>
        <time>2021-05-18T23:06:19.277Z</time>
      </trkpt>
      <trkpt lat="43.29707" lon="6.4579">
        <ele>484.740783</ele>
        <time>2021-05-18T23:06:28.254Z</time>
      </trkpt>
      <trkpt lat="43.29605" lon="6.45742">
        <ele>498.835047</ele>
        <time>2021-05-18T23:07:47.124Z</time>
      </trkpt>
      <trkpt lat="43.29571" lon="6.45706">
        <ele>502.065343</ele>
        <time>2021-05-18T23:08:10.837Z</time>
      </trkpt>
      <trkpt lat="43.29559" lon="6.4566">
        <ele>502.453636</ele>
        <time>2021-05-18T23:08:26.158Z</time>
      </trkpt>
      <trkpt lat="43.2955" lon="6.45612">
        <ele>502.84986</ele>
        <time>2021-05-18T23:08:37.962Z</time>
      </trkpt>
      <trkpt lat="43.29543" lon="6.45581">
        <ele>503.111763</ele>
        <time>2021-05-18T23:08:42.869Z</time>
      </trkpt>
      <trkpt lat="43.29512" lon="6.4551">
        <ele>503.773668</ele>
        <time>2021-05-18T23:08:50.838Z</time>
      </trkpt>
      <trkpt lat="43.29441" lon="6.45441">
        <ele>495.764014</ele>
        <time>2021-05-18T23:09:01.339Z</time>
      </trkpt>
      <trkpt lat="43.29437" lon="6.45438">
        <ele>495.262336</ele>
        <time>2021-05-18T23:09:02.289Z</time>
      </trkpt>
      <trkpt lat="43.29421" lon="6.45404">
        <ele>492.425648</ele>
        <time>2021-05-18T23:09:08.510Z</time>
      </trkpt>
      <trkpt lat="43.29399" lon="6.45302">
        <ele>485.079189</ele>
        <time>2021-05-18T23:09:24.072Z</time>
      </trkpt>
      <trkpt lat="43.29382" lon="6.45254">
        <ele>481.891902</ele>
        <time>2021-05-18T23:09:32.135Z</time>
      </trkpt>
      <trkpt lat="43.29365" lon="6.45065">
        <ele>470.882316</ele>
        <time>2021-05-18T23:10:02.859Z</time>
      </trkpt>
      <trkpt lat="43.29336" lon="6.44982">
        <ele>466.389923</ele>
        <time>2021-05-18T23:10:17.512Z</time>
      </trkpt>
      <trkpt lat="43.29308" lon="6.44953">
        <ele>464.067807</ele>
        <time>2021-05-18T23:10:25.029Z</time>
      </trkpt>
      <trkpt lat="43.29248" lon="6.44877">
        <ele>459.213483</ele>
        <time>2021-05-18T23:10:42.952Z</time>
      </trkpt>
      <trkpt lat="43.29181" lon="6.44824">
        <ele>457.099875</ele>
        <time>2021-05-18T23:11:00.823Z</time>
      </trkpt>
      <trkpt lat="43.29181" lon="6.44805">
        <ele>456.718691</ele>
        <time>2021-05-18T23:11:04.358Z</time>
      </trkpt>
      <trkpt lat="43.29195" lon="6.44745">
        <ele>455.460148</ele>
        <time>2021-05-18T23:11:17.146Z</time>
      </trkpt>
      <trkpt lat="43.29196" lon="6.44706">
        <ele>454.753419</ele>
        <time>2021-05-18T23:11:26.850Z</time>
      </trkpt>
      <trkpt lat="43.29191" lon="6.44665">
        <ele>455.670729</ele>
        <time>2021-05-18T23:11:38.505Z</time>
      </trkpt>
      <trkpt lat="43.29177" lon="6.4461">
        <ele>456.97842</ele>
        <time>2021-05-18T23:11:57.171Z</time>
      </trkpt>
      <trkpt lat="43.29155" lon="6.44554">
        <ele>458.419294</ele>
        <time>2021-05-18T23:12:19.474Z</time>
      </trkpt>
      <trkpt lat="43.29145" lon="6.44536">
        <ele>458.92856</ele>
        <time>2021-05-18T23:12:27.075Z</time>
      </trkpt>
      <trkpt lat="43.29138" lon="6.44524">
        <ele>459.27778</ele>
        <time>2021-05-18T23:12:32.497Z</time>
      </trkpt>
      <trkpt lat="43.29097" lon="6.44507">
        <ele>459.966804</ele>
        <time>2021-05-18T23:12:51.486Z</time>
      </trkpt>
      <trkpt lat="43.29053" lon="6.44452">
        <ele>458.276489</ele>
        <time>2021-05-18T23:13:11.912Z</time>
      </trkpt>
      <trkpt lat="43.29037" lon="6.4444">
        <ele>457.748069</ele>
        <time>2021-05-18T23:13:16.979Z</time>
      </trkpt>
      <trkpt lat="43.29003" lon="6.44391">
        <ele>456.358508</ele>
        <time>2021-05-18T23:13:28.606Z</time>
      </trkpt>
      <trkpt lat="43.28985" lon="6.44311">
        <ele>452.396689</ele>
        <time>2021-05-18T23:13:41.514Z</time>
      </trkpt>
      <trkpt lat="43.28944" lon="6.44255">
        <ele>443.588104</ele>
        <time>2021-05-18T23:13:52.996Z</time>
      </trkpt>
      <trkpt lat="43.2891" lon="6.44185">
        <ele>434.331476</ele>
        <time>2021-05-18T23:14:04.645Z</time>
      </trkpt>
      <trkpt lat="43.28899" lon="6.44177">
        <ele>432.352011</ele>
        <time>2021-05-18T23:14:07.108Z</time>
      </trkpt>
      <trkpt lat="43.28875" lon="6.44176">
        <ele>428.825018</ele>
        <time>2021-05-18T23:14:11.465Z</time>
      </trkpt>
      <trkpt lat="43.28813" lon="6.44221">
        <ele>415.09364</ele>
        <time>2021-05-18T23:14:24.672Z</time>
      </trkpt>
      <trkpt lat="43.28798" lon="6.44233">
        <ele>411.713917</ele>
        <time>2021-05-18T23:14:27.841Z</time>
      </trkpt>
      <trkpt lat="43.28781" lon="6.44267">
        <ele>405.765588</ele>
        <time>2021-05-18T23:14:33.444Z</time>
      </trkpt>
      <trkpt lat="43.28776" lon="6.44262">
        <ele>404.65707</ele>
        <time>2021-05-18T23:14:34.482Z</time>
      </trkpt>
      <trkpt lat="43.28767" lon="6.44191">
        <ele>394.286659</ele>
        <time>2021-05-18T23:14:44.298Z</time>
      </trkpt>
      <trkpt lat="43.28759" lon="6.44166">
        <ele>390.94622</ele>
        <time>2021-05-18T23:14:48.052Z</time>
      </trkpt>
      <trkpt lat="43.28735" lon="6.44151">
        <ele>387.362229</ele>
        <time>2021-05-18T23:14:52.972Z</time>
      </trkpt>
      <trkpt lat="43.28712" lon="6.44151">
        <ele>384.164655</ele>
        <time>2021-05-18T23:14:57.391Z</time>
      </trkpt>
      <trkpt lat="43.28649" lon="6.44132">
        <ele>375.317347</ele>
        <time>2021-05-18T23:15:09.858Z</time>
      </trkpt>
      <trkpt lat="43.28617" lon="6.44166">
        <ele>369.760031</ele>
        <time>2021-05-18T23:15:18.068Z</time>
      </trkpt>
      <trkpt lat="43.28558" lon="6.44198">
        <ele>368.025194</ele>
        <time>2021-05-18T23:15:31.921Z</time>
      </trkpt>
      <trkpt lat="43.28541" lon="6.44194">
        <ele>368.204348</ele>
        <time>2021-05-18T23:15:36.580Z</time>
      </trkpt>
      <trkpt lat="43.28528" lon="6.44179">
        <ele>368.365055</ele>
        <time>2021-05-18T23:15:41.082Z</time>
      </trkpt>
      <trkpt lat="43.28493" lon="6.44078">
        <ele>369.171674</ele>
        <time>2021-05-18T23:16:19.875Z</time>
      </trkpt>
      <trkpt lat="43.28467" lon="6.44041">
        <ele>371.770869</ele>
        <time>2021-05-18T23:16:46.111Z</time>
      </trkpt>
      <trkpt lat="43.28408" lon="6.43918">
        <ele>383.91946</ele>
        <time>2021-05-18T23:18:13.016Z</time>
      </trkpt>
      <trkpt lat="43.28394" lon="6.43862">
        <ele>388.784947</ele>
        <time>2021-05-18T23:18:47.785Z</time>
      </trkpt>
      <trkpt lat="43.28396" lon="6.43828">
        <ele>390.509083</ele>
        <time>2021-05-18T23:19:06.770Z</time>
      </trkpt>
      <trkpt lat="43.28388" lon="6.43776">
        <ele>392.300157</ele>
        <time>2021-05-18T23:19:33.512Z</time>
      </trkpt>
      <trkpt lat="43.28339" lon="6.43648">
        <ele>397.075691</ele>
        <time>2021-05-18T23:20:19.996Z</time>
      </trkpt>
      <trkpt lat="43.28313" lon="6.43642">
        <ele>397.549936</ele>
        <time>2021-05-18T23:20:26.714Z</time>
      </trkpt>
      <trkpt lat="43.28244" lon="6.43676">
        <ele>392.114904</ele>
        <time>2021-05-18T23:20:43.199Z</time>
      </trkpt>
      <trkpt lat="43.28238" lon="6.43686">
        <ele>391.448482</ele>
        <time>2021-05-18T23:20:45.104Z</time>
      </trkpt>
      <trkpt lat="43.28239" lon="6.43707">
        <ele>390.275904</ele>
        <time>2021-05-18T23:20:48.471Z</time>
      </trkpt>
      <trkpt lat="43.28258" lon="6.43761">
        <ele>387.077736</ele>
        <time>2021-05-18T23:20:57.426Z</time>
      </trkpt>
      <trkpt lat="43.28254" lon="6.43825">
        <ele>383.092412</ele>
        <time>2021-05-18T23:21:06.961Z</time>
      </trkpt>
      <trkpt lat="43.28246" lon="6.4384">
        <ele>381.664028</ele>
        <time>2021-05-18T23:21:09.640Z</time>
      </trkpt>
      <trkpt lat="43.28219" lon="6.43847">
        <ele>378.749508</ele>
        <time>2021-05-18T23:21:15.097Z</time>
      </trkpt>
      <trkpt lat="43.28176" lon="6.43916">
        <ele>371.620667</ele>
        <time>2021-05-18T23:21:28.570Z</time>
      </trkpt>
      <trkpt lat="43.28148" lon="6.43921">
        <ele>368.6961</ele>
        <time>2021-05-18T23:21:34.171Z</time>
      </trkpt>
      <trkpt lat="43.2811" lon="6.43957">
        <ele>364.247265</ele>
        <time>2021-05-18T23:21:43.854Z</time>
      </trkpt>
      <trkpt lat="43.28036" lon="6.44089">
        <ele>354.941742</ele>
        <time>2021-05-18T23:22:10.120Z</time>
      </trkpt>
      <trkpt lat="43.28023" lon="6.44121">
        <ele>352.942302</ele>
        <time>2021-05-18T23:22:15.914Z</time>
      </trkpt>
      <trkpt lat="43.28022" lon="6.44154">
        <ele>351.173925</ele>
        <time>2021-05-18T23:22:21.196Z</time>
      </trkpt>
      <trkpt lat="43.28016" lon="6.44163">
        <ele>350.550898</ele>
        <time>2021-05-18T23:22:23.162Z</time>
      </trkpt>
      <trkpt lat="43.28005" lon="6.44116">
        <ele>348.014449</ele>
        <time>2021-05-18T23:22:31.096Z</time>
      </trkpt>
      <trkpt lat="43.28007" lon="6.44109">
        <ele>347.604171</ele>
        <time>2021-05-18T23:22:32.380Z</time>
      </trkpt>
      <trkpt lat="43.28016" lon="6.44073">
        <ele>345.642888</ele>
        <time>2021-05-18T23:22:38.526Z</time>
      </trkpt>
      <trkpt lat="43.28062" lon="6.43886">
        <ele>334.432224</ele>
        <time>2021-05-18T23:23:09.336Z</time>
      </trkpt>
      <trkpt lat="43.28066" lon="6.43859">
        <ele>332.603236</ele>
        <time>2021-05-18T23:23:13.522Z</time>
      </trkpt>
      <trkpt lat="43.28086" lon="6.43721">
        <ele>323.266023</ele>
        <time>2021-05-18T23:23:34.824Z</time>
      </trkpt>
      <trkpt lat="43.28089" lon="6.43639">
        <ele>318.747462</ele>
        <time>2021-05-18T23:23:47.103Z</time>
      </trkpt>
      <trkpt lat="43.28084" lon="6.43562">
        <ele>314.625885</ele>
        <time>2021-05-18T23:23:59.113Z</time>
      </trkpt>
      <trkpt lat="43.28059" lon="6.43539">
        <ele>312.426521</ele>
        <time>2021-05-18T23:24:05.925Z</time>
      </trkpt>
      <trkpt lat="43.28055" lon="6.43497">
        <ele>310.205882</ele>
        <time>2021-05-18T23:24:12.991Z</time>
      </trkpt>
      <trkpt lat="43.2803" lon="6.43441">
        <ele>309.298687</ele>
        <time>2021-05-18T23:24:25.023Z</time>
      </trkpt>
      <trkpt lat="43.28035" lon="6.43432">
        <ele>309.270495</ele>
        <time>2021-05-18T23:24:26.664Z</time>
      </trkpt>
      <trkpt lat="43.28045" lon="6.43414">
        <ele>309.208643</ele>
        <time>2021-05-18T23:24:35.105Z</time>
      </trkpt>
      <trkpt lat="43.28063" lon="6.43396">
        <ele>309.131163</ele>
        <time>2021-05-18T23:24:40.556Z</time>
      </trkpt>
      <trkpt lat="43.28104" lon="6.43393">
        <ele>308.984767</ele>
        <time>2021-05-18T23:24:56.117Z</time>
      </trkpt>
      <trkpt lat="43.28119" lon="6.43386">
        <ele>308.929843</ele>
        <time>2021-05-18T23:25:03.459Z</time>
      </trkpt>
      <trkpt lat="43.2813" lon="6.434">
        <ele>308.87568</ele>
        <time>2021-05-18T23:25:07.212Z</time>
      </trkpt>
      <trkpt lat="43.2814" lon="6.43424">
        <ele>308.802707</ele>
        <time>2021-05-18T23:25:17.345Z</time>
      </trkpt>
      <trkpt lat="43.28175" lon="6.43428">
        <ele>307.675408</ele>
        <time>2021-05-18T23:25:29.168Z</time>
      </trkpt>
      <trkpt lat="43.28212" lon="6.43423">
        <ele>306.347136</ele>
        <time>2021-05-18T23:25:38.958Z</time>
      </trkpt>
      <trkpt lat="43.28251" lon="6.43382">
        <ele>304.603665</ele>
        <time>2021-05-18T23:25:50.496Z</time>
      </trkpt>
      <trkpt lat="43.2828" lon="6.43376">
        <ele>303.551106</ele>
        <time>2021-05-18T23:25:57.179Z</time>
      </trkpt>
      <trkpt lat="43.28326" lon="6.43377">
        <ele>301.331811</ele>
        <time>2021-05-18T23:26:07.069Z</time>
      </trkpt>
      <trkpt lat="43.28336" lon="6.43361">
        <ele>300.060473</ele>
        <time>2021-05-18T23:26:10.339Z</time>
      </trkpt>
      <trkpt lat="43.28338" lon="6.43275">
        <ele>294.903439</ele>
        <time>2021-05-18T23:26:23.464Z</time>
      </trkpt>
      <trkpt lat="43.28355" lon="6.43244">
        <ele>292.555984</ele>
        <time>2021-05-18T23:26:29.471Z</time>
      </trkpt>
      <trkpt lat="43.28387" lon="6.43221">
        <ele>289.621618</ele>
        <time>2021-05-18T23:26:37.067Z</time>
      </trkpt>
      <trkpt lat="43.28422" lon="6.43209">
        <ele>286.763502</ele>
        <time>2021-05-18T23:26:44.911Z</time>
      </trkpt>
      <trkpt lat="43.28441" lon="6.4321">
        <ele>285.418803</ele>
        <time>2021-05-18T23:26:48.942Z</time>
      </trkpt>
      <trkpt lat="43.2848" lon="6.43237">
        <ele>282.237918</ele>
        <time>2021-05-18T23:26:58.549Z</time>
      </trkpt>
      <trkpt lat="43.28549" lon="6.43184">
        <ele>276.536347</ele>
        <time>2021-05-18T23:27:15.629Z</time>
      </trkpt>
      <trkpt lat="43.28576" lon="6.43178">
        <ele>274.602897</ele>
        <time>2021-05-18T23:27:21.532Z</time>
      </trkpt>
      <trkpt lat="43.28588" lon="6.43159">
        <ele>273.487381</ele>
        <time>2021-05-18T23:27:25.668Z</time>
      </trkpt>
      <trkpt lat="43.28614" lon="6.43143">
        <ele>271.809329</ele>
        <time>2021-05-18T23:27:31.892Z</time>
      </trkpt>
      <trkpt lat="43.28624" lon="6.43104">
        <ele>270.017409</ele>
        <time>2021-05-18T23:27:38.560Z</time>
      </trkpt>
      <trkpt lat="43.28655" lon="6.43044">
        <ele>266.800984</ele>
        <time>2021-05-18T23:27:50.654Z</time>
      </trkpt>
      <trkpt lat="43.28665" lon="6.43039">
        <ele>266.190132</ele>
        <time>2021-05-18T23:27:53.010Z</time>
      </trkpt>
      <trkpt lat="43.28754" lon="6.43147">
        <ele>259.422999</ele>
        <time>2021-05-18T23:28:20.432Z</time>
      </trkpt>
      <trkpt lat="43.28763" lon="6.43168">
        <ele>258.47501</ele>
        <time>2021-05-18T23:28:24.341Z</time>
      </trkpt>
      <trkpt lat="43.28762" lon="6.432">
        <ele>257.184447</ele>
        <time>2021-05-18T23:28:29.679Z</time>
      </trkpt>
      <trkpt lat="43.28775" lon="6.43207">
        <ele>256.418177</ele>
        <time>2021-05-18T23:28:32.774Z</time>
      </trkpt>
      <trkpt lat="43.28786" lon="6.43195">
        <ele>255.608871</ele>
        <time>2021-05-18T23:28:36.039Z</time>
      </trkpt>
      <trkpt lat="43.28789" lon="6.4316">
        <ele>254.179412</ele>
        <time>2021-05-18T23:28:41.759Z</time>
      </trkpt>
      <trkpt lat="43.28775" lon="6.43088">
        <ele>251.022642</ele>
        <time>2021-05-18T23:28:53.602Z</time>
      </trkpt>
      <trkpt lat="43.2878" lon="6.4308">
        <ele>250.535872</ele>
        <time>2021-05-18T23:28:55.407Z</time>
      </trkpt>
      <trkpt lat="43.2882" lon="6.43081">
        <ele>248.173793</ele>
        <time>2021-05-18T23:29:04.187Z</time>
      </trkpt>
      <trkpt lat="43.28822" lon="6.43067">
        <ele>247.588211</ele>
        <time>2021-05-18T23:29:06.370Z</time>
      </trkpt>
      <trkpt lat="43.28772" lon="6.43036">
        <ele>244.360403</ele>
        <time>2021-05-18T23:29:18.692Z</time>
      </trkpt>
      <trkpt lat="43.28755" lon="6.43032">
        <ele>243.302749</ele>
        <time>2021-05-18T23:29:22.830Z</time>
      </trkpt>
      <trkpt lat="43.28742" lon="6.43012">
        <ele>243.260311</ele>
        <time>2021-05-18T23:29:27.476Z</time>
      </trkpt>
      <trkpt lat="43.28736" lon="6.42981">
        <ele>243.209781</ele>
        <time>2021-05-18T23:29:33.198Z</time>
      </trkpt>
      <trkpt lat="43.28741" lon="6.42953">
        <ele>243.164589</ele>
        <time>2021-05-18T23:29:38.594Z</time>
      </trkpt>
      <trkpt lat="43.28804" lon="6.42878">
        <ele>242.982613</ele>
        <time>2021-05-18T23:30:04.825Z</time>
      </trkpt>
      <trkpt lat="43.28836" lon="6.42866">
        <ele>242.959249</ele>
        <time>2021-05-18T23:30:19.139Z</time>
      </trkpt>
      <trkpt lat="43.2889" lon="6.42868">
        <ele>246.012692</ele>
        <time>2021-05-18T23:30:46.741Z</time>
      </trkpt>
      <trkpt lat="43.28955" lon="6.42843">
        <ele>249.783256</ele>
        <time>2021-05-18T23:31:23.905Z</time>
      </trkpt>
      <trkpt lat="43.28976" lon="6.42853">
        <ele>251.053954</ele>
        <time>2021-05-18T23:31:36.737Z</time>
      </trkpt>
      <trkpt lat="43.29002" lon="6.42845">
        <ele>252.524081</ele>
        <time>2021-05-18T23:31:51.429Z</time>
      </trkpt>
      <trkpt lat="43.29044" lon="6.42801">
        <ele>255.172336</ele>
        <time>2021-05-18T23:32:19.966Z</time>
      </trkpt>
      <trkpt lat="43.29102" lon="6.42794">
        <ele>258.036982</ele>
        <time>2021-05-18T23:32:49.943Z</time>
      </trkpt>
      <trkpt lat="43.29166" lon="6.42821">
        <ele>261.34</ele>
        <time>2021-05-18T23:33:21.064Z</time>
      </trkpt>
      <trkpt lat="43.29172" lon="6.42811">
        <ele>261.808855</ele>
        <time>2021-05-18T23:33:25.168Z</time>
      </trkpt>
      <trkpt lat="43.29158" lon="6.42793">
        <ele>262.391561</ele>
        <time>2021-05-18T23:33:33.264Z</time>
      </trkpt>
      <trkpt lat="43.29126" lon="6.42717">
        <ele>264.272698</ele>
        <time>2021-05-18T23:33:58.567Z</time>
      </trkpt>
      <trkpt lat="43.28999" lon="6.42695">
        <ele>268.42067</ele>
        <time>2021-05-18T23:34:50.935Z</time>
      </trkpt>
      <trkpt lat="43.28967" lon="6.42683">
        <ele>269.857983</ele>
        <time>2021-05-18T23:35:05.797Z</time>
      </trkpt>
      <trkpt lat="43.28949" lon="6.42653">
        <ele>271.043566</ele>
        <time>2021-05-18T23:35:18.562Z</time>
      </trkpt>
      <trkpt lat="43.28934" lon="6.4265">
        <ele>271.699375</ele>
        <time>2021-05-18T23:35:25.860Z</time>
      </trkpt>
      <trkpt lat="43.28912" lon="6.42683">
        <ele>273.073784</ele>
        <time>2021-05-18T23:35:41.231Z</time>
      </trkpt>
      <trkpt lat="43.28884" lon="6.42702">
        <ele>274.400575</ele>
        <time>2021-05-18T23:35:56.817Z</time>
      </trkpt>
      <trkpt lat="43.28865" lon="6.42705">
        <ele>275.440268</ele>
        <time>2021-05-18T23:36:07.036Z</time>
      </trkpt>
      <trkpt lat="43.28854" lon="6.42701">
        <ele>276.225499</ele>
        <time>2021-05-18T23:36:13.433Z</time>
      </trkpt>
      <trkpt lat="43.28835" lon="6.42679">
        <ele>277.827943</ele>
        <time>2021-05-18T23:36:27.344Z</time>
      </trkpt>
      <trkpt lat="43.28767" lon="6.42672">
        <ele>282.235619</ele>
        <time>2021-05-18T23:37:06.167Z</time>
      </trkpt>
      <trkpt lat="43.2874" lon="6.42662">
        <ele>284.009663</ele>
        <time>2021-05-18T23:37:21.873Z</time>
      </trkpt>
      <trkpt lat="43.28682" lon="6.42608">
        <ele>288.584741</ele>
        <time>2021-05-18T23:38:01.312Z</time>
      </trkpt>
      <trkpt lat="43.28633" lon="6.42582">
        <ele>292.057745</ele>
        <time>2021-05-18T23:38:30.636Z</time>
      </trkpt>
      <trkpt lat="43.2863" lon="6.4256">
        <ele>293.162771</ele>
        <time>2021-05-18T23:38:40.106Z</time>
      </trkpt>
      <trkpt lat="43.28639" lon="6.42535">
        <ele>294.493991</ele>
        <time>2021-05-18T23:38:51.407Z</time>
      </trkpt>
      <trkpt lat="43.28679" lon="6.42481">
        <ele>298.193865</ele>
        <time>2021-05-18T23:39:22.498Z</time>
      </trkpt>
      <trkpt lat="43.28704" lon="6.42392">
        <ele>304.548991</ele>
        <time>2021-05-18T23:40:01.316Z</time>
      </trkpt>
      <trkpt lat="43.28704" lon="6.42355">
        <ele>307.044803</ele>
        <time>2021-05-18T23:40:22.132Z</time>
      </trkpt>
      <trkpt lat="43.28712" lon="6.4232">
        <ele>309.531428</ele>
        <time>2021-05-18T23:40:41.948Z</time>
      </trkpt>
      <trkpt lat="43.2874" lon="6.42293">
        <ele>312.678005</ele>
        <time>2021-05-18T23:41:07.393Z</time>
      </trkpt>
      <trkpt lat="43.28762" lon="6.42284">
        <ele>314.783748</ele>
        <time>2021-05-18T23:41:23.795Z</time>
      </trkpt>
      <trkpt lat="43.28794" lon="6.42286">
        <ele>317.42999</ele>
        <time>2021-05-18T23:41:46.807Z</time>
      </trkpt>
      <trkpt lat="43.28803" lon="6.42291">
        <ele>318.254317</ele>
        <time>2021-05-18T23:41:52.304Z</time>
      </trkpt>
      <trkpt lat="43.28817" lon="6.4231">
        <ele>319.901114</ele>
        <time>2021-05-18T23:42:07.900Z</time>
      </trkpt>
      <trkpt lat="43.28836" lon="6.42319">
        <ele>321.502612</ele>
        <time>2021-05-18T23:42:19.035Z</time>
      </trkpt>
      <trkpt lat="43.28866" lon="6.42331">
        <ele>324.094476</ele>
        <time>2021-05-18T23:42:38.357Z</time>
      </trkpt>
      <trkpt lat="43.28889" lon="6.42328">
        <ele>325.96507</ele>
        <time>2021-05-18T23:42:53.784Z</time>
      </trkpt>
      <trkpt lat="43.28888" lon="6.42304">
        <ele>327.417597</ele>
        <time>2021-05-18T23:43:02.653Z</time>
      </trkpt>
      <trkpt lat="43.28914" lon="6.42239">
        <ele>331.017906</ele>
        <time>2021-05-18T23:43:32.966Z</time>
      </trkpt>
      <trkpt lat="43.2886" lon="6.42106">
        <ele>336.752363</ele>
        <time>2021-05-18T23:44:19.258Z</time>
      </trkpt>
      <trkpt lat="43.28864" lon="6.42064">
        <ele>338.31027</ele>
        <time>2021-05-18T23:44:37.055Z</time>
      </trkpt>
      <trkpt lat="43.28875" lon="6.42025">
        <ele>340.649011</ele>
        <time>2021-05-18T23:44:56.294Z</time>
      </trkpt>
      <trkpt lat="43.28871" lon="6.41974">
        <ele>344.120612</ele>
        <time>2021-05-18T23:45:20.825Z</time>
      </trkpt>
      <trkpt lat="43.28877" lon="6.41958">
        <ele>345.316494</ele>
        <time>2021-05-18T23:45:29.600Z</time>
      </trkpt>
      <trkpt lat="43.28883" lon="6.41957">
        <ele>345.861388</ele>
        <time>2021-05-18T23:45:33.136Z</time>
      </trkpt>
      <trkpt lat="43.28883" lon="6.41957">
        <ele>345.861388</ele>
        <time>2021-05-18T23:45:33.758Z</time>
      </trkpt>
      <trkpt lat="43.28898" lon="6.41946">
        <ele>347.386213</ele>
        <time>2021-05-18T23:45:43.954Z</time>
      </trkpt>
      <trkpt lat="43.28923" lon="6.41939">
        <ele>349.765013</ele>
        <time>2021-05-18T23:46:03.588Z</time>
      </trkpt>
      <trkpt lat="43.28944" lon="6.41942">
        <ele>351.759691</ele>
        <time>2021-05-18T23:46:18.163Z</time>
      </trkpt>
      <trkpt lat="43.28966" lon="6.41961">
        <ele>354.155166</ele>
        <time>2021-05-18T23:46:36.614Z</time>
      </trkpt>
      <trkpt lat="43.29024" lon="6.41958">
        <ele>356.658431</ele>
        <time>2021-05-18T23:47:16.035Z</time>
      </trkpt>
      <trkpt lat="43.29037" lon="6.41949">
        <ele>357.076749</ele>
        <time>2021-05-18T23:47:23.676Z</time>
      </trkpt>
      <trkpt lat="43.29049" lon="6.41929">
        <ele>357.608826</ele>
        <time>2021-05-18T23:47:30.863Z</time>
      </trkpt>
      <trkpt lat="43.29066" lon="6.41916">
        <ele>358.150203</ele>
        <time>2021-05-18T23:47:37.459Z</time>
      </trkpt>
      <trkpt lat="43.29078" lon="6.41916">
        <ele>358.49526</ele>
        <time>2021-05-18T23:47:41.544Z</time>
      </trkpt>
      <trkpt lat="43.29158" lon="6.41963">
        <ele>360.167717</ele>
        <time>2021-05-18T23:48:05.341Z</time>
      </trkpt>
      <trkpt lat="43.29188" lon="6.4197">
        <ele>359.502552</ele>
        <time>2021-05-18T23:48:12.889Z</time>
      </trkpt>
      <trkpt lat="43.29199" lon="6.41959">
        <ele>359.209763</ele>
        <time>2021-05-18T23:48:16.109Z</time>
      </trkpt>
      <trkpt lat="43.29199" lon="6.41897">
        <ele>358.221716</ele>
        <time>2021-05-18T23:48:27.017Z</time>
      </trkpt>
      <trkpt lat="43.29206" lon="6.41871">
        <ele>357.784352</ele>
        <time>2021-05-18T23:48:32.037Z</time>
      </trkpt>
      <trkpt lat="43.29207" lon="6.41844">
        <ele>357.350653</ele>
        <time>2021-05-18T23:48:37.079Z</time>
      </trkpt>
      <trkpt lat="43.2919" lon="6.41821">
        <ele>356.83334</ele>
        <time>2021-05-18T23:48:43.485Z</time>
      </trkpt>
      <trkpt lat="43.29185" lon="6.4179">
        <ele>356.659594</ele>
        <time>2021-05-18T23:48:51.618Z</time>
      </trkpt>
      <trkpt lat="43.29196" lon="6.41769">
        <ele>356.821291</ele>
        <time>2021-05-18T23:48:56.423Z</time>
      </trkpt>
      <trkpt lat="43.29233" lon="6.41743">
        <ele>357.163207</ele>
        <time>2021-05-18T23:49:09.585Z</time>
      </trkpt>
      <trkpt lat="43.29261" lon="6.41784">
        <ele>357.506894</ele>
        <time>2021-05-18T23:49:26.100Z</time>
      </trkpt>
      <trkpt lat="43.29285" lon="6.41802">
        <ele>357.730964</ele>
        <time>2021-05-18T23:49:37.183Z</time>
      </trkpt>
      <trkpt lat="43.29305" lon="6.41809">
        <ele>357.905066</ele>
        <time>2021-05-18T23:49:48.321Z</time>
      </trkpt>
      <trkpt lat="43.29305" lon="6.41809">
        <ele>357.905066</ele>
        <time>2021-05-18T23:49:48.478Z</time>
      </trkpt>
      <trkpt lat="43.29305" lon="6.41809">
        <ele>357.905066</ele>
        <time>2021-05-18T23:49:48.496Z</time>
      </trkpt>
      <trkpt lat="43.29305" lon="6.41809">
        <ele>357.905066</ele>
        <time>2021-05-18T23:49:48.498Z</time>
      </trkpt>
      <trkpt lat="43.29362" lon="6.41778">
        <ele>356.871866</ele>
        <time>2021-05-18T23:50:04.269Z</time>
      </trkpt>
      <trkpt lat="43.29419" lon="6.41748">
        <ele>355.118889</ele>
        <time>2021-05-18T23:50:20.042Z</time>
      </trkpt>
      <trkpt lat="43.29417" lon="6.41746">
        <ele>355.064379</ele>
        <time>2021-05-18T23:50:20.504Z</time>
      </trkpt>
      <trkpt lat="43.29402" lon="6.4174">
        <ele>354.602453</ele>
        <time>2021-05-18T23:50:25.017Z</time>
      </trkpt>
      <trkpt lat="43.29385" lon="6.41743">
        <ele>354.112781</ele>
        <time>2021-05-18T23:50:28.655Z</time>
      </trkpt>
      <trkpt lat="43.29364" lon="6.41731">
        <ele>353.45082</ele>
        <time>2021-05-18T23:50:33.891Z</time>
      </trkpt>
      <trkpt lat="43.29349" lon="6.41712">
        <ele>352.830928</ele>
        <time>2021-05-18T23:50:38.488Z</time>
      </trkpt>
      <trkpt lat="43.29338" lon="6.41686">
        <ele>351.220986</ele>
        <time>2021-05-18T23:50:43.326Z</time>
      </trkpt>
      <trkpt lat="43.29329" lon="6.4162">
        <ele>347.575924</ele>
        <time>2021-05-18T23:50:53.926Z</time>
      </trkpt>
      <trkpt lat="43.29313" lon="6.41549">
        <ele>343.60089</ele>
        <time>2021-05-18T23:51:05.049Z</time>
      </trkpt>
      <trkpt lat="43.29319" lon="6.41515">
        <ele>341.71632</ele>
        <time>2021-05-18T23:51:10.695Z</time>
      </trkpt>
      <trkpt lat="43.29316" lon="6.4149">
        <ele>340.309365</ele>
        <time>2021-05-18T23:51:14.902Z</time>
      </trkpt>
      <trkpt lat="43.29296" lon="6.41487">
        <ele>339.19496</ele>
        <time>2021-05-18T23:51:19.327Z</time>
      </trkpt>
      <trkpt lat="43.29249" lon="6.41496">
        <ele>337.417363</ele>
        <time>2021-05-18T23:51:29.874Z</time>
      </trkpt>
      <trkpt lat="43.2919" lon="6.41473">
        <ele>335.133959</ele>
        <time>2021-05-18T23:51:44.517Z</time>
      </trkpt>
      <trkpt lat="43.29167" lon="6.4143">
        <ele>333.678646</ele>
        <time>2021-05-18T23:51:54.587Z</time>
      </trkpt>
      <trkpt lat="43.29146" lon="6.41378">
        <ele>333.307753</ele>
        <time>2021-05-18T23:52:06.560Z</time>
      </trkpt>
      <trkpt lat="43.29138" lon="6.41332">
        <ele>334.091143</ele>
        <time>2021-05-18T23:52:17.187Z</time>
      </trkpt>
      <trkpt lat="43.29104" lon="6.41134">
        <ele>338.439975</ele>
        <time>2021-05-18T23:53:21.736Z</time>
      </trkpt>
      <trkpt lat="43.29105" lon="6.41105">
        <ele>339.861216</ele>
        <time>2021-05-18T23:53:32.748Z</time>
      </trkpt>
      <trkpt lat="43.29122" lon="6.41063">
        <ele>342.154756</ele>
        <time>2021-05-18T23:53:51.499Z</time>
      </trkpt>
      <trkpt lat="43.29135" lon="6.41042">
        <ele>343.511599</ele>
        <time>2021-05-18T23:54:03.506Z</time>
      </trkpt>
      <trkpt lat="43.29154" lon="6.41025">
        <ele>345.02144</ele>
        <time>2021-05-18T23:54:17.114Z</time>
      </trkpt>
      <trkpt lat="43.2916" lon="6.41002">
        <ele>346.192805</ele>
        <time>2021-05-18T23:54:28.199Z</time>
      </trkpt>
      <trkpt lat="43.29145" lon="6.40991">
        <ele>347.310665</ele>
        <time>2021-05-18T23:54:38.619Z</time>
      </trkpt>
      <trkpt lat="43.29118" lon="6.40992">
        <ele>349.166859</ele>
        <time>2021-05-18T23:54:56.213Z</time>
      </trkpt>
      <trkpt lat="43.29094" lon="6.40985">
        <ele>350.976613</ele>
        <time>2021-05-18T23:55:12.445Z</time>
      </trkpt>
      <trkpt lat="43.29086" lon="6.40968">
        <ele>352.058727</ele>
        <time>2021-05-18T23:55:21.768Z</time>
      </trkpt>
      <trkpt lat="43.29087" lon="6.409">
        <ele>355.723869</ele>
        <time>2021-05-18T23:55:53.602Z</time>
      </trkpt>
      <trkpt lat="43.29077" lon="6.4088">
        <ele>357.063475</ele>
        <time>2021-05-18T23:56:04.751Z</time>
      </trkpt>
      <trkpt lat="43.29068" lon="6.40838">
        <ele>359.405213</ele>
        <time>2021-05-18T23:56:23.216Z</time>
      </trkpt>
      <trkpt lat="43.29055" lon="6.40837">
        <ele>360.374478</ele>
        <time>2021-05-18T23:56:30.321Z</time>
      </trkpt>
      <trkpt lat="43.29048" lon="6.40848">
        <ele>361.161269</ele>
        <time>2021-05-18T23:56:36.103Z</time>
      </trkpt>
      <trkpt lat="43.29048" lon="6.40866">
        <ele>362.163312</ele>
        <time>2021-05-18T23:56:43.248Z</time>
      </trkpt>
      <trkpt lat="43.29029" lon="6.40912">
        <ele>362.192865</ele>
        <time>2021-05-18T23:57:01.576Z</time>
      </trkpt>
      <trkpt lat="43.29029" lon="6.40953">
        <ele>362.189614</ele>
        <time>2021-05-18T23:57:13.166Z</time>
      </trkpt>
      <trkpt lat="43.29046" lon="6.41028">
        <ele>362.183252</ele>
        <time>2021-05-18T23:57:29.802Z</time>
      </trkpt>
      <trkpt lat="43.29018" lon="6.4108">
        <ele>362.178034</ele>
        <time>2021-05-18T23:57:41.313Z</time>
      </trkpt>
      <trkpt lat="43.2901" lon="6.41149">
        <ele>358.337749</ele>
        <time>2021-05-18T23:57:52.523Z</time>
      </trkpt>
      <trkpt lat="43.28998" lon="6.41181">
        <ele>355.966105</ele>
        <time>2021-05-18T23:57:58.072Z</time>
      </trkpt>
      <trkpt lat="43.28959" lon="6.41407">
        <ele>340.189499</ele>
        <time>2021-05-18T23:58:32.449Z</time>
      </trkpt>
      <trkpt lat="43.28944" lon="6.41455">
        <ele>336.502603</ele>
        <time>2021-05-18T23:58:40.103Z</time>
      </trkpt>
      <trkpt lat="43.28924" lon="6.41466">
        <ele>334.44653</ele>
        <time>2021-05-18T23:58:44.433Z</time>
      </trkpt>
      <trkpt lat="43.28904" lon="6.41461">
        <ele>332.478134</ele>
        <time>2021-05-18T23:58:48.640Z</time>
      </trkpt>
      <trkpt lat="43.2889" lon="6.41426">
        <ele>329.682428</ele>
        <time>2021-05-18T23:58:54.732Z</time>
      </trkpt>
      <trkpt lat="43.28885" lon="6.41368">
        <ele>328.094425</ele>
        <time>2021-05-18T23:59:04.109Z</time>
      </trkpt>
      <trkpt lat="43.28871" lon="6.41326">
        <ele>327.858046</ele>
        <time>2021-05-18T23:59:12.064Z</time>
      </trkpt>
      <trkpt lat="43.28807" lon="6.41223">
        <ele>327.167339</ele>
        <time>2021-05-18T23:59:43.549Z</time>
      </trkpt>
      <trkpt lat="43.28788" lon="6.41201">
        <ele>327.510502</ele>
        <time>2021-05-18T23:59:56.204Z</time>
      </trkpt>
      <trkpt lat="43.28716" lon="6.41167">
        <ele>334.493315</ele>
        <time>2021-05-19T00:00:44.369Z</time>
      </trkpt>
      <trkpt lat="43.28688" lon="6.4114">
        <ele>337.603932</ele>
        <time>2021-05-19T00:01:09.167Z</time>
      </trkpt>
      <trkpt lat="43.28668" lon="6.41112">
        <ele>340.236978</ele>
        <time>2021-05-19T00:01:31.311Z</time>
      </trkpt>
      <trkpt lat="43.28645" lon="6.40949">
        <ele>350.982561</ele>
        <time>2021-05-19T00:03:01.647Z</time>
      </trkpt>
      <trkpt lat="43.2863" lon="6.40953">
        <ele>352.315725</ele>
        <time>2021-05-19T00:03:11.409Z</time>
      </trkpt>
      <trkpt lat="43.28587" lon="6.4099">
        <ele>356.819452</ele>
        <time>2021-05-19T00:03:41.802Z</time>
      </trkpt>
      <trkpt lat="43.28556" lon="6.41029">
        <ele>359.866268</ele>
        <time>2021-05-19T00:04:03.343Z</time>
      </trkpt>
      <trkpt lat="43.28529" lon="6.41045">
        <ele>361.018038</ele>
        <time>2021-05-19T00:04:17.339Z</time>
      </trkpt>
      <trkpt lat="43.28488" lon="6.41057">
        <ele>362.702597</ele>
        <time>2021-05-19T00:04:36.525Z</time>
      </trkpt>
      <trkpt lat="43.2844" lon="6.41059">
        <ele>364.567128</ele>
        <time>2021-05-19T00:04:56.599Z</time>
      </trkpt>
      <trkpt lat="43.28431" lon="6.41059">
        <ele>364.932947</ele>
        <time>2021-05-19T00:05:00.244Z</time>
      </trkpt>
      <trkpt lat="43.28393" lon="6.4105">
        <ele>366.456158</ele>
        <time>2021-05-19T00:05:16.309Z</time>
      </trkpt>
      <trkpt lat="43.28362" lon="6.41031">
        <ele>368.03156</ele>
        <time>2021-05-19T00:05:30.701Z</time>
      </trkpt>
      <trkpt lat="43.28348" lon="6.40992">
        <ele>369.507958</ele>
        <time>2021-05-19T00:05:45.203Z</time>
      </trkpt>
      <trkpt lat="43.28349" lon="6.4095">
        <ele>370.947681</ele>
        <time>2021-05-19T00:06:00.121Z</time>
      </trkpt>
      <trkpt lat="43.2837" lon="6.40909">
        <ele>372.663733</ele>
        <time>2021-05-19T00:06:18.496Z</time>
      </trkpt>
      <trkpt lat="43.28381" lon="6.40889">
        <ele>373.528683</ele>
        <time>2021-05-19T00:06:27.775Z</time>
      </trkpt>
      <trkpt lat="43.28379" lon="6.40852">
        <ele>374.777488</ele>
        <time>2021-05-19T00:06:42.704Z</time>
      </trkpt>
      <trkpt lat="43.28364" lon="6.40818">
        <ele>376.792414</ele>
        <time>2021-05-19T00:06:58.842Z</time>
      </trkpt>
      <trkpt lat="43.28343" lon="6.40795">
        <ele>378.678374</ele>
        <time>2021-05-19T00:07:11.978Z</time>
      </trkpt>
      <trkpt lat="43.28327" lon="6.40764">
        <ele>380.632395</ele>
        <time>2021-05-19T00:07:27.940Z</time>
      </trkpt>
      <trkpt lat="43.28314" lon="6.40723">
        <ele>382.954586</ele>
        <time>2021-05-19T00:07:47.005Z</time>
      </trkpt>
      <trkpt lat="43.28317" lon="6.40702">
        <ele>384.050085</ele>
        <time>2021-05-19T00:07:55.247Z</time>
      </trkpt>
      <trkpt lat="43.28319" lon="6.40703">
        <ele>384.242826</ele>
        <time>2021-05-19T00:07:58.537Z</time>
      </trkpt>
      <trkpt lat="43.28328" lon="6.40723">
        <ele>385.450021</ele>
        <time>2021-05-19T00:08:08.024Z</time>
      </trkpt>
      <trkpt lat="43.28363" lon="6.40742">
        <ele>388.332314</ele>
        <time>2021-05-19T00:08:31.181Z</time>
      </trkpt>
      <trkpt lat="43.28381" lon="6.40758">
        <ele>390.643956</ele>
        <time>2021-05-19T00:08:45.878Z</time>
      </trkpt>
      <trkpt lat="43.28415" lon="6.40807">
        <ele>395.947368</ele>
        <time>2021-05-19T00:09:18.942Z</time>
      </trkpt>
      <trkpt lat="43.28433" lon="6.40813">
        <ele>397.954961</ele>
        <time>2021-05-19T00:09:33.283Z</time>
      </trkpt>
      <trkpt lat="43.28435" lon="6.40804">
        <ele>398.654347</ele>
        <time>2021-05-19T00:09:38.090Z</time>
      </trkpt>
      <trkpt lat="43.28415" lon="6.40758">
        <ele>402.896489</ele>
        <time>2021-05-19T00:10:07.337Z</time>
      </trkpt>
      <trkpt lat="43.28409" lon="6.40726">
        <ele>405.42271</ele>
        <time>2021-05-19T00:10:25.803Z</time>
      </trkpt>
      <trkpt lat="43.28416" lon="6.40628">
        <ele>415.126643</ele>
        <time>2021-05-19T00:11:26.578Z</time>
      </trkpt>
      <trkpt lat="43.28415" lon="6.40579">
        <ele>420.251084</ele>
        <time>2021-05-19T00:11:58.763Z</time>
      </trkpt>
      <trkpt lat="43.28401" lon="6.40547">
        <ele>423.974119</ele>
        <time>2021-05-19T00:12:22.420Z</time>
      </trkpt>
      <trkpt lat="43.28389" lon="6.40495">
        <ele>429.672467</ele>
        <time>2021-05-19T00:12:58.352Z</time>
      </trkpt>
      <trkpt lat="43.28369" lon="6.40465">
        <ele>433.82441</ele>
        <time>2021-05-19T00:13:24.685Z</time>
      </trkpt>
      <trkpt lat="43.28371" lon="6.40429">
        <ele>437.398003</ele>
        <time>2021-05-19T00:13:48.010Z</time>
      </trkpt>
      <trkpt lat="43.28341" lon="6.40363">
        <ele>444.919205</ele>
        <time>2021-05-19T00:14:35.738Z</time>
      </trkpt>
      <trkpt lat="43.28289" lon="6.40289">
        <ele>455.009841</ele>
        <time>2021-05-19T00:15:36.369Z</time>
      </trkpt>
      <trkpt lat="43.28268" lon="6.40271">
        <ele>458.473596</ele>
        <time>2021-05-19T00:15:55.945Z</time>
      </trkpt>
      <trkpt lat="43.28199" lon="6.40241">
        <ele>468.81242</ele>
        <time>2021-05-19T00:16:54.411Z</time>
      </trkpt>
      <trkpt lat="43.28171" lon="6.40217">
        <ele>473.445887</ele>
        <time>2021-05-19T00:17:22.199Z</time>
      </trkpt>
      <trkpt lat="43.28151" lon="6.40186">
        <ele>477.710006</ele>
        <time>2021-05-19T00:17:49.303Z</time>
      </trkpt>
      <trkpt lat="43.28153" lon="6.40154">
        <ele>481.105025</ele>
        <time>2021-05-19T00:18:12.181Z</time>
      </trkpt>
      <trkpt lat="43.28144" lon="6.40041">
        <ele>495.548716</ele>
        <time>2021-05-19T00:19:35.761Z</time>
      </trkpt>
      <trkpt lat="43.28149" lon="6.39999">
        <ele>501.053359</ele>
        <time>2021-05-19T00:20:08.419Z</time>
      </trkpt>
      <trkpt lat="43.28163" lon="6.39969">
        <ele>505.688603</ele>
        <time>2021-05-19T00:20:36.060Z</time>
      </trkpt>
      <trkpt lat="43.28192" lon="6.39927">
        <ele>513.2512</ele>
        <time>2021-05-19T00:21:20.212Z</time>
      </trkpt>
      <trkpt lat="43.28243" lon="6.39897">
        <ele>521.175045</ele>
        <time>2021-05-19T00:22:14.292Z</time>
      </trkpt>
      <trkpt lat="43.28283" lon="6.39842">
        <ele>529.090898</ele>
        <time>2021-05-19T00:23:04.529Z</time>
      </trkpt>
      <trkpt lat="43.28282" lon="6.39829">
        <ele>530.391987</ele>
        <time>2021-05-19T00:23:12.111Z</time>
      </trkpt>
      <trkpt lat="43.2826" lon="6.39796">
        <ele>534.840028</ele>
        <time>2021-05-19T00:23:36.949Z</time>
      </trkpt>
      <trkpt lat="43.28237" lon="6.39707">
        <ele>542.423969</ele>
        <time>2021-05-19T00:24:24.957Z</time>
      </trkpt>
      <trkpt lat="43.28212" lon="6.39655">
        <ele>546.334622</ele>
        <time>2021-05-19T00:24:54.013Z</time>
      </trkpt>
      <trkpt lat="43.28213" lon="6.39633">
        <ele>547.692276</ele>
        <time>2021-05-19T00:25:03.677Z</time>
      </trkpt>
      <trkpt lat="43.2821" lon="6.39623">
        <ele>548.41606</ele>
        <time>2021-05-19T00:25:08.804Z</time>
      </trkpt>
      <trkpt lat="43.28209" lon="6.39618">
        <ele>548.694598</ele>
        <time>2021-05-19T00:25:10.908Z</time>
      </trkpt>
      <trkpt lat="43.28191" lon="6.39591">
        <ele>550.976216</ele>
        <time>2021-05-19T00:25:26.988Z</time>
      </trkpt>
      <trkpt lat="43.28159" lon="6.39495">
        <ele>557.241218</ele>
        <time>2021-05-19T00:26:13.626Z</time>
      </trkpt>
      <trkpt lat="43.28147" lon="6.3947">
        <ele>558.913745</ele>
        <time>2021-05-19T00:26:26.888Z</time>
      </trkpt>
      <trkpt lat="43.28129" lon="6.39447">
        <ele>560.809889</ele>
        <time>2021-05-19T00:26:41.743Z</time>
      </trkpt>
      <trkpt lat="43.28071" lon="6.39345">
        <ele>568.03387</ele>
        <time>2021-05-19T00:27:37.939Z</time>
      </trkpt>
      <trkpt lat="43.28039" lon="6.39236">
        <ele>575.291565</ele>
        <time>2021-05-19T00:28:30.925Z</time>
      </trkpt>
      <trkpt lat="43.28045" lon="6.39155">
        <ele>580.348667</ele>
        <time>2021-05-19T00:29:08.747Z</time>
      </trkpt>
      <trkpt lat="43.28055" lon="6.39114">
        <ele>583.079395</ele>
        <time>2021-05-19T00:29:29.946Z</time>
      </trkpt>
      <trkpt lat="43.28066" lon="6.39086">
        <ele>585.496701</ele>
        <time>2021-05-19T00:29:45.893Z</time>
      </trkpt>
      <trkpt lat="43.2808" lon="6.39069">
        <ele>587.554184</ele>
        <time>2021-05-19T00:29:58.469Z</time>
      </trkpt>
      <trkpt lat="43.28099" lon="6.39058">
        <ele>589.974524</ele>
        <time>2021-05-19T00:30:13.768Z</time>
      </trkpt>
      <trkpt lat="43.28107" lon="6.39043">
        <ele>591.540135</ele>
        <time>2021-05-19T00:30:23.753Z</time>
      </trkpt>
      <trkpt lat="43.28105" lon="6.38991">
        <ele>595.847249</ele>
        <time>2021-05-19T00:30:51.739Z</time>
      </trkpt>
      <trkpt lat="43.28112" lon="6.38969">
        <ele>597.909759</ele>
        <time>2021-05-19T00:31:05.324Z</time>
      </trkpt>
      <trkpt lat="43.28138" lon="6.38978">
        <ele>600.935591</ele>
        <time>2021-05-19T00:31:27.993Z</time>
      </trkpt>
      <trkpt lat="43.28188" lon="6.38978">
        <ele>606.757672</ele>
        <time>2021-05-19T00:32:09.816Z</time>
      </trkpt>
      <trkpt lat="43.28233" lon="6.38968">
        <ele>612.182318</ele>
        <time>2021-05-19T00:32:47.646Z</time>
      </trkpt>
      <trkpt lat="43.28256" lon="6.38954">
        <ele>615.106776</ele>
        <time>2021-05-19T00:33:06.963Z</time>
      </trkpt>
      <trkpt lat="43.28279" lon="6.38933">
        <ele>618.363841</ele>
        <time>2021-05-19T00:33:29.076Z</time>
      </trkpt>
      <trkpt lat="43.28303" lon="6.38925">
        <ele>621.334137</ele>
        <time>2021-05-19T00:33:47.781Z</time>
      </trkpt>
      <trkpt lat="43.28345" lon="6.38915">
        <ele>625.881002</ele>
        <time>2021-05-19T00:34:17.370Z</time>
      </trkpt>
      <trkpt lat="43.28382" lon="6.38938">
        <ele>628.145756</ele>
        <time>2021-05-19T00:34:43.822Z</time>
      </trkpt>
      <trkpt lat="43.28415" lon="6.38922">
        <ele>630.10408</ele>
        <time>2021-05-19T00:35:04.960Z</time>
      </trkpt>
      <trkpt lat="43.28439" lon="6.38902">
        <ele>631.633454</ele>
        <time>2021-05-19T00:35:18.059Z</time>
      </trkpt>
      <trkpt lat="43.28468" lon="6.38898">
        <ele>633.221988</ele>
        <time>2021-05-19T00:35:29.849Z</time>
      </trkpt>
      <trkpt lat="43.28484" lon="6.38888">
        <ele>634.238576</ele>
        <time>2021-05-19T00:35:37.103Z</time>
      </trkpt>
      <trkpt lat="43.28509" lon="6.38861">
        <ele>635.510778</ele>
        <time>2021-05-19T00:35:48.646Z</time>
      </trkpt>
      <trkpt lat="43.28542" lon="6.38765">
        <ele>635.872951</ele>
        <time>2021-05-19T00:36:13.797Z</time>
      </trkpt>
      <trkpt lat="43.28553" lon="6.38755">
        <ele>635.935512</ele>
        <time>2021-05-19T00:36:17.708Z</time>
      </trkpt>
      <trkpt lat="43.28598" lon="6.38735">
        <ele>636.159018</ele>
        <time>2021-05-19T00:36:31.603Z</time>
      </trkpt>
      <trkpt lat="43.28639" lon="6.38676">
        <ele>636.10136</ele>
        <time>2021-05-19T00:36:48.977Z</time>
      </trkpt>
      <trkpt lat="43.28651" lon="6.38665">
        <ele>635.985109</ele>
        <time>2021-05-19T00:36:53.275Z</time>
      </trkpt>
      <trkpt lat="43.2871" lon="6.38664">
        <ele>635.52088</ele>
        <time>2021-05-19T00:37:09.710Z</time>
      </trkpt>
      <trkpt lat="43.28737" lon="6.38661">
        <ele>635.308895</ele>
        <time>2021-05-19T00:37:17.241Z</time>
      </trkpt>
      <trkpt lat="43.2874" lon="6.3863">
        <ele>635.126499</ele>
        <time>2021-05-19T00:37:23.625Z</time>
      </trkpt>
      <trkpt lat="43.28748" lon="6.38604">
        <ele>634.96503</ele>
        <time>2021-05-19T00:37:29.156Z</time>
      </trkpt>
      <trkpt lat="43.28739" lon="6.38581">
        <ele>634.653014</ele>
        <time>2021-05-19T00:37:34.400Z</time>
      </trkpt>
      <trkpt lat="43.28703" lon="6.38516">
        <ele>633.220492</ele>
        <time>2021-05-19T00:37:50.014Z</time>
      </trkpt>
      <trkpt lat="43.28691" lon="6.38506">
        <ele>632.875979</ele>
        <time>2021-05-19T00:37:53.726Z</time>
      </trkpt>
      <trkpt lat="43.28662" lon="6.38506">
        <ele>632.182418</ele>
        <time>2021-05-19T00:38:00.927Z</time>
      </trkpt>
      <trkpt lat="43.28644" lon="6.38512">
        <ele>631.727401</ele>
        <time>2021-05-19T00:38:05.515Z</time>
      </trkpt>
      <trkpt lat="43.28615" lon="6.38544">
        <ele>630.816368</ele>
        <time>2021-05-19T00:38:14.671Z</time>
      </trkpt>
      <trkpt lat="43.28602" lon="6.38548">
        <ele>630.466845</ele>
        <time>2021-05-19T00:38:17.998Z</time>
      </trkpt>
      <trkpt lat="43.28559" lon="6.38511">
        <ele>628.526707</ele>
        <time>2021-05-19T00:38:30.167Z</time>
      </trkpt>
      <trkpt lat="43.28461" lon="6.38458">
        <ele>624.478258</ele>
        <time>2021-05-19T00:38:55.330Z</time>
      </trkpt>
      <trkpt lat="43.28419" lon="6.38415">
        <ele>622.508395</ele>
        <time>2021-05-19T00:39:07.768Z</time>
      </trkpt>
      <trkpt lat="43.28398" lon="6.38402">
        <ele>621.642267</ele>
        <time>2021-05-19T00:39:13.330Z</time>
      </trkpt>
      <trkpt lat="43.28368" lon="6.38397">
        <ele>620.506143</ele>
        <time>2021-05-19T00:39:20.624Z</time>
      </trkpt>
      <trkpt lat="43.28347" lon="6.38402">
        <ele>619.721598</ele>
        <time>2021-05-19T00:39:25.664Z</time>
      </trkpt>
      <trkpt lat="43.28326" lon="6.38429">
        <ele>618.661765</ele>
        <time>2021-05-19T00:39:32.505Z</time>
      </trkpt>
      <trkpt lat="43.2831" lon="6.38442">
        <ele>617.961003</ele>
        <time>2021-05-19T00:39:37.047Z</time>
      </trkpt>
      <trkpt lat="43.28292" lon="6.38434">
        <ele>617.255014</ele>
        <time>2021-05-19T00:39:41.662Z</time>
      </trkpt>
      <trkpt lat="43.28249" lon="6.38382">
        <ele>615.455116</ele>
        <time>2021-05-19T00:39:55.748Z</time>
      </trkpt>
      <trkpt lat="43.2822" lon="6.38372">
        <ele>614.543248</ele>
        <time>2021-05-19T00:40:03.161Z</time>
      </trkpt>
      <trkpt lat="43.28191" lon="6.38375">
        <ele>613.657008</ele>
        <time>2021-05-19T00:40:10.383Z</time>
      </trkpt>
      <trkpt lat="43.2815" lon="6.38391">
        <ele>612.372642</ele>
        <time>2021-05-19T00:40:20.879Z</time>
      </trkpt>
      <trkpt lat="43.28108" lon="6.38379">
        <ele>610.997689</ele>
        <time>2021-05-19T00:40:31.494Z</time>
      </trkpt>
      <trkpt lat="43.28077" lon="6.38338">
        <ele>609.395833</ele>
        <time>2021-05-19T00:40:42.230Z</time>
      </trkpt>
      <trkpt lat="43.28056" lon="6.38328">
        <ele>608.567813</ele>
        <time>2021-05-19T00:40:47.729Z</time>
      </trkpt>
      <trkpt lat="43.28044" lon="6.38313">
        <ele>607.969947</ele>
        <time>2021-05-19T00:40:51.697Z</time>
      </trkpt>
      <trkpt lat="43.28034" lon="6.38284">
        <ele>607.105481</ele>
        <time>2021-05-19T00:40:57.379Z</time>
      </trkpt>
      <trkpt lat="43.28028" lon="6.38215">
        <ele>605.255512</ele>
        <time>2021-05-19T00:41:09.319Z</time>
      </trkpt>
      <trkpt lat="43.28007" lon="6.38192">
        <ele>603.992449</ele>
        <time>2021-05-19T00:41:15.535Z</time>
      </trkpt>
      <trkpt lat="43.28006" lon="6.38174">
        <ele>603.256341</ele>
        <time>2021-05-19T00:41:18.553Z</time>
      </trkpt>
      <trkpt lat="43.2802" lon="6.38152">
        <ele>602.030627</ele>
        <time>2021-05-19T00:41:23.527Z</time>
      </trkpt>
      <trkpt lat="43.28025" lon="6.38134">
        <ele>601.218463</ele>
        <time>2021-05-19T00:41:26.808Z</time>
      </trkpt>
      <trkpt lat="43.28027" lon="6.38106">
        <ele>600.041823</ele>
        <time>2021-05-19T00:41:31.524Z</time>
      </trkpt>
      <trkpt lat="43.28023" lon="6.38087">
        <ele>599.22311</ele>
        <time>2021-05-19T00:41:34.796Z</time>
      </trkpt>
      <trkpt lat="43.28014" lon="6.38072">
        <ele>598.437174</ele>
        <time>2021-05-19T00:41:37.901Z</time>
      </trkpt>
      <trkpt lat="43.27948" lon="6.38059">
        <ele>594.643503</ele>
        <time>2021-05-19T00:41:52.819Z</time>
      </trkpt>
      <trkpt lat="43.27922" lon="6.38085">
        <ele>592.881123</ele>
        <time>2021-05-19T00:41:59.851Z</time>
      </trkpt>
      <trkpt lat="43.27894" lon="6.38066">
        <ele>591.137516</ele>
        <time>2021-05-19T00:42:06.824Z</time>
      </trkpt>
      <trkpt lat="43.27862" lon="6.38058">
        <ele>589.318337</ele>
        <time>2021-05-19T00:42:14.163Z</time>
      </trkpt>
      <trkpt lat="43.27821" lon="6.38082">
        <ele>586.883344</ele>
        <time>2021-05-19T00:42:24.154Z</time>
      </trkpt>
      <trkpt lat="43.27811" lon="6.38106">
        <ele>585.774174</ele>
        <time>2021-05-19T00:42:28.808Z</time>
      </trkpt>
      <trkpt lat="43.27806" lon="6.38121">
        <ele>585.109823</ele>
        <time>2021-05-19T00:42:31.630Z</time>
      </trkpt>
      <trkpt lat="43.27806" lon="6.38164">
        <ele>583.947989</ele>
        <time>2021-05-19T00:42:39.163Z</time>
      </trkpt>
      <trkpt lat="43.27817" lon="6.38266">
        <ele>581.666513</ele>
        <time>2021-05-19T00:42:57.726Z</time>
      </trkpt>
      <trkpt lat="43.27837" lon="6.38338">
        <ele>579.94566</ele>
        <time>2021-05-19T00:43:12.210Z</time>
      </trkpt>
      <trkpt lat="43.27837" lon="6.38395">
        <ele>578.505872</ele>
        <time>2021-05-19T00:43:22.725Z</time>
      </trkpt>
      <trkpt lat="43.27854" lon="6.38424">
        <ele>577.369302</ele>
        <time>2021-05-19T00:43:29.470Z</time>
      </trkpt>
      <trkpt lat="43.27854" lon="6.38443">
        <ele>576.783585</ele>
        <time>2021-05-19T00:43:32.905Z</time>
      </trkpt>
      <trkpt lat="43.27833" lon="6.38484">
        <ele>575.224107</ele>
        <time>2021-05-19T00:43:41.862Z</time>
      </trkpt>
      <trkpt lat="43.27811" lon="6.38601">
        <ele>571.465378</ele>
        <time>2021-05-19T00:44:02.081Z</time>
      </trkpt>
      <trkpt lat="43.2777" lon="6.38646">
        <ele>567.627301</ele>
        <time>2021-05-19T00:44:13.606Z</time>
      </trkpt>
      <trkpt lat="43.2774" lon="6.38641">
        <ele>565.438196</ele>
        <time>2021-05-19T00:44:20.059Z</time>
      </trkpt>
      <trkpt lat="43.27719" lon="6.38623">
        <ele>563.583788</ele>
        <time>2021-05-19T00:44:25.495Z</time>
      </trkpt>
      <trkpt lat="43.27687" lon="6.38566">
        <ele>559.821205</ele>
        <time>2021-05-19T00:44:36.518Z</time>
      </trkpt>
      <trkpt lat="43.27679" lon="6.38565">
        <ele>559.19052</ele>
        <time>2021-05-19T00:44:38.370Z</time>
      </trkpt>
      <trkpt lat="43.27619" lon="6.38616">
        <ele>554.671397</ele>
        <time>2021-05-19T00:44:53.410Z</time>
      </trkpt>
      <trkpt lat="43.27606" lon="6.38614">
        <ele>553.857051</ele>
        <time>2021-05-19T00:44:56.224Z</time>
      </trkpt>
      <trkpt lat="43.27587" lon="6.38586">
        <ele>552.083579</ele>
        <time>2021-05-19T00:45:02.418Z</time>
      </trkpt>
      <trkpt lat="43.27572" lon="6.38551">
        <ele>550.21914</ele>
        <time>2021-05-19T00:45:09.064Z</time>
      </trkpt>
      <trkpt lat="43.27522" lon="6.38522">
        <ele>547.006155</ele>
        <time>2021-05-19T00:45:21.695Z</time>
      </trkpt>
      <trkpt lat="43.27505" lon="6.38493">
        <ele>546.469781</ele>
        <time>2021-05-19T00:45:28.316Z</time>
      </trkpt>
      <trkpt lat="43.27496" lon="6.38454">
        <ele>545.894808</ele>
        <time>2021-05-19T00:45:35.700Z</time>
      </trkpt>
      <trkpt lat="43.27517" lon="6.38324">
        <ele>544.002503</ele>
        <time>2021-05-19T00:46:01.857Z</time>
      </trkpt>
      <trkpt lat="43.27515" lon="6.38272">
        <ele>543.802325</ele>
        <time>2021-05-19T00:46:13.116Z</time>
      </trkpt>
      <trkpt lat="43.27521" lon="6.38253">
        <ele>543.990349</ele>
        <time>2021-05-19T00:46:17.847Z</time>
      </trkpt>
      <trkpt lat="43.27537" lon="6.38243">
        <ele>544.218519</ele>
        <time>2021-05-19T00:46:23.721Z</time>
      </trkpt>
      <trkpt lat="43.27537" lon="6.3823">
        <ele>544.338484</ele>
        <time>2021-05-19T00:46:26.866Z</time>
      </trkpt>
      <trkpt lat="43.27533" lon="6.38221">
        <ele>544.434692</ele>
        <time>2021-05-19T00:46:29.491Z</time>
      </trkpt>
      <trkpt lat="43.27498" lon="6.38217">
        <ele>544.877387</ele>
        <time>2021-05-19T00:46:41.688Z</time>
      </trkpt>
      <trkpt lat="43.2749" lon="6.38208">
        <ele>545.003858</ele>
        <time>2021-05-19T00:46:45.354Z</time>
      </trkpt>
      <trkpt lat="43.2749" lon="6.38186">
        <ele>545.209788</ele>
        <time>2021-05-19T00:46:51.324Z</time>
      </trkpt>
      <trkpt lat="43.2749" lon="6.38183">
        <ele>545.238152</ele>
        <time>2021-05-19T00:46:52.182Z</time>
      </trkpt>
      <trkpt lat="43.27514" lon="6.38091">
        <ele>546.389052</ele>
        <time>2021-05-19T00:47:19.897Z</time>
      </trkpt>
      <trkpt lat="43.27497" lon="6.38073">
        <ele>546.913784</ele>
        <time>2021-05-19T00:47:28.651Z</time>
      </trkpt>
      <trkpt lat="43.27468" lon="6.38106">
        <ele>547.839157</ele>
        <time>2021-05-19T00:47:43.982Z</time>
      </trkpt>
      <trkpt lat="43.27426" lon="6.38186">
        <ele>549.608474</ele>
        <time>2021-05-19T00:48:13.216Z</time>
      </trkpt>
      <trkpt lat="43.27412" lon="6.38228">
        <ele>550.311069</ele>
        <time>2021-05-19T00:48:26.199Z</time>
      </trkpt>
      <trkpt lat="43.27399" lon="6.38314">
        <ele>550.581924</ele>
        <time>2021-05-19T00:48:49.068Z</time>
      </trkpt>
      <trkpt lat="43.27392" lon="6.38327">
        <ele>550.632573</ele>
        <time>2021-05-19T00:48:53.032Z</time>
      </trkpt>
      <trkpt lat="43.27369" lon="6.38334">
        <ele>550.733794</ele>
        <time>2021-05-19T00:49:00.570Z</time>
      </trkpt>
      <trkpt lat="43.27367" lon="6.38348">
        <ele>550.777947</ele>
        <time>2021-05-19T00:49:03.734Z</time>
      </trkpt>
      <trkpt lat="43.27374" lon="6.3837">
        <ele>550.852308</ele>
        <time>2021-05-19T00:49:08.815Z</time>
      </trkpt>
      <trkpt lat="43.27367" lon="6.38417">
        <ele>550.999923</ele>
        <time>2021-05-19T00:49:18.504Z</time>
      </trkpt>
      <trkpt lat="43.27356" lon="6.38432">
        <ele>550.96578</ele>
        <time>2021-05-19T00:49:22.646Z</time>
      </trkpt>
      <trkpt lat="43.2735" lon="6.38479">
        <ele>550.306641</ele>
        <time>2021-05-19T00:49:31.729Z</time>
      </trkpt>
      <trkpt lat="43.27323" lon="6.38563">
        <ele>549.032738</ele>
        <time>2021-05-19T00:49:48.778Z</time>
      </trkpt>
      <trkpt lat="43.27313" lon="6.38573">
        <ele>548.804455</ele>
        <time>2021-05-19T00:49:51.849Z</time>
      </trkpt>
      <trkpt lat="43.27302" lon="6.38576">
        <ele>548.586017</ele>
        <time>2021-05-19T00:49:54.771Z</time>
      </trkpt>
      <trkpt lat="43.27233" lon="6.3856">
        <ele>547.734754</ele>
        <time>2021-05-19T00:50:13.269Z</time>
      </trkpt>
      <trkpt lat="43.27214" lon="6.38571">
        <ele>547.84323</ele>
        <time>2021-05-19T00:50:18.819Z</time>
      </trkpt>
      <trkpt lat="43.27203" lon="6.38591">
        <ele>547.944327</ele>
        <time>2021-05-19T00:50:24.032Z</time>
      </trkpt>
      <trkpt lat="43.27189" lon="6.38598">
        <ele>548.021586</ele>
        <time>2021-05-19T00:50:28.210Z</time>
      </trkpt>
      <trkpt lat="43.27172" lon="6.38602">
        <ele>548.116022</ele>
        <time>2021-05-19T00:50:33.320Z</time>
      </trkpt>
      <trkpt lat="43.27157" lon="6.38598">
        <ele>548.196711</ele>
        <time>2021-05-19T00:50:37.975Z</time>
      </trkpt>
      <trkpt lat="43.27144" lon="6.38557">
        <ele>548.375759</ele>
        <time>2021-05-19T00:50:49.095Z</time>
      </trkpt>
      <trkpt lat="43.27146" lon="6.38518">
        <ele>548.529929</ele>
        <time>2021-05-19T00:50:59.530Z</time>
      </trkpt>
      <trkpt lat="43.27183" lon="6.3831">
        <ele>555.815247</ele>
        <time>2021-05-19T00:52:14.309Z</time>
      </trkpt>
      <trkpt lat="43.27212" lon="6.38186">
        <ele>562.501659</ele>
        <time>2021-05-19T00:53:11.255Z</time>
      </trkpt>
      <trkpt lat="43.2723" lon="6.38148">
        <ele>565.255689</ele>
        <time>2021-05-19T00:53:32.617Z</time>
      </trkpt>
      <trkpt lat="43.27305" lon="6.3805">
        <ele>573.701567</ele>
        <time>2021-05-19T00:54:41.256Z</time>
      </trkpt>
      <trkpt lat="43.2733" lon="6.38026">
        <ele>575.824417</ele>
        <time>2021-05-19T00:55:00.629Z</time>
      </trkpt>
      <trkpt lat="43.27348" lon="6.3802">
        <ele>577.127709</ele>
        <time>2021-05-19T00:55:12.177Z</time>
      </trkpt>
      <trkpt lat="43.27373" lon="6.37969">
        <ele>580.236268</ele>
        <time>2021-05-19T00:55:38.535Z</time>
      </trkpt>
      <trkpt lat="43.27375" lon="6.37945">
        <ele>581.48387</ele>
        <time>2021-05-19T00:55:48.607Z</time>
      </trkpt>
      <trkpt lat="43.27361" lon="6.37844">
        <ele>585.736931</ele>
        <time>2021-05-19T00:56:27.607Z</time>
      </trkpt>
      <trkpt lat="43.27424" lon="6.37677">
        <ele>589.155979</ele>
        <time>2021-05-19T00:57:20.245Z</time>
      </trkpt>
      <trkpt lat="43.27434" lon="6.37658">
        <ele>589.582551</ele>
        <time>2021-05-19T00:57:26.611Z</time>
      </trkpt>
      <trkpt lat="43.27432" lon="6.37634">
        <ele>589.719031</ele>
        <time>2021-05-19T00:57:31.529Z</time>
      </trkpt>
      <trkpt lat="43.27409" lon="6.3752">
        <ele>589.902559</ele>
        <time>2021-05-19T00:57:57.403Z</time>
      </trkpt>
      <trkpt lat="43.27387" lon="6.37444">
        <ele>590.028465</ele>
        <time>2021-05-19T00:58:14.223Z</time>
      </trkpt>
      <trkpt lat="43.27367" lon="6.37422">
        <ele>590.19492</ele>
        <time>2021-05-19T00:58:22.048Z</time>
      </trkpt>
      <trkpt lat="43.2737" lon="6.37355">
        <ele>591.507044</ele>
        <time>2021-05-19T00:58:39.246Z</time>
      </trkpt>
      <trkpt lat="43.27364" lon="6.37339">
        <ele>591.851505</ele>
        <time>2021-05-19T00:58:44.048Z</time>
      </trkpt>
      <trkpt lat="43.27329" lon="6.37331">
        <ele>592.793478</ele>
        <time>2021-05-19T00:58:58.011Z</time>
      </trkpt>
      <trkpt lat="43.27313" lon="6.3731">
        <ele>593.375324</ele>
        <time>2021-05-19T00:59:07.342Z</time>
      </trkpt>
      <trkpt lat="43.27351" lon="6.37282">
        <ele>594.531158</ele>
        <time>2021-05-19T00:59:27.029Z</time>
      </trkpt>
      <trkpt lat="43.27352" lon="6.37263">
        <ele>594.969409</ele>
        <time>2021-05-19T00:59:34.014Z</time>
      </trkpt>
      <trkpt lat="43.27341" lon="6.37199">
        <ele>598.199234</ele>
        <time>2021-05-19T00:59:58.269Z</time>
      </trkpt>
      <trkpt lat="43.27352" lon="6.37105">
        <ele>602.950768</ele>
        <time>2021-05-19T01:00:37.960Z</time>
      </trkpt>
      <trkpt lat="43.27393" lon="6.36972">
        <ele>610.856795</ele>
        <time>2021-05-19T01:01:44.311Z</time>
      </trkpt>
      <trkpt lat="43.27401" lon="6.36885">
        <ele>616.405611</ele>
        <time>2021-05-19T01:02:26.676Z</time>
      </trkpt>
      <trkpt lat="43.27388" lon="6.3684">
        <ele>619.439294</ele>
        <time>2021-05-19T01:02:49.597Z</time>
      </trkpt>
      <trkpt lat="43.2739" lon="6.36815">
        <ele>621.000777</ele>
        <time>2021-05-19T01:03:01.271Z</time>
      </trkpt>
      <trkpt lat="43.27396" lon="6.36802">
        <ele>622.019911</ele>
        <time>2021-05-19T01:03:08.970Z</time>
      </trkpt>
      <trkpt lat="43.27413" lon="6.36796">
        <ele>623.178176</ele>
        <time>2021-05-19T01:03:20.073Z</time>
      </trkpt>
      <trkpt lat="43.27424" lon="6.36804">
        <ele>623.837237</ele>
        <time>2021-05-19T01:03:27.889Z</time>
      </trkpt>
      <trkpt lat="43.2743" lon="6.36826">
        <ele>624.776442</ele>
        <time>2021-05-19T01:03:38.786Z</time>
      </trkpt>
      <trkpt lat="43.27439" lon="6.36838">
        <ele>625.443441</ele>
        <time>2021-05-19T01:03:46.175Z</time>
      </trkpt>
      <trkpt lat="43.27513" lon="6.36864">
        <ele>629.606975</ele>
        <time>2021-05-19T01:04:28.662Z</time>
      </trkpt>
      <trkpt lat="43.27551" lon="6.36902">
        <ele>632.143963</ele>
        <time>2021-05-19T01:04:48.579Z</time>
      </trkpt>
      <trkpt lat="43.27587" lon="6.36913">
        <ele>630.774371</ele>
        <time>2021-05-19T01:04:59.114Z</time>
      </trkpt>
      <trkpt lat="43.27615" lon="6.36901">
        <ele>629.361368</ele>
        <time>2021-05-19T01:05:06.633Z</time>
      </trkpt>
      <trkpt lat="43.27662" lon="6.36867">
        <ele>626.86505</ele>
        <time>2021-05-19T01:05:18.708Z</time>
      </trkpt>
      <trkpt lat="43.27666" lon="6.3687">
        <ele>626.629129</ele>
        <time>2021-05-19T01:05:19.831Z</time>
      </trkpt>
      <trkpt lat="43.27701" lon="6.36842">
        <ele>624.713973</ele>
        <time>2021-05-19T01:05:28.329Z</time>
      </trkpt>
      <trkpt lat="43.2774" lon="6.36805">
        <ele>620.747671</ele>
        <time>2021-05-19T01:05:37.962Z</time>
      </trkpt>
      <trkpt lat="43.27749" lon="6.36776">
        <ele>618.192753</ele>
        <time>2021-05-19T01:05:42.608Z</time>
      </trkpt>
      <trkpt lat="43.27757" lon="6.36704">
        <ele>612.274111</ele>
        <time>2021-05-19T01:05:53.274Z</time>
      </trkpt>
      <trkpt lat="43.27768" lon="6.36672">
        <ele>609.447114</ele>
        <time>2021-05-19T01:05:58.378Z</time>
      </trkpt>
      <trkpt lat="43.27816" lon="6.3661">
        <ele>602.152995</ele>
        <time>2021-05-19T01:06:11.816Z</time>
      </trkpt>
      <trkpt lat="43.27922" lon="6.36554">
        <ele>589.343624</ele>
        <time>2021-05-19T01:06:35.185Z</time>
      </trkpt>
      <trkpt lat="43.27966" lon="6.36518">
        <ele>583.490332</ele>
        <time>2021-05-19T01:06:45.496Z</time>
      </trkpt>
      <trkpt lat="43.27975" lon="6.36492">
        <ele>580.528793</ele>
        <time>2021-05-19T01:06:49.498Z</time>
      </trkpt>
      <trkpt lat="43.27977" lon="6.36442">
        <ele>575.331695</ele>
        <time>2021-05-19T01:06:56.480Z</time>
      </trkpt>
      <trkpt lat="43.2796" lon="6.3638">
        <ele>568.471691</ele>
        <time>2021-05-19T01:07:05.733Z</time>
      </trkpt>
      <trkpt lat="43.27953" lon="6.36286">
        <ele>558.665198</ele>
        <time>2021-05-19T01:07:19.146Z</time>
      </trkpt>
      <trkpt lat="43.27946" lon="6.36285">
        <ele>557.759059</ele>
        <time>2021-05-19T01:07:20.539Z</time>
      </trkpt>
      <trkpt lat="43.2792" lon="6.36295">
        <ele>555.870837</ele>
        <time>2021-05-19T01:07:25.931Z</time>
      </trkpt>
      <trkpt lat="43.27894" lon="6.36315">
        <ele>553.737921</ele>
        <time>2021-05-19T01:07:32.057Z</time>
      </trkpt>
      <trkpt lat="43.27869" lon="6.36364">
        <ele>550.661177</ele>
        <time>2021-05-19T01:07:41.244Z</time>
      </trkpt>
      <trkpt lat="43.27777" lon="6.36425">
        <ele>545.009814</ele>
        <time>2021-05-19T01:08:07.695Z</time>
      </trkpt>
      <trkpt lat="43.27759" lon="6.36466">
        <ele>544.68512</ele>
        <time>2021-05-19T01:08:18.981Z</time>
      </trkpt>
      <trkpt lat="43.27726" lon="6.36484">
        <ele>544.357805</ele>
        <time>2021-05-19T01:08:29.435Z</time>
      </trkpt>
      <trkpt lat="43.277" lon="6.36483">
        <ele>544.118992</ele>
        <time>2021-05-19T01:08:36.620Z</time>
      </trkpt>
      <trkpt lat="43.27657" lon="6.36539">
        <ele>543.570397</ele>
        <time>2021-05-19T01:08:52.996Z</time>
      </trkpt>
      <trkpt lat="43.2763" lon="6.36536">
        <ele>542.50217</ele>
        <time>2021-05-19T01:09:00.114Z</time>
      </trkpt>
      <trkpt lat="43.27604" lon="6.36497">
        <ele>540.954503</ele>
        <time>2021-05-19T01:09:09.933Z</time>
      </trkpt>
      <trkpt lat="43.27584" lon="6.36496">
        <ele>540.174036</ele>
        <time>2021-05-19T01:09:14.672Z</time>
      </trkpt>
      <trkpt lat="43.27577" lon="6.36504">
        <ele>539.793218</ele>
        <time>2021-05-19T01:09:17.047Z</time>
      </trkpt>
      <trkpt lat="43.27514" lon="6.36393">
        <ele>534.770301</ele>
        <time>2021-05-19T01:09:40.126Z</time>
      </trkpt>
      <trkpt lat="43.27475" lon="6.36401">
        <ele>530.933697</ele>
        <time>2021-05-19T01:09:48.635Z</time>
      </trkpt>
      <trkpt lat="43.27448" lon="6.36457">
        <ele>526.100659</ele>
        <time>2021-05-19T01:09:59.051Z</time>
      </trkpt>
      <trkpt lat="43.27402" lon="6.3644">
        <ele>521.523698</ele>
        <time>2021-05-19T01:10:08.500Z</time>
      </trkpt>
      <trkpt lat="43.27377" lon="6.36446">
        <ele>519.059251</ele>
        <time>2021-05-19T01:10:13.500Z</time>
      </trkpt>
      <trkpt lat="43.27325" lon="6.36392">
        <ele>510.724392</ele>
        <time>2021-05-19T01:10:26.188Z</time>
      </trkpt>
      <trkpt lat="43.27264" lon="6.36401">
        <ele>502.843548</ele>
        <time>2021-05-19T01:10:38.093Z</time>
      </trkpt>
      <trkpt lat="43.27226" lon="6.36387">
        <ele>497.741649</ele>
        <time>2021-05-19T01:10:45.945Z</time>
      </trkpt>
      <trkpt lat="43.27184" lon="6.36406">
        <ele>494.855385</ele>
        <time>2021-05-19T01:10:55.009Z</time>
      </trkpt>
      <trkpt lat="43.27192" lon="6.3645">
        <ele>493.853605</ele>
        <time>2021-05-19T01:11:02.320Z</time>
      </trkpt>
      <trkpt lat="43.27184" lon="6.36475">
        <ele>493.258026</ele>
        <time>2021-05-19T01:11:07.002Z</time>
      </trkpt>
      <trkpt lat="43.27201" lon="6.36528">
        <ele>491.971875</ele>
        <time>2021-05-19T01:11:18.420Z</time>
      </trkpt>
      <trkpt lat="43.27184" lon="6.36615">
        <ele>490.385185</ele>
        <time>2021-05-19T01:11:43.690Z</time>
      </trkpt>
      <trkpt lat="43.27164" lon="6.36665">
        <ele>491.088822</ele>
        <time>2021-05-19T01:12:02.060Z</time>
      </trkpt>
      <trkpt lat="43.27152" lon="6.36743">
        <ele>492.094151</ele>
        <time>2021-05-19T01:12:27.846Z</time>
      </trkpt>
      <trkpt lat="43.27126" lon="6.36759">
        <ele>492.58227</ele>
        <time>2021-05-19T01:12:37.856Z</time>
      </trkpt>
      <trkpt lat="43.27092" lon="6.36661">
        <ele>492.418509</ele>
        <time>2021-05-19T01:12:59.485Z</time>
      </trkpt>
      <trkpt lat="43.27057" lon="6.3666">
        <ele>491.491956</ele>
        <time>2021-05-19T01:13:08.348Z</time>
      </trkpt>
      <trkpt lat="43.27032" lon="6.36638">
        <ele>490.705385</ele>
        <time>2021-05-19T01:13:15.680Z</time>
      </trkpt>
      <trkpt lat="43.26972" lon="6.36617">
        <ele>489.076221</ele>
        <time>2021-05-19T01:13:30.621Z</time>
      </trkpt>
      <trkpt lat="43.26947" lon="6.36598">
        <ele>488.34966</ele>
        <time>2021-05-19T01:13:37.589Z</time>
      </trkpt>
      <trkpt lat="43.26877" lon="6.36638">
        <ele>486.567205</ele>
        <time>2021-05-19T01:13:56.418Z</time>
      </trkpt>
      <trkpt lat="43.26834" lon="6.367">
        <ele>485.088329</ele>
        <time>2021-05-19T01:14:13.488Z</time>
      </trkpt>
      <trkpt lat="43.2682" lon="6.367">
        <ele>484.737862</ele>
        <time>2021-05-19T01:14:17.516Z</time>
      </trkpt>
      <trkpt lat="43.26831" lon="6.36576">
        <ele>482.218716</ele>
        <time>2021-05-19T01:14:40.631Z</time>
      </trkpt>
      <trkpt lat="43.26852" lon="6.36543">
        <ele>481.31853</ele>
        <time>2021-05-19T01:14:48.301Z</time>
      </trkpt>
      <trkpt lat="43.26858" lon="6.36506">
        <ele>480.516844</ele>
        <time>2021-05-19T01:14:55.150Z</time>
      </trkpt>
      <trkpt lat="43.26841" lon="6.36488">
        <ele>479.887229</ele>
        <time>2021-05-19T01:15:00.551Z</time>
      </trkpt>
      <trkpt lat="43.26736" lon="6.36493">
        <ele>477.118696</ele>
        <time>2021-05-19T01:15:26.769Z</time>
      </trkpt>
      <trkpt lat="43.26731" lon="6.36473">
        <ele>476.710271</ele>
        <time>2021-05-19T01:15:30.785Z</time>
      </trkpt>
      <trkpt lat="43.26758" lon="6.36413">
        <ele>475.390529</ele>
        <time>2021-05-19T01:15:43.714Z</time>
      </trkpt>
      <trkpt lat="43.26756" lon="6.36371">
        <ele>474.579398</ele>
        <time>2021-05-19T01:15:51.793Z</time>
      </trkpt>
      <trkpt lat="43.26804" lon="6.36285">
        <ele>472.264088</ele>
        <time>2021-05-19T01:16:12.415Z</time>
      </trkpt>
      <trkpt lat="43.26808" lon="6.36234">
        <ele>471.181765</ele>
        <time>2021-05-19T01:16:21.879Z</time>
      </trkpt>
      <trkpt lat="43.26752" lon="6.3619">
        <ele>469.304932</ele>
        <time>2021-05-19T01:16:37.382Z</time>
      </trkpt>
      <trkpt lat="43.2675" lon="6.3617">
        <ele>468.444289</ele>
        <time>2021-05-19T01:16:40.865Z</time>
      </trkpt>
      <trkpt lat="43.26787" lon="6.36095">
        <ele>464.597353</ele>
        <time>2021-05-19T01:16:55.735Z</time>
      </trkpt>
      <trkpt lat="43.26789" lon="6.36066">
        <ele>463.355945</ele>
        <time>2021-05-19T01:17:00.484Z</time>
      </trkpt>
      <trkpt lat="43.26764" lon="6.36009">
        <ele>460.532992</ele>
        <time>2021-05-19T01:17:11.325Z</time>
      </trkpt>
      <trkpt lat="43.26763" lon="6.35978">
        <ele>459.205124</ele>
        <time>2021-05-19T01:17:16.307Z</time>
      </trkpt>
      <trkpt lat="43.26784" lon="6.35939">
        <ele>456.826205</ele>
        <time>2021-05-19T01:17:23.988Z</time>
      </trkpt>
      <trkpt lat="43.26774" lon="6.35887">
        <ele>454.039254</ele>
        <time>2021-05-19T01:17:32.616Z</time>
      </trkpt>
      <trkpt lat="43.26747" lon="6.35882">
        <ele>452.161489</ele>
        <time>2021-05-19T01:17:38.375Z</time>
      </trkpt>
      <trkpt lat="43.26702" lon="6.35851">
        <ele>448.658589</ele>
        <time>2021-05-19T01:17:49.146Z</time>
      </trkpt>
      <trkpt lat="43.26663" lon="6.35865">
        <ele>445.886087</ele>
        <time>2021-05-19T01:17:58.225Z</time>
      </trkpt>
      <trkpt lat="43.26637" lon="6.35833">
        <ele>444.148607</ele>
        <time>2021-05-19T01:18:06.063Z</time>
      </trkpt>
      <trkpt lat="43.2657" lon="6.35799">
        <ele>440.568072</ele>
        <time>2021-05-19T01:18:22.447Z</time>
      </trkpt>
      <trkpt lat="43.26468" lon="6.35767">
        <ele>435.488492</ele>
        <time>2021-05-19T01:18:47.385Z</time>
      </trkpt>
      <trkpt lat="43.26438" lon="6.35832">
        <ele>432.881888</ele>
        <time>2021-05-19T01:19:01.277Z</time>
      </trkpt>
      <trkpt lat="43.26374" lon="6.35805">
        <ele>429.774488</ele>
        <time>2021-05-19T01:19:16.823Z</time>
      </trkpt>
      <trkpt lat="43.26387" lon="6.35703">
        <ele>423.884361</ele>
        <time>2021-05-19T01:19:33.136Z</time>
      </trkpt>
      <trkpt lat="43.26323" lon="6.35567">
        <ele>413.236374</ele>
        <time>2021-05-19T01:19:57.372Z</time>
      </trkpt>
      <trkpt lat="43.26223" lon="6.35566">
        <ele>406.55531</ele>
        <time>2021-05-19T01:20:18.161Z</time>
      </trkpt>
      <trkpt lat="43.26178" lon="6.35586">
        <ele>403.498139</ele>
        <time>2021-05-19T01:20:28.841Z</time>
      </trkpt>
      <trkpt lat="43.26139" lon="6.35571">
        <ele>400.915106</ele>
        <time>2021-05-19T01:20:38.937Z</time>
      </trkpt>
      <trkpt lat="43.26125" lon="6.35581">
        <ele>401.08535</ele>
        <time>2021-05-19T01:20:43.127Z</time>
      </trkpt>
      <trkpt lat="43.26095" lon="6.35654">
        <ele>401.74425</ele>
        <time>2021-05-19T01:21:03.943Z</time>
      </trkpt>
      <trkpt lat="43.26027" lon="6.35744">
        <ele>402.765745</ele>
        <time>2021-05-19T01:21:43.243Z</time>
      </trkpt>
      <trkpt lat="43.25989" lon="6.35752">
        <ele>401.891778</ele>
        <time>2021-05-19T01:21:56.922Z</time>
      </trkpt>
      <trkpt lat="43.25992" lon="6.35728">
        <ele>401.33716</ele>
        <time>2021-05-19T01:22:02.270Z</time>
      </trkpt>
      <trkpt lat="43.26013" lon="6.35659">
        <ele>399.622493</ele>
        <time>2021-05-19T01:22:16.370Z</time>
      </trkpt>
      <trkpt lat="43.26016" lon="6.35527">
        <ele>395.524617</ele>
        <time>2021-05-19T01:22:37.638Z</time>
      </trkpt>
      <trkpt lat="43.26059" lon="6.35408">
        <ele>386.865871</ele>
        <time>2021-05-19T01:22:57.478Z</time>
      </trkpt>
      <trkpt lat="43.26085" lon="6.35377">
        <ele>383.723334</ele>
        <time>2021-05-19T01:23:04.672Z</time>
      </trkpt>
      <trkpt lat="43.26118" lon="6.3537">
        <ele>380.839138</ele>
        <time>2021-05-19T01:23:11.606Z</time>
      </trkpt>
      <trkpt lat="43.26147" lon="6.35329">
        <ele>378.689379</ele>
        <time>2021-05-19T01:23:20.598Z</time>
      </trkpt>
      <trkpt lat="43.26134" lon="6.35301">
        <ele>377.450574</ele>
        <time>2021-05-19T01:23:26.011Z</time>
      </trkpt>
      <trkpt lat="43.26094" lon="6.35302">
        <ele>375.341852</ele>
        <time>2021-05-19T01:23:35.617Z</time>
      </trkpt>
      <trkpt lat="43.26076" lon="6.35288">
        <ele>374.26943</ele>
        <time>2021-05-19T01:23:40.670Z</time>
      </trkpt>
      <trkpt lat="43.26076" lon="6.35246">
        <ele>372.684852</ele>
        <time>2021-05-19T01:23:48.141Z</time>
      </trkpt>
      <trkpt lat="43.26046" lon="6.35214">
        <ele>370.700876</ele>
        <time>2021-05-19T01:23:57.436Z</time>
      </trkpt>
      <trkpt lat="43.26048" lon="6.35195">
        <ele>369.940373</ele>
        <time>2021-05-19T01:24:00.876Z</time>
      </trkpt>
      <trkpt lat="43.26035" lon="6.35176">
        <ele>368.946526</ele>
        <time>2021-05-19T01:24:05.576Z</time>
      </trkpt>
      <trkpt lat="43.26011" lon="6.35096">
        <ele>365.574846</ele>
        <time>2021-05-19T01:24:20.593Z</time>
      </trkpt>
      <trkpt lat="43.25988" lon="6.35067">
        <ele>363.902711</ele>
        <time>2021-05-19T01:24:27.440Z</time>
      </trkpt>
      <trkpt lat="43.25981" lon="6.35005">
        <ele>361.105321</ele>
        <time>2021-05-19T01:24:37.247Z</time>
      </trkpt>
      <trkpt lat="43.25967" lon="6.34978">
        <ele>359.056137</ele>
        <time>2021-05-19T01:24:42.361Z</time>
      </trkpt>
      <trkpt lat="43.25929" lon="6.3496">
        <ele>355.655719</ele>
        <time>2021-05-19T01:24:50.827Z</time>
      </trkpt>
      <trkpt lat="43.25902" lon="6.34953">
        <ele>353.291405</ele>
        <time>2021-05-19T01:24:56.658Z</time>
      </trkpt>
      <trkpt lat="43.25894" lon="6.34946">
        <ele>352.484955</ele>
        <time>2021-05-19T01:24:58.699Z</time>
      </trkpt>
      <trkpt lat="43.25885" lon="6.34907">
        <ele>349.958312</ele>
        <time>2021-05-19T01:25:04.931Z</time>
      </trkpt>
      <trkpt lat="43.25853" lon="6.34852">
        <ele>346.172736</ele>
        <time>2021-05-19T01:25:15.653Z</time>
      </trkpt>
      <trkpt lat="43.25802" lon="6.34904">
        <ele>343.221419</ele>
        <time>2021-05-19T01:25:29.474Z</time>
      </trkpt>
      <trkpt lat="43.25742" lon="6.3491">
        <ele>340.406866</ele>
        <time>2021-05-19T01:25:44.331Z</time>
      </trkpt>
      <trkpt lat="43.25725" lon="6.34928">
        <ele>339.413376</ele>
        <time>2021-05-19T01:25:49.751Z</time>
      </trkpt>
      <trkpt lat="43.25708" lon="6.34917">
        <ele>338.531713</ele>
        <time>2021-05-19T01:25:54.739Z</time>
      </trkpt>
      <trkpt lat="43.25708" lon="6.34846">
        <ele>339.030552</ele>
        <time>2021-05-19T01:26:09.097Z</time>
      </trkpt>
      <trkpt lat="43.25676" lon="6.34825">
        <ele>339.444692</ele>
        <time>2021-05-19T01:26:21.055Z</time>
      </trkpt>
      <trkpt lat="43.25666" lon="6.34843">
        <ele>339.637925</ele>
        <time>2021-05-19T01:26:27.594Z</time>
      </trkpt>
      <trkpt lat="43.25617" lon="6.34882">
        <ele>340.292661</ele>
        <time>2021-05-19T01:26:52.025Z</time>
      </trkpt>
      <trkpt lat="43.25541" lon="6.34889">
        <ele>339.911784</ele>
        <time>2021-05-19T01:27:21.673Z</time>
      </trkpt>
      <trkpt lat="43.25499" lon="6.34863">
        <ele>339.376982</ele>
        <time>2021-05-19T01:27:35.922Z</time>
      </trkpt>
      <trkpt lat="43.25495" lon="6.3486">
        <ele>339.322844</ele>
        <time>2021-05-19T01:27:37.775Z</time>
      </trkpt>
      <trkpt lat="43.25462" lon="6.34859">
        <ele>338.946032</ele>
        <time>2021-05-19T01:27:46.302Z</time>
      </trkpt>
      <trkpt lat="43.25466" lon="6.34698">
        <ele>330.4548</ele>
        <time>2021-05-19T01:28:12.135Z</time>
      </trkpt>
      <trkpt lat="43.25486" lon="6.34633">
        <ele>325.049154</ele>
        <time>2021-05-19T01:28:22.364Z</time>
      </trkpt>
      <trkpt lat="43.25495" lon="6.34519">
        <ele>315.818794</ele>
        <time>2021-05-19T01:28:38.648Z</time>
      </trkpt>
      <trkpt lat="43.25484" lon="6.34469">
        <ele>311.283212</ele>
        <time>2021-05-19T01:28:46.033Z</time>
      </trkpt>
      <trkpt lat="43.25437" lon="6.34369">
        <ele>300.864237</ele>
        <time>2021-05-19T01:29:03.367Z</time>
      </trkpt>
      <trkpt lat="43.25409" lon="6.3434">
        <ele>297.433193</ele>
        <time>2021-05-19T01:29:10.827Z</time>
      </trkpt>
      <trkpt lat="43.25294" lon="6.34408">
        <ele>291.47131</ele>
        <time>2021-05-19T01:29:39.817Z</time>
      </trkpt>
      <trkpt lat="43.2528" lon="6.34439">
        <ele>290.20423</ele>
        <time>2021-05-19T01:29:46.901Z</time>
      </trkpt>
      <trkpt lat="43.25224" lon="6.34482">
        <ele>288.589967</ele>
        <time>2021-05-19T01:30:04.541Z</time>
      </trkpt>
      <trkpt lat="43.25214" lon="6.3446">
        <ele>288.244419</ele>
        <time>2021-05-19T01:30:09.904Z</time>
      </trkpt>
      <trkpt lat="43.25231" lon="6.34419">
        <ele>287.631733</ele>
        <time>2021-05-19T01:30:19.503Z</time>
      </trkpt>
      <trkpt lat="43.25162" lon="6.34277">
        <ele>283.452693</ele>
        <time>2021-05-19T01:30:51.510Z</time>
      </trkpt>
      <trkpt lat="43.25077" lon="6.34252">
        <ele>278.217602</ele>
        <time>2021-05-19T01:31:10.893Z</time>
      </trkpt>
      <trkpt lat="43.25073" lon="6.34231">
        <ele>277.287353</ele>
        <time>2021-05-19T01:31:14.148Z</time>
      </trkpt>
      <trkpt lat="43.25048" lon="6.34221">
        <ele>275.701605</ele>
        <time>2021-05-19T01:31:19.630Z</time>
      </trkpt>
      <trkpt lat="43.24985" lon="6.34136">
        <ele>266.7343</ele>
        <time>2021-05-19T01:31:37.517Z</time>
      </trkpt>
      <trkpt lat="43.24958" lon="6.34074">
        <ele>261.251907</ele>
        <time>2021-05-19T01:31:48.122Z</time>
      </trkpt>
      <trkpt lat="43.24957" lon="6.34015">
        <ele>256.818517</ele>
        <time>2021-05-19T01:31:56.826Z</time>
      </trkpt>
      <trkpt lat="43.2498" lon="6.33977">
        <ele>254.915796</ele>
        <time>2021-05-19T01:32:04.408Z</time>
      </trkpt>
      <trkpt lat="43.24979" lon="6.33956">
        <ele>254.165509</ele>
        <time>2021-05-19T01:32:07.724Z</time>
      </trkpt>
      <trkpt lat="43.24928" lon="6.33957">
        <ele>251.669583</ele>
        <time>2021-05-19T01:32:19.082Z</time>
      </trkpt>
      <trkpt lat="43.24905" lon="6.34019">
        <ele>249.191029</ele>
        <time>2021-05-19T01:32:31.778Z</time>
      </trkpt>
      <trkpt lat="43.24862" lon="6.34083">
        <ele>247.891219</ele>
        <time>2021-05-19T01:32:51.482Z</time>
      </trkpt>
      <trkpt lat="43.24856" lon="6.34101">
        <ele>247.941011</ele>
        <time>2021-05-19T01:32:56.744Z</time>
      </trkpt>
      <trkpt lat="43.24856" lon="6.34125">
        <ele>248.003242</ele>
        <time>2021-05-19T01:33:02.942Z</time>
      </trkpt>
      <trkpt lat="43.24843" lon="6.34133">
        <ele>248.053152</ele>
        <time>2021-05-19T01:33:07.969Z</time>
      </trkpt>
      <trkpt lat="43.24812" lon="6.34084">
        <ele>248.220093</ele>
        <time>2021-05-19T01:33:23.911Z</time>
      </trkpt>
      <trkpt lat="43.24783" lon="6.34064">
        <ele>248.332307</ele>
        <time>2021-05-19T01:33:33.934Z</time>
      </trkpt>
      <trkpt lat="43.24738" lon="6.34082">
        <ele>247.381892</ele>
        <time>2021-05-19T01:33:47.579Z</time>
      </trkpt>
      <trkpt lat="43.24701" lon="6.34066">
        <ele>245.877529</ele>
        <time>2021-05-19T01:33:58.061Z</time>
      </trkpt>
      <trkpt lat="43.24643" lon="6.34069">
        <ele>243.662699</ele>
        <time>2021-05-19T01:34:11.949Z</time>
      </trkpt>
      <trkpt lat="43.24565" lon="6.34009">
        <ele>238.557135</ele>
        <time>2021-05-19T01:34:31.389Z</time>
      </trkpt>
      <trkpt lat="43.24484" lon="6.34018">
        <ele>231.342763</ele>
        <time>2021-05-19T01:34:48.446Z</time>
      </trkpt>
      <trkpt lat="43.24455" lon="6.33985">
        <ele>228.007203</ele>
        <time>2021-05-19T01:34:56.222Z</time>
      </trkpt>
      <trkpt lat="43.2446" lon="6.33951">
        <ele>225.745505</ele>
        <time>2021-05-19T01:35:01.465Z</time>
      </trkpt>
      <trkpt lat="43.24455" lon="6.33893">
        <ele>222.730748</ele>
        <time>2021-05-19T01:35:10.248Z</time>
      </trkpt>
      <trkpt lat="43.24448" lon="6.33839">
        <ele>219.922076</ele>
        <time>2021-05-19T01:35:18.655Z</time>
      </trkpt>
      <trkpt lat="43.24436" lon="6.33828">
        <ele>218.889191</ele>
        <time>2021-05-19T01:35:21.786Z</time>
      </trkpt>
      <trkpt lat="43.24425" lon="6.33832">
        <ele>218.079923</ele>
        <time>2021-05-19T01:35:24.211Z</time>
      </trkpt>
      <trkpt lat="43.24404" lon="6.33859">
        <ele>216.046109</ele>
        <time>2021-05-19T01:35:30.632Z</time>
      </trkpt>
      <trkpt lat="43.24399" lon="6.33865">
        <ele>215.581124</ele>
        <time>2021-05-19T01:35:32.055Z</time>
      </trkpt>
      <trkpt lat="43.24344" lon="6.33981">
        <ele>212.899052</ele>
        <time>2021-05-19T01:35:57.417Z</time>
      </trkpt>
      <trkpt lat="43.24312" lon="6.34014">
        <ele>212.880919</ele>
        <time>2021-05-19T01:36:10.073Z</time>
      </trkpt>
      <trkpt lat="43.2428" lon="6.3404">
        <ele>212.863993</ele>
        <time>2021-05-19T01:36:23.860Z</time>
      </trkpt>
      <trkpt lat="43.24272" lon="6.34041">
        <ele>212.860104</ele>
        <time>2021-05-19T01:36:26.951Z</time>
      </trkpt>
      <trkpt lat="43.24262" lon="6.34037">
        <ele>212.855515</ele>
        <time>2021-05-19T01:36:31.379Z</time>
      </trkpt>
      <trkpt lat="43.24251" lon="6.34033">
        <ele>212.850481</ele>
        <time>2021-05-19T01:36:34.630Z</time>
      </trkpt>
      <trkpt lat="43.24243" lon="6.34029">
        <ele>212.846289</ele>
        <time>2021-05-19T01:36:36.574Z</time>
      </trkpt>
      <trkpt lat="43.24236" lon="6.34023">
        <ele>213.027636</ele>
        <time>2021-05-19T01:36:38.868Z</time>
      </trkpt>
      <trkpt lat="43.24222" lon="6.34008">
        <ele>213.504651</ele>
        <time>2021-05-19T01:36:44.785Z</time>
      </trkpt>
      <trkpt lat="43.24182" lon="6.33979">
        <ele>214.671664</ele>
        <time>2021-05-19T01:36:57.838Z</time>
      </trkpt>
      <trkpt lat="43.24107" lon="6.33856">
        <ele>217.500014</ele>
        <time>2021-05-19T01:37:32.149Z</time>
      </trkpt>
      <trkpt lat="43.24101" lon="6.33821">
        <ele>217.504512</ele>
        <time>2021-05-19T01:37:37.719Z</time>
      </trkpt>
      <trkpt lat="43.24104" lon="6.33789">
        <ele>217.508626</ele>
        <time>2021-05-19T01:37:42.258Z</time>
      </trkpt>
      <trkpt lat="43.24129" lon="6.33736">
        <ele>217.516695</ele>
        <time>2021-05-19T01:37:50.756Z</time>
      </trkpt>
      <trkpt lat="43.24137" lon="6.33684">
        <ele>217.523545</ele>
        <time>2021-05-19T01:37:57.372Z</time>
      </trkpt>
      <trkpt lat="43.24118" lon="6.3356">
        <ele>216.489898</ele>
        <time>2021-05-19T01:38:11.147Z</time>
      </trkpt>
      <trkpt lat="43.24108" lon="6.33472">
        <ele>215.247694</ele>
        <time>2021-05-19T01:38:20.520Z</time>
      </trkpt>
      <trkpt lat="43.241" lon="6.33414">
        <ele>214.431245</ele>
        <time>2021-05-19T01:38:26.980Z</time>
      </trkpt>
      <trkpt lat="43.24108" lon="6.33281">
        <ele>212.817811</ele>
        <time>2021-05-19T01:38:41.316Z</time>
      </trkpt>
      <trkpt lat="43.24111" lon="6.33218">
        <ele>212.087211</ele>
        <time>2021-05-19T01:38:48.175Z</time>
      </trkpt>
      <trkpt lat="43.24133" lon="6.33145">
        <ele>211.135444</ele>
        <time>2021-05-19T01:38:57.477Z</time>
      </trkpt>
      <trkpt lat="43.24159" lon="6.33084">
        <ele>210.096534</ele>
        <time>2021-05-19T01:39:05.642Z</time>
      </trkpt>
      <trkpt lat="43.2418" lon="6.33062">
        <ele>209.569351</ele>
        <time>2021-05-19T01:39:09.531Z</time>
      </trkpt>
      <trkpt lat="43.24219" lon="6.33033">
        <ele>208.668665</ele>
        <time>2021-05-19T01:39:15.824Z</time>
      </trkpt>
      <trkpt lat="43.2423" lon="6.33005">
        <ele>208.205274</ele>
        <time>2021-05-19T01:39:19.062Z</time>
      </trkpt>
      <trkpt lat="43.24226" lon="6.32978">
        <ele>207.794018</ele>
        <time>2021-05-19T01:39:21.976Z</time>
      </trkpt>
      <trkpt lat="43.24209" lon="6.32934">
        <ele>206.761717</ele>
        <time>2021-05-19T01:39:27.040Z</time>
      </trkpt>
      <trkpt lat="43.24193" lon="6.32915">
        <ele>206.074762</ele>
        <time>2021-05-19T01:39:29.972Z</time>
      </trkpt>
      <trkpt lat="43.2416" lon="6.32895">
        <ele>204.89268</ele>
        <time>2021-05-19T01:39:34.972Z</time>
      </trkpt>
      <trkpt lat="43.24142" lon="6.32875">
        <ele>204.131569</ele>
        <time>2021-05-19T01:39:38.157Z</time>
      </trkpt>
      <trkpt lat="43.24121" lon="6.32841">
        <ele>203.070883</ele>
        <time>2021-05-19T01:39:42.542Z</time>
      </trkpt>
      <trkpt lat="43.24119" lon="6.32813">
        <ele>202.416205</ele>
        <time>2021-05-19T01:39:45.219Z</time>
      </trkpt>
      <trkpt lat="43.24143" lon="6.32731">
        <ele>200.444318</ele>
        <time>2021-05-19T01:39:53.885Z</time>
      </trkpt>
      <trkpt lat="43.24158" lon="6.32702">
        <ele>199.695428</ele>
        <time>2021-05-19T01:39:57.346Z</time>
      </trkpt>
      <trkpt lat="43.24225" lon="6.32659">
        <ele>197.508356</ele>
        <time>2021-05-19T01:40:07.634Z</time>
      </trkpt>
      <trkpt lat="43.24253" lon="6.32628">
        <ele>196.450047</ele>
        <time>2021-05-19T01:40:12.800Z</time>
      </trkpt>
      <trkpt lat="43.24264" lon="6.32606">
        <ele>196.061323</ele>
        <time>2021-05-19T01:40:15.675Z</time>
      </trkpt>
      <trkpt lat="43.24259" lon="6.32532">
        <ele>195.001789</ele>
        <time>2021-05-19T01:40:23.816Z</time>
      </trkpt>
      <trkpt lat="43.24275" lon="6.32469">
        <ele>194.056907</ele>
        <time>2021-05-19T01:40:31.255Z</time>
      </trkpt>
      <trkpt lat="43.24299" lon="6.32272">
        <ele>190.117792</ele>
        <time>2021-05-19T01:40:52.205Z</time>
      </trkpt>
      <trkpt lat="43.2429" lon="6.32241">
        <ele>189.352086</ele>
        <time>2021-05-19T01:40:55.427Z</time>
      </trkpt>
      <trkpt lat="43.24259" lon="6.32179">
        <ele>187.590353</ele>
        <time>2021-05-19T01:41:02.764Z</time>
      </trkpt>
      <trkpt lat="43.24222" lon="6.32131">
        <ele>185.491582</ele>
        <time>2021-05-19T01:41:09.394Z</time>
      </trkpt>
      <trkpt lat="43.24199" lon="6.32121">
        <ele>184.440203</ele>
        <time>2021-05-19T01:41:12.378Z</time>
      </trkpt>
      <trkpt lat="43.24159" lon="6.32115">
        <ele>182.64501</ele>
        <time>2021-05-19T01:41:17.472Z</time>
      </trkpt>
      <trkpt lat="43.24103" lon="6.32129">
        <ele>180.142648</ele>
        <time>2021-05-19T01:41:24.759Z</time>
      </trkpt>
      <trkpt lat="43.24069" lon="6.32143">
        <ele>178.999768</ele>
        <time>2021-05-19T01:41:29.484Z</time>
      </trkpt>
      <trkpt lat="43.24042" lon="6.32157">
        <ele>178.63156</ele>
        <time>2021-05-19T01:41:33.422Z</time>
      </trkpt>
      <trkpt lat="43.23936" lon="6.32153">
        <ele>177.254278</ele>
        <time>2021-05-19T01:41:51.214Z</time>
      </trkpt>
      <trkpt lat="43.23903" lon="6.32163">
        <ele>176.825173</ele>
        <time>2021-05-19T01:41:57.529Z</time>
      </trkpt>
      <trkpt lat="43.23879" lon="6.32171">
        <ele>176.588248</ele>
        <time>2021-05-19T01:42:01.854Z</time>
      </trkpt>
      <trkpt lat="43.23851" lon="6.32169">
        <ele>176.317614</ele>
        <time>2021-05-19T01:42:06.144Z</time>
      </trkpt>
      <trkpt lat="43.23841" lon="6.32168">
        <ele>176.220531</ele>
        <time>2021-05-19T01:42:09.164Z</time>
      </trkpt>
      <trkpt lat="43.23834" lon="6.32161">
        <ele>176.135892</ele>
        <time>2021-05-19T01:42:10.533Z</time>
      </trkpt>
      <trkpt lat="43.23829" lon="6.32157">
        <ele>176.075607</ele>
        <time>2021-05-19T01:42:11.298Z</time>
      </trkpt>
      <trkpt lat="43.23824" lon="6.32088">
        <ele>175.590181</ele>
        <time>2021-05-19T01:42:20.165Z</time>
      </trkpt>
      <trkpt lat="43.23825" lon="6.32042">
        <ele>175.265628</ele>
        <time>2021-05-19T01:42:25.281Z</time>
      </trkpt>
      <trkpt lat="43.23825" lon="6.32029">
        <ele>175.173201</ele>
        <time>2021-05-19T01:42:27.678Z</time>
      </trkpt>
      <trkpt lat="43.23786" lon="6.31929">
        <ele>172.940272</ele>
        <time>2021-05-19T01:42:38.667Z</time>
      </trkpt>
      <trkpt lat="43.23776" lon="6.31885">
        <ele>171.971858</ele>
        <time>2021-05-19T01:42:43.240Z</time>
      </trkpt>
      <trkpt lat="43.23774" lon="6.31869">
        <ele>171.632566</ele>
        <time>2021-05-19T01:42:44.828Z</time>
      </trkpt>
      <trkpt lat="43.2376" lon="6.31795">
        <ele>170.044668</ele>
        <time>2021-05-19T01:42:52.772Z</time>
      </trkpt>
      <trkpt lat="43.23731" lon="6.3164">
        <ele>168.116882</ele>
        <time>2021-05-19T01:43:09.832Z</time>
      </trkpt>
      <trkpt lat="43.23728" lon="6.31625">
        <ele>167.938553</ele>
        <time>2021-05-19T01:43:11.499Z</time>
      </trkpt>
      <trkpt lat="43.23719" lon="6.31575">
        <ele>167.324179</ele>
        <time>2021-05-19T01:43:17.730Z</time>
      </trkpt>
      <trkpt lat="43.23719" lon="6.31573">
        <ele>167.299625</ele>
        <time>2021-05-19T01:43:17.944Z</time>
      </trkpt>
      <trkpt lat="43.23713" lon="6.31542">
        <ele>167.011786</ele>
        <time>2021-05-19T01:43:22.024Z</time>
      </trkpt>
      <trkpt lat="43.23707" lon="6.31511">
        <ele>166.901367</ele>
        <time>2021-05-19T01:43:25.912Z</time>
      </trkpt>
      <trkpt lat="43.2369" lon="6.31418">
        <ele>166.578694</ele>
        <time>2021-05-19T01:43:37.580Z</time>
      </trkpt>
      <trkpt lat="43.23689" lon="6.31407">
        <ele>166.53978</ele>
        <time>2021-05-19T01:43:38.959Z</time>
      </trkpt>
      <trkpt lat="43.23685" lon="6.31379">
        <ele>166.443485</ele>
        <time>2021-05-19T01:43:42.628Z</time>
      </trkpt>
      <trkpt lat="43.23685" lon="6.31331">
        <ele>166.280865</ele>
        <time>2021-05-19T01:43:48.710Z</time>
      </trkpt>
      <trkpt lat="43.23687" lon="6.31311">
        <ele>166.212727</ele>
        <time>2021-05-19T01:43:51.087Z</time>
      </trkpt>
      <trkpt lat="43.23694" lon="6.3129">
        <ele>166.040741</ele>
        <time>2021-05-19T01:43:54.086Z</time>
      </trkpt>
      <trkpt lat="43.23724" lon="6.31244">
        <ele>165.593192</ele>
        <time>2021-05-19T01:44:01.344Z</time>
      </trkpt>
      <trkpt lat="43.23736" lon="6.31231">
        <ele>165.435878</ele>
        <time>2021-05-19T01:44:03.718Z</time>
      </trkpt>
      <trkpt lat="43.23779" lon="6.31185">
        <ele>164.892194</ele>
        <time>2021-05-19T01:44:12.357Z</time>
      </trkpt>
      <trkpt lat="43.23818" lon="6.31141">
        <ele>164.416832</ele>
        <time>2021-05-19T01:44:20.142Z</time>
      </trkpt>
      <trkpt lat="43.23822" lon="6.31121">
        <ele>164.500839</ele>
        <time>2021-05-19T01:44:22.509Z</time>
      </trkpt>
      <trkpt lat="43.23825" lon="6.31112">
        <ele>164.544586</ele>
        <time>2021-05-19T01:44:23.659Z</time>
      </trkpt>
      <trkpt lat="43.23825" lon="6.31091">
        <ele>164.63221</ele>
        <time>2021-05-19T01:44:25.984Z</time>
      </trkpt>
      <trkpt lat="43.23823" lon="6.31072">
        <ele>164.711353</ele>
        <time>2021-05-19T01:44:28.358Z</time>
      </trkpt>
      <trkpt lat="43.23823" lon="6.31064">
        <ele>164.74599</ele>
        <time>2021-05-19T01:44:29.330Z</time>
      </trkpt>
      <trkpt lat="43.23823" lon="6.31035">
        <ele>164.86891</ele>
        <time>2021-05-19T01:44:33.100Z</time>
      </trkpt>
      <trkpt lat="43.23823" lon="6.31029">
        <ele>164.89291</ele>
        <time>2021-05-19T01:44:34.064Z</time>
      </trkpt>
      <trkpt lat="43.23823" lon="6.31028">
        <ele>164.899251</ele>
        <time>2021-05-19T01:44:34.257Z</time>
      </trkpt>
      <trkpt lat="43.23823" lon="6.31011">
        <ele>164.971662</ele>
        <time>2021-05-19T01:44:36.544Z</time>
      </trkpt>
      <trkpt lat="43.23816" lon="6.30973">
        <ele>165.135695</ele>
        <time>2021-05-19T01:44:43.279Z</time>
      </trkpt>
      <trkpt lat="43.23795" lon="6.30948">
        <ele>165.296808</ele>
        <time>2021-05-19T01:44:50.500Z</time>
      </trkpt>
      <trkpt lat="43.23809" lon="6.30933">
        <ele>165.398453</ele>
        <time>2021-05-19T01:44:55.140Z</time>
      </trkpt>
      <trkpt lat="43.23805" lon="6.3093">
        <ele>165.422189</ele>
        <time>2021-05-19T01:44:56.288Z</time>
      </trkpt>
      <trkpt lat="43.23798" lon="6.3092">
        <ele>165.683817</ele>
        <time>2021-05-19T01:44:59.471Z</time>
      </trkpt>
      <trkpt lat="43.23722" lon="6.30995">
        <ele>169.070737</ele>
        <time>2021-05-19T01:45:32.467Z</time>
      </trkpt>
      <trkpt lat="43.2371" lon="6.30996">
        <ele>169.504014</ele>
        <time>2021-05-19T01:45:36.297Z</time>
      </trkpt>
      <trkpt lat="43.23698" lon="6.30995">
        <ele>169.929488</ele>
        <time>2021-05-19T01:45:40.640Z</time>
      </trkpt>
      <trkpt lat="43.23681" lon="6.30994">
        <ele>170.547952</ele>
        <time>2021-05-19T01:45:45.813Z</time>
      </trkpt>
      <trkpt lat="43.23673" lon="6.30997">
        <ele>170.866568</ele>
        <time>2021-05-19T01:45:48.587Z</time>
      </trkpt>
      <trkpt lat="43.23655" lon="6.31016">
        <ele>171.690393</ele>
        <time>2021-05-19T01:45:56.921Z</time>
      </trkpt>
      <trkpt lat="43.23649" lon="6.31026">
        <ele>172.037433</ele>
        <time>2021-05-19T01:45:59.752Z</time>
      </trkpt>
      <trkpt lat="43.23644" lon="6.31031">
        <ele>172.382575</ele>
        <time>2021-05-19T01:46:01.871Z</time>
      </trkpt>
      <trkpt lat="43.23635" lon="6.31041">
        <ele>173.010187</ele>
        <time>2021-05-19T01:46:06.094Z</time>
      </trkpt>
      <trkpt lat="43.23597" lon="6.31019">
        <ele>175.285212</ele>
        <time>2021-05-19T01:46:18.381Z</time>
      </trkpt>
      <trkpt lat="43.23587" lon="6.31014">
        <ele>175.826835</ele>
        <time>2021-05-19T01:46:21.229Z</time>
      </trkpt>
      <trkpt lat="43.23578" lon="6.31008">
        <ele>176.36692</ele>
        <time>2021-05-19T01:46:24.295Z</time>
      </trkpt>
      <trkpt lat="43.23538" lon="6.30983">
        <ele>178.780501</ele>
        <time>2021-05-19T01:46:43.561Z</time>
      </trkpt>
      <trkpt lat="43.23534" lon="6.30982">
        <ele>178.971959</ele>
        <time>2021-05-19T01:46:45.971Z</time>
      </trkpt>
      <trkpt lat="43.2351" lon="6.30975">
        <ele>180.306217</ele>
        <time>2021-05-19T01:46:56.393Z</time>
      </trkpt>
      <trkpt lat="43.23495" lon="6.30972">
        <ele>181.133274</ele>
        <time>2021-05-19T01:47:05.160Z</time>
      </trkpt>
      <trkpt lat="43.23492" lon="6.30969">
        <ele>181.329844</ele>
        <time>2021-05-19T01:47:06.678Z</time>
      </trkpt>
      <trkpt lat="43.23477" lon="6.30964">
        <ele>182.792099</ele>
        <time>2021-05-19T01:47:12.398Z</time>
      </trkpt>
      <trkpt lat="43.23458" lon="6.3096">
        <ele>185.2953</ele>
        <time>2021-05-19T01:47:23.835Z</time>
      </trkpt>
      <trkpt lat="43.23444" lon="6.30956">
        <ele>187.084502</ele>
        <time>2021-05-19T01:47:31.905Z</time>
      </trkpt>
      <trkpt lat="43.23434" lon="6.30958">
        <ele>188.437833</ele>
        <time>2021-05-19T01:47:38.334Z</time>
      </trkpt>
      <trkpt lat="43.23424" lon="6.30959">
        <ele>189.713571</ele>
        <time>2021-05-19T01:47:48.060Z</time>
      </trkpt>
      <trkpt lat="43.23385" lon="6.30969">
        <ele>194.776264</ele>
        <time>2021-05-19T01:48:19.952Z</time>
      </trkpt>
      <trkpt lat="43.23349" lon="6.30969">
        <ele>199.467058</ele>
        <time>2021-05-19T01:48:53.172Z</time>
      </trkpt>
      <trkpt lat="43.23297" lon="6.30937">
        <ele>207.158916</ele>
        <time>2021-05-19T01:49:47.679Z</time>
      </trkpt>
      <trkpt lat="43.23279" lon="6.30935">
        <ele>210.020206</ele>
        <time>2021-05-19T01:50:07.853Z</time>
      </trkpt>
      <trkpt lat="43.23265" lon="6.30918">
        <ele>212.955162</ele>
        <time>2021-05-19T01:50:25.183Z</time>
      </trkpt>
    </trkseg>
  </trk>
</gpx>